﻿<?xml version="1.0" encoding="utf-8"?><gpx creator="Garmin Desktop App" version="1.1" xsi:schemaLocation="http://www.topografix.com/GPX/1/1 http://www.topografix.com/GPX/1/1/gpx.xsd http://www.garmin.com/xmlschemas/WaypointExtension/v1 http://www8.garmin.com/xmlschemas/WaypointExtensionv1.xsd http://www.garmin.com/xmlschemas/TrackPointExtension/v1 http://www.garmin.com/xmlschemas/TrackPointExtensionv1.xsd http://www.garmin.com/xmlschemas/GpxExtensions/v3 http://www8.garmin.com/xmlschemas/GpxExtensionsv3.xsd http://www.garmin.com/xmlschemas/ActivityExtension/v1 http://www8.garmin.com/xmlschemas/ActivityExtensionv1.xsd http://www.garmin.com/xmlschemas/AdventuresExtensions/v1 http://www8.garmin.com/xmlschemas/AdventuresExtensionv1.xsd http://www.garmin.com/xmlschemas/PressureExtension/v1 http://www.garmin.com/xmlschemas/PressureExtensionv1.xsd http://www.garmin.com/xmlschemas/TripExtensions/v1 http://www.garmin.com/xmlschemas/TripExtensionsv1.xsd http://www.garmin.com/xmlschemas/TripMetaDataExtensions/v1 http://www.garmin.com/xmlschemas/TripMetaDataExtensionsv1.xsd http://www.garmin.com/xmlschemas/ViaPointTransportationModeExtensions/v1 http://www.garmin.com/xmlschemas/ViaPointTransportationModeExtensionsv1.xsd http://www.garmin.com/xmlschemas/CreationTimeExtension/v1 http://www.garmin.com/xmlschemas/CreationTimeExtensionsv1.xsd http://www.garmin.com/xmlschemas/AccelerationExtension/v1 http://www.garmin.com/xmlschemas/AccelerationExtensionv1.xsd http://www.garmin.com/xmlschemas/PowerExtension/v1 http://www.garmin.com/xmlschemas/PowerExtensionv1.xsd http://www.garmin.com/xmlschemas/VideoExtension/v1 http://www.garmin.com/xmlschemas/VideoExtensionv1.xsd" xmlns="http://www.topografix.com/GPX/1/1" xmlns:xsi="http://www.w3.org/2001/XMLSchema-instance" xmlns:wptx1="http://www.garmin.com/xmlschemas/WaypointExtension/v1" xmlns:gpxtrx="http://www.garmin.com/xmlschemas/GpxExtensions/v3" xmlns:gpxtpx="http://www.garmin.com/xmlschemas/TrackPointExtension/v1" xmlns:gpxx="http://www.garmin.com/xmlschemas/GpxExtensions/v3" xmlns:trp="http://www.garmin.com/xmlschemas/TripExtensions/v1" xmlns:adv="http://www.garmin.com/xmlschemas/AdventuresExtensions/v1" xmlns:prs="http://www.garmin.com/xmlschemas/PressureExtension/v1" xmlns:tmd="http://www.garmin.com/xmlschemas/TripMetaDataExtensions/v1" xmlns:vptm="http://www.garmin.com/xmlschemas/ViaPointTransportationModeExtensions/v1" xmlns:ctx="http://www.garmin.com/xmlschemas/CreationTimeExtension/v1" xmlns:gpxacc="http://www.garmin.com/xmlschemas/AccelerationExtension/v1" xmlns:gpxpx="http://www.garmin.com/xmlschemas/PowerExtension/v1" xmlns:vidx1="http://www.garmin.com/xmlschemas/VideoExtension/v1">

  <metadata>
    <link href="http://www.garmin.com">
      <text>Garmin International</text>
    </link>
    <time>2021-02-20T10:04:38Z</time>
    <bounds maxlat="44.206968527287245" maxlon="8.424709718674421" minlat="44.181201718747616" minlon="8.402601443231106" />
  </metadata>

  <trk>
    <name>siel-noli-varigotti2016-04-03</name>
    <extensions>
      <gpxx:TrackExtension>
        <gpxx:DisplayColor>Yellow</gpxx:DisplayColor>
      </gpxx:TrackExtension>
    </extensions>
    <trkseg>
      <trkpt lat="44.201856907457113" lon="8.415745524689555">
        <ele>8.789999999999999</ele>
        <time>2016-04-03T07:56:50Z</time>
      </trkpt>
      <trkpt lat="44.201856488361955" lon="8.415741920471191">
        <ele>8.789999999999999</ele>
        <time>2016-04-03T07:56:51Z</time>
      </trkpt>
      <trkpt lat="44.201843999326229" lon="8.415762623772025">
        <ele>8.310000000000001</ele>
        <time>2016-04-03T07:57:08Z</time>
      </trkpt>
      <trkpt lat="44.201830336824059" lon="8.415787098929286">
        <ele>8.310000000000001</ele>
        <time>2016-04-03T07:57:28Z</time>
      </trkpt>
      <trkpt lat="44.201817344874144" lon="8.415815345942974">
        <ele>8.310000000000001</ele>
        <time>2016-04-03T07:57:44Z</time>
      </trkpt>
      <trkpt lat="44.201833941042423" lon="8.41580000706017">
        <ele>8.310000000000001</ele>
        <time>2016-04-03T07:57:55Z</time>
      </trkpt>
      <trkpt lat="44.201839808374643" lon="8.415777795016766">
        <ele>8.310000000000001</ele>
        <time>2016-04-03T07:58:02Z</time>
      </trkpt>
      <trkpt lat="44.201822625473142" lon="8.415789194405079">
        <ele>8.789999999999999</ele>
        <time>2016-04-03T07:58:11Z</time>
      </trkpt>
      <trkpt lat="44.201827235519886" lon="8.415804617106915">
        <ele>8.789999999999999</ele>
        <time>2016-04-03T07:58:28Z</time>
      </trkpt>
      <trkpt lat="44.201832180842757" lon="8.415795648470521">
        <ele>8.310000000000001</ele>
        <time>2016-04-03T07:58:45Z</time>
      </trkpt>
      <trkpt lat="44.201828325167298" lon="8.415783243253827">
        <ele>8.310000000000001</ele>
        <time>2016-04-03T07:59:01Z</time>
      </trkpt>
      <trkpt lat="44.201813573017716" lon="8.415785590186715">
        <ele>8.310000000000001</ele>
        <time>2016-04-03T07:59:19Z</time>
      </trkpt>
      <trkpt lat="44.201821368187666" lon="8.415772765874863">
        <ele>8.310000000000001</ele>
        <time>2016-04-03T07:59:37Z</time>
      </trkpt>
      <trkpt lat="44.201815417036414" lon="8.41578240506351">
        <ele>8.310000000000001</ele>
        <time>2016-04-03T07:59:54Z</time>
      </trkpt>
      <trkpt lat="44.201794294640422" lon="8.415788691490889">
        <ele>8.789999999999999</ele>
        <time>2016-04-03T07:59:57Z</time>
      </trkpt>
      <trkpt lat="44.201735788956285" lon="8.415718283504248">
        <ele>8.310000000000001</ele>
        <time>2016-04-03T08:00:09Z</time>
      </trkpt>
      <trkpt lat="44.201735537499189" lon="8.415710488334298">
        <ele>8.310000000000001</ele>
        <time>2016-04-03T08:00:21Z</time>
      </trkpt>
      <trkpt lat="44.20172874815762" lon="8.415684336796403">
        <ele>7.83</ele>
        <time>2016-04-03T08:00:35Z</time>
      </trkpt>
      <trkpt lat="44.201732268556952" lon="8.41568123549223">
        <ele>7.83</ele>
        <time>2016-04-03T08:00:44Z</time>
      </trkpt>
      <trkpt lat="44.20175020582974" lon="8.415676206350327">
        <ele>8.310000000000001</ele>
        <time>2016-04-03T08:01:00Z</time>
      </trkpt>
      <trkpt lat="44.201743584126234" lon="8.415689114481211">
        <ele>7.83</ele>
        <time>2016-04-03T08:01:20Z</time>
      </trkpt>
      <trkpt lat="44.20175121165812" lon="8.415692886337638">
        <ele>7.83</ele>
        <time>2016-04-03T08:01:32Z</time>
      </trkpt>
      <trkpt lat="44.201740231364965" lon="8.415706213563681">
        <ele>8.310000000000001</ele>
        <time>2016-04-03T08:01:50Z</time>
      </trkpt>
      <trkpt lat="44.201745595782995" lon="8.415707470849156">
        <ele>7.83</ele>
        <time>2016-04-03T08:02:00Z</time>
      </trkpt>
      <trkpt lat="44.201744254678488" lon="8.415689449757338">
        <ele>8.310000000000001</ele>
        <time>2016-04-03T08:02:18Z</time>
      </trkpt>
      <trkpt lat="44.201727993786335" lon="8.415714679285884">
        <ele>8.310000000000001</ele>
        <time>2016-04-03T08:02:34Z</time>
      </trkpt>
      <trkpt lat="44.201734866946936" lon="8.415715098381043">
        <ele>7.83</ele>
        <time>2016-04-03T08:02:47Z</time>
      </trkpt>
      <trkpt lat="44.201736627146602" lon="8.415726162493229">
        <ele>8.310000000000001</ele>
        <time>2016-04-03T08:03:00Z</time>
      </trkpt>
      <trkpt lat="44.201746853068471" lon="8.415808724239469">
        <ele>8.310000000000001</ele>
        <time>2016-04-03T08:03:10Z</time>
      </trkpt>
      <trkpt lat="44.201753810048103" lon="8.415777124464512">
        <ele>8.310000000000001</ele>
        <time>2016-04-03T08:03:23Z</time>
      </trkpt>
      <trkpt lat="44.201820613816381" lon="8.415740747004747">
        <ele>8.310000000000001</ele>
        <time>2016-04-03T08:03:34Z</time>
      </trkpt>
      <trkpt lat="44.201838886365294" lon="8.415732281282544">
        <ele>7.83</ele>
        <time>2016-04-03T08:03:36Z</time>
      </trkpt>
      <trkpt lat="44.201884316280484" lon="8.415723228827119">
        <ele>7.83</ele>
        <time>2016-04-03T08:03:44Z</time>
      </trkpt>
      <trkpt lat="44.201928656548262" lon="8.415705962106586">
        <ele>7.83</ele>
        <time>2016-04-03T08:03:49Z</time>
      </trkpt>
      <trkpt lat="44.202003087848425" lon="8.415649384260178">
        <ele>7.35</ele>
        <time>2016-04-03T08:04:00Z</time>
      </trkpt>
      <trkpt lat="44.202109789475799" lon="8.415606552734971">
        <ele>7.35</ele>
        <time>2016-04-03T08:04:15Z</time>
      </trkpt>
      <trkpt lat="44.202187824994326" lon="8.415560619905591">
        <ele>7.35</ele>
        <time>2016-04-03T08:04:27Z</time>
      </trkpt>
      <trkpt lat="44.202233841642737" lon="8.415530025959015">
        <ele>7.35</ele>
        <time>2016-04-03T08:04:33Z</time>
      </trkpt>
      <trkpt lat="44.2023307364434" lon="8.415498677641153">
        <ele>7.83</ele>
        <time>2016-04-03T08:04:45Z</time>
      </trkpt>
      <trkpt lat="44.202413884922862" lon="8.415535055100918">
        <ele>7.83</ele>
        <time>2016-04-03T08:04:58Z</time>
      </trkpt>
      <trkpt lat="44.202514635398984" lon="8.415449894964695">
        <ele>7.83</ele>
        <time>2016-04-03T08:05:08Z</time>
      </trkpt>
      <trkpt lat="44.202672718092799" lon="8.415463892742991">
        <ele>7.35</ele>
        <time>2016-04-03T08:05:21Z</time>
      </trkpt>
      <trkpt lat="44.202843625098467" lon="8.415478728711605">
        <ele>7.83</ele>
        <time>2016-04-03T08:05:37Z</time>
      </trkpt>
      <trkpt lat="44.202971616759896" lon="8.415500773116946">
        <ele>8.789999999999999</ele>
        <time>2016-04-03T08:05:52Z</time>
      </trkpt>
      <trkpt lat="44.203162640333176" lon="8.415469843894243">
        <ele>9.75</ele>
        <time>2016-04-03T08:06:06Z</time>
      </trkpt>
      <trkpt lat="44.20317504554987" lon="8.415466072037816">
        <ele>9.75</ele>
        <time>2016-04-03T08:06:07Z</time>
      </trkpt>
      <trkpt lat="44.203189797699451" lon="8.415470430627465">
        <ele>9.75</ele>
        <time>2016-04-03T08:06:09Z</time>
      </trkpt>
      <trkpt lat="44.203363051638007" lon="8.415528265759349">
        <ele>8.789999999999999</ele>
        <time>2016-04-03T08:06:24Z</time>
      </trkpt>
      <trkpt lat="44.203503867611289" lon="8.415595404803753">
        <ele>8.310000000000001</ele>
        <time>2016-04-03T08:06:37Z</time>
      </trkpt>
      <trkpt lat="44.203662788495421" lon="8.415690874680877">
        <ele>7.35</ele>
        <time>2016-04-03T08:06:50Z</time>
      </trkpt>
      <trkpt lat="44.203724395483732" lon="8.415725994855166">
        <ele>6.87</ele>
        <time>2016-04-03T08:06:56Z</time>
      </trkpt>
      <trkpt lat="44.20383864082396" lon="8.415746781975031">
        <ele>5.91</ele>
        <time>2016-04-03T08:07:06Z</time>
      </trkpt>
      <trkpt lat="44.203862361609936" lon="8.415773855522275">
        <ele>6.39</ele>
        <time>2016-04-03T08:07:09Z</time>
      </trkpt>
      <trkpt lat="44.203914580866694" lon="8.415826074779034">
        <ele>6.39</ele>
        <time>2016-04-03T08:07:15Z</time>
      </trkpt>
      <trkpt lat="44.203938385471702" lon="8.415857506915927">
        <ele>6.87</ele>
        <time>2016-04-03T08:07:18Z</time>
      </trkpt>
      <trkpt lat="44.20396369881928" lon="8.415899081155658">
        <ele>6.87</ele>
        <time>2016-04-03T08:07:22Z</time>
      </trkpt>
      <trkpt lat="44.20405657030642" lon="8.41597443446517">
        <ele>6.87</ele>
        <time>2016-04-03T08:07:33Z</time>
      </trkpt>
      <trkpt lat="44.204111807048321" lon="8.41595683246851">
        <ele>6.87</ele>
        <time>2016-04-03T08:07:43Z</time>
      </trkpt>
      <trkpt lat="44.204178191721439" lon="8.415944594889879">
        <ele>6.39</ele>
        <time>2016-04-03T08:07:54Z</time>
      </trkpt>
      <trkpt lat="44.204187579452991" lon="8.415942331776023">
        <ele>6.39</ele>
        <time>2016-04-03T08:08:05Z</time>
      </trkpt>
      <trkpt lat="44.204145837575197" lon="8.415953228250146">
        <ele>6.39</ele>
        <time>2016-04-03T08:08:16Z</time>
      </trkpt>
      <trkpt lat="44.20415572822094" lon="8.415974350646138">
        <ele>6.87</ele>
        <time>2016-04-03T08:08:39Z</time>
      </trkpt>
      <trkpt lat="44.204169809818268" lon="8.41596613638103">
        <ele>6.87</ele>
        <time>2016-04-03T08:08:54Z</time>
      </trkpt>
      <trkpt lat="44.204190764576197" lon="8.415951635688543">
        <ele>7.35</ele>
        <time>2016-04-03T08:09:04Z</time>
      </trkpt>
      <trkpt lat="44.204183975234628" lon="8.415968818590045">
        <ele>6.87</ele>
        <time>2016-04-03T08:09:20Z</time>
      </trkpt>
      <trkpt lat="44.204170731827617" lon="8.415982061997056">
        <ele>6.87</ele>
        <time>2016-04-03T08:09:33Z</time>
      </trkpt>
      <trkpt lat="44.204196631908417" lon="8.415973009541631">
        <ele>6.87</ele>
        <time>2016-04-03T08:09:42Z</time>
      </trkpt>
      <trkpt lat="44.204184478148818" lon="8.415986001491547">
        <ele>6.87</ele>
        <time>2016-04-03T08:09:56Z</time>
      </trkpt>
      <trkpt lat="44.204182298853993" lon="8.415995305404067">
        <ele>6.87</ele>
        <time>2016-04-03T08:10:07Z</time>
      </trkpt>
      <trkpt lat="44.204188920557499" lon="8.415933698415756">
        <ele>5.91</ele>
        <time>2016-04-03T08:10:18Z</time>
      </trkpt>
      <trkpt lat="44.20420853421092" lon="8.415928753092885">
        <ele>6.39</ele>
        <time>2016-04-03T08:10:32Z</time>
      </trkpt>
      <trkpt lat="44.20419679954648" lon="8.41594954021275">
        <ele>7.35</ele>
        <time>2016-04-03T08:10:39Z</time>
      </trkpt>
      <trkpt lat="44.204170061275363" lon="8.415995221585035">
        <ele>7.35</ele>
        <time>2016-04-03T08:10:54Z</time>
      </trkpt>
      <trkpt lat="44.204215910285711" lon="8.415951300412417">
        <ele>7.35</ele>
        <time>2016-04-03T08:11:10Z</time>
      </trkpt>
      <trkpt lat="44.204276762902737" lon="8.415953814983368">
        <ele>7.35</ele>
        <time>2016-04-03T08:11:22Z</time>
      </trkpt>
      <trkpt lat="44.204313894733787" lon="8.416040148586035">
        <ele>6.87</ele>
        <time>2016-04-03T08:11:34Z</time>
      </trkpt>
      <trkpt lat="44.204280115664005" lon="8.416087841615081">
        <ele>7.35</ele>
        <time>2016-04-03T08:11:44Z</time>
      </trkpt>
      <trkpt lat="44.204269051551819" lon="8.416065545752645">
        <ele>7.35</ele>
        <time>2016-04-03T08:11:55Z</time>
      </trkpt>
      <trkpt lat="44.20428472571075" lon="8.416006453335285">
        <ele>7.35</ele>
        <time>2016-04-03T08:12:10Z</time>
      </trkpt>
      <trkpt lat="44.204274248331785" lon="8.416025480255485">
        <ele>7.35</ele>
        <time>2016-04-03T08:12:24Z</time>
      </trkpt>
      <trkpt lat="44.204335100948811" lon="8.416031347587705">
        <ele>7.35</ele>
        <time>2016-04-03T08:12:35Z</time>
      </trkpt>
      <trkpt lat="44.204507768154144" lon="8.415967728942633">
        <ele>7.83</ele>
        <time>2016-04-03T08:12:50Z</time>
      </trkpt>
      <trkpt lat="44.204605668783188" lon="8.416020954027772">
        <ele>7.83</ele>
        <time>2016-04-03T08:13:02Z</time>
      </trkpt>
      <trkpt lat="44.204726116731763" lon="8.41609857045114">
        <ele>8.310000000000001</ele>
        <time>2016-04-03T08:13:16Z</time>
      </trkpt>
      <trkpt lat="44.204777665436268" lon="8.416167637333274">
        <ele>7.83</ele>
        <time>2016-04-03T08:13:30Z</time>
      </trkpt>
      <trkpt lat="44.204807169735432" lon="8.416181970387697">
        <ele>8.310000000000001</ele>
        <time>2016-04-03T08:13:42Z</time>
      </trkpt>
      <trkpt lat="44.204777413979173" lon="8.41614592820406">
        <ele>7.83</ele>
        <time>2016-04-03T08:14:01Z</time>
      </trkpt>
      <trkpt lat="44.204803984612226" lon="8.416206613183022">
        <ele>8.310000000000001</ele>
        <time>2016-04-03T08:14:14Z</time>
      </trkpt>
      <trkpt lat="44.204796440899372" lon="8.416217677295208">
        <ele>8.789999999999999</ele>
        <time>2016-04-03T08:14:26Z</time>
      </trkpt>
      <trkpt lat="44.204794429242611" lon="8.416182976216078">
        <ele>8.310000000000001</ele>
        <time>2016-04-03T08:14:39Z</time>
      </trkpt>
      <trkpt lat="44.204784287139773" lon="8.416218515485525">
        <ele>8.310000000000001</ele>
        <time>2016-04-03T08:14:57Z</time>
      </trkpt>
      <trkpt lat="44.204787304624915" lon="8.416184652596712">
        <ele>8.310000000000001</ele>
        <time>2016-04-03T08:15:12Z</time>
      </trkpt>
      <trkpt lat="44.204805996268988" lon="8.416205188259482">
        <ele>8.310000000000001</ele>
        <time>2016-04-03T08:15:28Z</time>
      </trkpt>
      <trkpt lat="44.204809181392193" lon="8.416197560727596">
        <ele>7.35</ele>
        <time>2016-04-03T08:15:30Z</time>
      </trkpt>
      <trkpt lat="44.204805409535766" lon="8.416193705052137">
        <ele>8.310000000000001</ele>
        <time>2016-04-03T08:15:50Z</time>
      </trkpt>
      <trkpt lat="44.204820916056633" lon="8.416219940409064">
        <ele>7.83</ele>
        <time>2016-04-03T08:16:02Z</time>
      </trkpt>
      <trkpt lat="44.204908087849617" lon="8.416213151067495">
        <ele>8.310000000000001</ele>
        <time>2016-04-03T08:16:14Z</time>
      </trkpt>
      <trkpt lat="44.204993331804872" lon="8.416257156059146">
        <ele>7.83</ele>
        <time>2016-04-03T08:16:26Z</time>
      </trkpt>
      <trkpt lat="44.205074971541762" lon="8.416283978149295">
        <ele>7.83</ele>
        <time>2016-04-03T08:16:39Z</time>
      </trkpt>
      <trkpt lat="44.205157281830907" lon="8.416338376700878">
        <ele>7.35</ele>
        <time>2016-04-03T08:16:50Z</time>
      </trkpt>
      <trkpt lat="44.205266498029232" lon="8.416297975927591">
        <ele>7.35</ele>
        <time>2016-04-03T08:17:00Z</time>
      </trkpt>
      <trkpt lat="44.205410918220878" lon="8.416317170485854">
        <ele>6.87</ele>
        <time>2016-04-03T08:17:16Z</time>
      </trkpt>
      <trkpt lat="44.205496665090322" lon="8.416368719190359">
        <ele>7.35</ele>
        <time>2016-04-03T08:17:29Z</time>
      </trkpt>
      <trkpt lat="44.205506639555097" lon="8.416342232376337">
        <ele>7.35</ele>
        <time>2016-04-03T08:17:41Z</time>
      </trkpt>
      <trkpt lat="44.205530025064945" lon="8.416337370872498">
        <ele>7.83</ele>
        <time>2016-04-03T08:17:51Z</time>
      </trkpt>
      <trkpt lat="44.205521056428552" lon="8.416366204619408">
        <ele>6.87</ele>
        <time>2016-04-03T08:18:10Z</time>
      </trkpt>
      <trkpt lat="44.20552147552371" lon="8.416395289823413">
        <ele>7.35</ele>
        <time>2016-04-03T08:18:20Z</time>
      </trkpt>
      <trkpt lat="44.20553170144558" lon="8.416395541280508">
        <ele>7.35</ele>
        <time>2016-04-03T08:18:32Z</time>
      </trkpt>
      <trkpt lat="44.205545615404844" lon="8.416330413892865">
        <ele>7.35</ele>
        <time>2016-04-03T08:18:46Z</time>
      </trkpt>
      <trkpt lat="44.205554835498333" lon="8.416274590417743">
        <ele>7.35</ele>
        <time>2016-04-03T08:19:01Z</time>
      </trkpt>
      <trkpt lat="44.205556260421872" lon="8.416260257363319">
        <ele>6.87</ele>
        <time>2016-04-03T08:19:18Z</time>
      </trkpt>
      <trkpt lat="44.205555338412523" lon="8.416239134967327">
        <ele>6.87</ele>
        <time>2016-04-03T08:19:32Z</time>
      </trkpt>
      <trkpt lat="44.205617448315024" lon="8.416157998144627">
        <ele>6.39</ele>
        <time>2016-04-03T08:19:43Z</time>
      </trkpt>
      <trkpt lat="44.205681066960096" lon="8.416112065315247">
        <ele>6.39</ele>
        <time>2016-04-03T08:19:55Z</time>
      </trkpt>
      <trkpt lat="44.205706799402833" lon="8.416117848828435">
        <ele>6.39</ele>
        <time>2016-04-03T08:20:18Z</time>
      </trkpt>
      <trkpt lat="44.205724652856588" lon="8.416093206033111">
        <ele>6.87</ele>
        <time>2016-04-03T08:20:34Z</time>
      </trkpt>
      <trkpt lat="44.205747367814183" lon="8.416088931262493">
        <ele>6.39</ele>
        <time>2016-04-03T08:20:47Z</time>
      </trkpt>
      <trkpt lat="44.20576237142086" lon="8.416050374507904">
        <ele>6.87</ele>
        <time>2016-04-03T08:20:58Z</time>
      </trkpt>
      <trkpt lat="44.205743093043566" lon="8.41604090295732">
        <ele>6.87</ele>
        <time>2016-04-03T08:21:12Z</time>
      </trkpt>
      <trkpt lat="44.205716522410512" lon="8.416000669822097">
        <ele>6.87</ele>
        <time>2016-04-03T08:21:22Z</time>
      </trkpt>
      <trkpt lat="44.20574720017612" lon="8.416010392829776">
        <ele>6.39</ele>
        <time>2016-04-03T08:21:32Z</time>
      </trkpt>
      <trkpt lat="44.205752145498991" lon="8.41601399704814">
        <ele>7.35</ele>
        <time>2016-04-03T08:21:46Z</time>
      </trkpt>
      <trkpt lat="44.205733705312014" lon="8.416009889915586">
        <ele>7.83</ele>
        <time>2016-04-03T08:21:59Z</time>
      </trkpt>
      <trkpt lat="44.205696573480964" lon="8.416046854108572">
        <ele>7.83</ele>
        <time>2016-04-03T08:22:16Z</time>
      </trkpt>
      <trkpt lat="44.205696741119027" lon="8.416098486632109">
        <ele>7.83</ele>
        <time>2016-04-03T08:22:29Z</time>
      </trkpt>
      <trkpt lat="44.205795228481293" lon="8.416365366429091">
        <ele>8.789999999999999</ele>
        <time>2016-04-03T08:24:00Z</time>
      </trkpt>
      <trkpt lat="44.205816434696317" lon="8.416414568200707">
        <ele>9.27</ele>
        <time>2016-04-03T08:24:02Z</time>
      </trkpt>
      <trkpt lat="44.205866726115346" lon="8.416449436917901">
        <ele>9.27</ele>
        <time>2016-04-03T08:24:11Z</time>
      </trkpt>
      <trkpt lat="44.205948365852237" lon="8.416460668668151">
        <ele>9.27</ele>
        <time>2016-04-03T08:24:21Z</time>
      </trkpt>
      <trkpt lat="44.205996645614505" lon="8.416435858234763">
        <ele>9.27</ele>
        <time>2016-04-03T08:24:35Z</time>
      </trkpt>
      <trkpt lat="44.205986838787794" lon="8.416447509080172">
        <ele>9.75</ele>
        <time>2016-04-03T08:24:49Z</time>
      </trkpt>
      <trkpt lat="44.206076692789793" lon="8.41646796092391">
        <ele>9.27</ele>
        <time>2016-04-03T08:25:03Z</time>
      </trkpt>
      <trkpt lat="44.20617182739079" lon="8.41651925817132">
        <ele>9.75</ele>
        <time>2016-04-03T08:25:17Z</time>
      </trkpt>
      <trkpt lat="44.206233518198133" lon="8.41655102558434">
        <ele>9.75</ele>
        <time>2016-04-03T08:25:31Z</time>
      </trkpt>
      <trkpt lat="44.206291101872921" lon="8.416647668927908">
        <ele>9.75</ele>
        <time>2016-04-03T08:25:44Z</time>
      </trkpt>
      <trkpt lat="44.20635161921382" lon="8.416658481582999">
        <ele>9.27</ele>
        <time>2016-04-03T08:25:56Z</time>
      </trkpt>
      <trkpt lat="44.20634969137609" lon="8.41664825566113">
        <ele>9.75</ele>
        <time>2016-04-03T08:26:06Z</time>
      </trkpt>
      <trkpt lat="44.206339465454221" lon="8.416652027517557">
        <ele>9.27</ele>
        <time>2016-04-03T08:26:20Z</time>
      </trkpt>
      <trkpt lat="44.206330915912986" lon="8.41665605083108">
        <ele>9.27</ele>
        <time>2016-04-03T08:26:43Z</time>
      </trkpt>
      <trkpt lat="44.20629495754838" lon="8.416686812415719">
        <ele>9.27</ele>
        <time>2016-04-03T08:27:01Z</time>
      </trkpt>
      <trkpt lat="44.206292359158397" lon="8.416704162955284">
        <ele>9.27</ele>
        <time>2016-04-03T08:27:13Z</time>
      </trkpt>
      <trkpt lat="44.206313481554389" lon="8.41675378382206">
        <ele>9.27</ele>
        <time>2016-04-03T08:27:25Z</time>
      </trkpt>
      <trkpt lat="44.206337537616491" lon="8.416694272309542">
        <ele>9.27</ele>
        <time>2016-04-03T08:27:36Z</time>
      </trkpt>
      <trkpt lat="44.206344662234187" lon="8.416635431349278">
        <ele>9.27</ele>
        <time>2016-04-03T08:27:49Z</time>
      </trkpt>
      <trkpt lat="44.20634089037776" lon="8.416637862101197">
        <ele>9.27</ele>
        <time>2016-04-03T08:27:55Z</time>
      </trkpt>
      <trkpt lat="44.206340555101633" lon="8.416608273983002">
        <ele>9.27</ele>
        <time>2016-04-03T08:28:06Z</time>
      </trkpt>
      <trkpt lat="44.206333430483937" lon="8.416683208197355">
        <ele>9.75</ele>
        <time>2016-04-03T08:28:19Z</time>
      </trkpt>
      <trkpt lat="44.206379111856222" lon="8.416722100228071">
        <ele>9.27</ele>
        <time>2016-04-03T08:28:29Z</time>
      </trkpt>
      <trkpt lat="44.206475839018822" lon="8.416791753843427">
        <ele>9.27</ele>
        <time>2016-04-03T08:28:41Z</time>
      </trkpt>
      <trkpt lat="44.20655932277441" lon="8.416808769106865">
        <ele>9.27</ele>
        <time>2016-04-03T08:28:53Z</time>
      </trkpt>
      <trkpt lat="44.206629060208797" lon="8.416894935071468">
        <ele>9.27</ele>
        <time>2016-04-03T08:29:05Z</time>
      </trkpt>
      <trkpt lat="44.20667365193367" lon="8.417001133784652">
        <ele>9.27</ele>
        <time>2016-04-03T08:29:17Z</time>
      </trkpt>
      <trkpt lat="44.206722602248192" lon="8.417082438245416">
        <ele>9.27</ele>
        <time>2016-04-03T08:29:27Z</time>
      </trkpt>
      <trkpt lat="44.206795943900943" lon="8.417132729664445">
        <ele>9.27</ele>
        <time>2016-04-03T08:29:38Z</time>
      </trkpt>
      <trkpt lat="44.206820586696267" lon="8.417111858725548">
        <ele>9.27</ele>
        <time>2016-04-03T08:29:50Z</time>
      </trkpt>
      <trkpt lat="44.20683927834034" lon="8.417105237022042">
        <ele>9.27</ele>
        <time>2016-04-03T08:30:02Z</time>
      </trkpt>
      <trkpt lat="44.206867692992091" lon="8.417123425751925">
        <ele>9.27</ele>
        <time>2016-04-03T08:30:12Z</time>
      </trkpt>
      <trkpt lat="44.206956624984741" lon="8.417064417153597">
        <ele>9.27</ele>
        <time>2016-04-03T08:30:22Z</time>
      </trkpt>
      <trkpt lat="44.206959391012788" lon="8.417010521516204">
        <ele>9.27</ele>
        <time>2016-04-03T08:30:34Z</time>
      </trkpt>
      <trkpt lat="44.206948410719633" lon="8.416879344731569">
        <ele>10.710000000000001</ele>
        <time>2016-04-03T08:30:47Z</time>
      </trkpt>
      <trkpt lat="44.206940615549684" lon="8.416839446872473">
        <ele>11.19</ele>
        <time>2016-04-03T08:30:59Z</time>
      </trkpt>
      <trkpt lat="44.206958636641502" lon="8.416832741349936">
        <ele>11.19</ele>
        <time>2016-04-03T08:31:10Z</time>
      </trkpt>
      <trkpt lat="44.206968527287245" lon="8.41677675023675">
        <ele>11.19</ele>
        <time>2016-04-03T08:31:24Z</time>
      </trkpt>
      <trkpt lat="44.206926031038165" lon="8.416684046387672">
        <ele>12.630000000000001</ele>
        <time>2016-04-03T08:31:36Z</time>
      </trkpt>
      <trkpt lat="44.206928042694926" lon="8.416612967848778">
        <ele>12.630000000000001</ele>
        <time>2016-04-03T08:31:43Z</time>
      </trkpt>
      <trkpt lat="44.206926366314292" lon="8.416544487699866">
        <ele>13.6</ele>
        <time>2016-04-03T08:31:51Z</time>
      </trkpt>
      <trkpt lat="44.206911865621805" lon="8.416521018370986">
        <ele>13.6</ele>
        <time>2016-04-03T08:31:54Z</time>
      </trkpt>
      <trkpt lat="44.206867609173059" lon="8.416340555995703">
        <ele>13.6</ele>
        <time>2016-04-03T08:32:07Z</time>
      </trkpt>
      <trkpt lat="44.206822346895933" lon="8.416214743629098">
        <ele>13.119999999999999</ele>
        <time>2016-04-03T08:32:17Z</time>
      </trkpt>
      <trkpt lat="44.206816060468554" lon="8.416206445544958">
        <ele>13.119999999999999</ele>
        <time>2016-04-03T08:32:18Z</time>
      </trkpt>
      <trkpt lat="44.206727463752031" lon="8.416090691462159">
        <ele>12.630000000000001</ele>
        <time>2016-04-03T08:32:30Z</time>
      </trkpt>
      <trkpt lat="44.206686643883586" lon="8.416023720055819">
        <ele>12.15</ele>
        <time>2016-04-03T08:32:40Z</time>
      </trkpt>
      <trkpt lat="44.206706592813134" lon="8.416024977341294">
        <ele>12.15</ele>
        <time>2016-04-03T08:32:50Z</time>
      </trkpt>
      <trkpt lat="44.206763841211796" lon="8.416095385327935">
        <ele>13.119999999999999</ele>
        <time>2016-04-03T08:33:02Z</time>
      </trkpt>
      <trkpt lat="44.206765601411462" lon="8.416053056716919">
        <ele>14.08</ele>
        <time>2016-04-03T08:33:15Z</time>
      </trkpt>
      <trkpt lat="44.20680264942348" lon="8.415959598496556">
        <ele>16</ele>
        <time>2016-04-03T08:33:27Z</time>
      </trkpt>
      <trkpt lat="44.20676308684051" lon="8.415858177468181">
        <ele>18.399999999999999</ele>
        <time>2016-04-03T08:33:40Z</time>
      </trkpt>
      <trkpt lat="44.206789154559374" lon="8.415838647633791">
        <ele>18.879999999999999</ele>
        <time>2016-04-03T08:33:49Z</time>
      </trkpt>
      <trkpt lat="44.206795776262879" lon="8.415850717574358">
        <ele>18.399999999999999</ele>
        <time>2016-04-03T08:34:00Z</time>
      </trkpt>
      <trkpt lat="44.206805666908622" lon="8.415853232145309">
        <ele>18.879999999999999</ele>
        <time>2016-04-03T08:34:11Z</time>
      </trkpt>
      <trkpt lat="44.206782029941678" lon="8.415853483602405">
        <ele>18.879999999999999</ele>
        <time>2016-04-03T08:34:29Z</time>
      </trkpt>
      <trkpt lat="44.206786304712296" lon="8.415853064507246">
        <ele>18.879999999999999</ele>
        <time>2016-04-03T08:34:42Z</time>
      </trkpt>
      <trkpt lat="44.206783873960376" lon="8.415861278772354">
        <ele>18.879999999999999</ele>
        <time>2016-04-03T08:34:56Z</time>
      </trkpt>
      <trkpt lat="44.206772306933999" lon="8.415837893262506">
        <ele>18.879999999999999</ele>
        <time>2016-04-03T08:35:09Z</time>
      </trkpt>
      <trkpt lat="44.206754118204117" lon="8.415833031758666">
        <ele>18.879999999999999</ele>
        <time>2016-04-03T08:35:20Z</time>
      </trkpt>
      <trkpt lat="44.206775324419141" lon="8.415740160271525">
        <ele>16.960000000000001</ele>
        <time>2016-04-03T08:35:31Z</time>
      </trkpt>
      <trkpt lat="44.206750430166721" lon="8.415718451142311">
        <ele>16</ele>
        <time>2016-04-03T08:35:38Z</time>
      </trkpt>
      <trkpt lat="44.20663945376873" lon="8.415746698155999">
        <ele>14.08</ele>
        <time>2016-04-03T08:35:49Z</time>
      </trkpt>
      <trkpt lat="44.206628557294607" lon="8.415756588801742">
        <ele>13.6</ele>
        <time>2016-04-03T08:35:50Z</time>
      </trkpt>
      <trkpt lat="44.20654222369194" lon="8.415829511359334">
        <ele>12.15</ele>
        <time>2016-04-03T08:36:02Z</time>
      </trkpt>
      <trkpt lat="44.206527806818485" lon="8.415834791958332">
        <ele>10.710000000000001</ele>
        <time>2016-04-03T08:36:16Z</time>
      </trkpt>
      <trkpt lat="44.206477515399456" lon="8.415787434205413">
        <ele>10.23</ele>
        <time>2016-04-03T08:36:22Z</time>
      </trkpt>
      <trkpt lat="44.206411633640528" lon="8.41571400873363">
        <ele>9.27</ele>
        <time>2016-04-03T08:36:31Z</time>
      </trkpt>
      <trkpt lat="44.206291101872921" lon="8.415629770606756">
        <ele>9.27</ele>
        <time>2016-04-03T08:36:44Z</time>
      </trkpt>
      <trkpt lat="44.206262435764074" lon="8.415558021515608">
        <ele>9.27</ele>
        <time>2016-04-03T08:36:56Z</time>
      </trkpt>
      <trkpt lat="44.206272326409817" lon="8.415566654875875">
        <ele>9.27</ele>
        <time>2016-04-03T08:37:14Z</time>
      </trkpt>
      <trkpt lat="44.206272913143039" lon="8.415523404255509">
        <ele>8.789999999999999</ele>
        <time>2016-04-03T08:37:28Z</time>
      </trkpt>
      <trkpt lat="44.206264531239867" lon="8.415477219969034">
        <ele>8.789999999999999</ele>
        <time>2016-04-03T08:37:41Z</time>
      </trkpt>
      <trkpt lat="44.206183226779103" lon="8.41551661491394">
        <ele>8.310000000000001</ele>
        <time>2016-04-03T08:37:57Z</time>
      </trkpt>
      <trkpt lat="44.206183897331357" lon="8.415523739531636">
        <ele>7.35</ele>
        <time>2016-04-03T08:38:12Z</time>
      </trkpt>
      <trkpt lat="44.20617769472301" lon="8.415533127263188">
        <ele>7.35</ele>
        <time>2016-04-03T08:38:13Z</time>
      </trkpt>
      <trkpt lat="44.206098234280944" lon="8.415578054264188">
        <ele>6.87</ele>
        <time>2016-04-03T08:38:25Z</time>
      </trkpt>
      <trkpt lat="44.206086751073599" lon="8.415575455874205">
        <ele>7.35</ele>
        <time>2016-04-03T08:38:26Z</time>
      </trkpt>
      <trkpt lat="44.205956244841218" lon="8.415533881634474">
        <ele>6.39</ele>
        <time>2016-04-03T08:38:40Z</time>
      </trkpt>
      <trkpt lat="44.205898409709334" lon="8.415456768125296">
        <ele>6.39</ele>
        <time>2016-04-03T08:38:51Z</time>
      </trkpt>
      <trkpt lat="44.205812495201826" lon="8.415392059832811">
        <ele>5.91</ele>
        <time>2016-04-03T08:39:03Z</time>
      </trkpt>
      <trkpt lat="44.205846106633544" lon="8.415405303239822">
        <ele>5.91</ele>
        <time>2016-04-03T08:39:16Z</time>
      </trkpt>
      <trkpt lat="44.205872006714344" lon="8.415400525555015">
        <ele>5.91</ele>
        <time>2016-04-03T08:39:26Z</time>
      </trkpt>
      <trkpt lat="44.20580243691802" lon="8.415503539144993">
        <ele>5.42</ele>
        <time>2016-04-03T08:39:41Z</time>
      </trkpt>
      <trkpt lat="44.205689616501331" lon="8.415677882730961">
        <ele>4.94</ele>
        <time>2016-04-03T08:39:57Z</time>
      </trkpt>
      <trkpt lat="44.205665811896324" lon="8.415731275454164">
        <ele>4.94</ele>
        <time>2016-04-03T08:40:09Z</time>
      </trkpt>
      <trkpt lat="44.205660615116358" lon="8.415779136121273">
        <ele>5.42</ele>
        <time>2016-04-03T08:40:22Z</time>
      </trkpt>
      <trkpt lat="44.205634798854589" lon="8.415785003453493">
        <ele>5.42</ele>
        <time>2016-04-03T08:40:36Z</time>
      </trkpt>
      <trkpt lat="44.205612000077963" lon="8.415816351771355">
        <ele>5.91</ele>
        <time>2016-04-03T08:40:56Z</time>
      </trkpt>
      <trkpt lat="44.205571180209517" lon="8.415845604613423">
        <ele>5.42</ele>
        <time>2016-04-03T08:41:15Z</time>
      </trkpt>
      <trkpt lat="44.205546621233225" lon="8.415906457230449">
        <ele>5.91</ele>
        <time>2016-04-03T08:41:34Z</time>
      </trkpt>
      <trkpt lat="44.20560940168798" lon="8.415832612663508">
        <ele>6.39</ele>
        <time>2016-04-03T08:41:54Z</time>
      </trkpt>
      <trkpt lat="44.205714259296656" lon="8.415729347616434">
        <ele>6.39</ele>
        <time>2016-04-03T08:42:10Z</time>
      </trkpt>
      <trkpt lat="44.205739740282297" lon="8.415668159723282">
        <ele>6.39</ele>
        <time>2016-04-03T08:42:21Z</time>
      </trkpt>
      <trkpt lat="44.205800844356418" lon="8.415589202195406">
        <ele>7.35</ele>
        <time>2016-04-03T08:42:34Z</time>
      </trkpt>
      <trkpt lat="44.205860858783126" lon="8.415507478639484">
        <ele>7.35</ele>
        <time>2016-04-03T08:42:46Z</time>
      </trkpt>
      <trkpt lat="44.205908048897982" lon="8.415420977398753">
        <ele>7.35</ele>
        <time>2016-04-03T08:42:56Z</time>
      </trkpt>
      <trkpt lat="44.205919951200485" lon="8.41532994993031">
        <ele>7.83</ele>
        <time>2016-04-03T08:43:07Z</time>
      </trkpt>
      <trkpt lat="44.205834455788136" lon="8.41534998267889">
        <ele>7.83</ele>
        <time>2016-04-03T08:43:19Z</time>
      </trkpt>
      <trkpt lat="44.205830181017518" lon="8.415397675707936">
        <ele>8.310000000000001</ele>
        <time>2016-04-03T08:43:35Z</time>
      </trkpt>
      <trkpt lat="44.205843675881624" lon="8.415295081213117">
        <ele>7.83</ele>
        <time>2016-04-03T08:43:50Z</time>
      </trkpt>
      <trkpt lat="44.205859433859587" lon="8.415288794785738">
        <ele>7.83</ele>
        <time>2016-04-03T08:44:05Z</time>
      </trkpt>
      <trkpt lat="44.205846861004829" lon="8.415270941331983">
        <ele>7.83</ele>
        <time>2016-04-03T08:44:13Z</time>
      </trkpt>
      <trkpt lat="44.205797910690308" lon="8.415267672389746">
        <ele>7.83</ele>
        <time>2016-04-03T08:44:24Z</time>
      </trkpt>
      <trkpt lat="44.205878544598818" lon="8.415324166417122">
        <ele>7.83</ele>
        <time>2016-04-03T08:44:45Z</time>
      </trkpt>
      <trkpt lat="44.205714762210846" lon="8.415163988247514">
        <ele>7.83</ele>
        <time>2016-04-03T08:46:11Z</time>
      </trkpt>
      <trkpt lat="44.205684503540397" lon="8.415139429271221">
        <ele>7.83</ele>
        <time>2016-04-03T08:46:13Z</time>
      </trkpt>
      <trkpt lat="44.205565396696329" lon="8.41496542096138">
        <ele>8.310000000000001</ele>
        <time>2016-04-03T08:46:29Z</time>
      </trkpt>
      <trkpt lat="44.205511752516031" lon="8.41482519172132">
        <ele>8.789999999999999</ele>
        <time>2016-04-03T08:46:39Z</time>
      </trkpt>
      <trkpt lat="44.205524744465947" lon="8.414803398773074">
        <ele>9.27</ele>
        <time>2016-04-03T08:46:41Z</time>
      </trkpt>
      <trkpt lat="44.205516278743744" lon="8.414712036028504">
        <ele>8.789999999999999</ele>
        <time>2016-04-03T08:46:47Z</time>
      </trkpt>
      <trkpt lat="44.205480068922043" lon="8.414616566151381">
        <ele>9.27</ele>
        <time>2016-04-03T08:46:58Z</time>
      </trkpt>
      <trkpt lat="44.205481158569455" lon="8.414594940841198">
        <ele>9.27</ele>
        <time>2016-04-03T08:47:00Z</time>
      </trkpt>
      <trkpt lat="44.205483924597502" lon="8.414566526189446">
        <ele>9.75</ele>
        <time>2016-04-03T08:47:02Z</time>
      </trkpt>
      <trkpt lat="44.205487780272961" lon="8.414477845653892">
        <ele>9.75</ele>
        <time>2016-04-03T08:47:08Z</time>
      </trkpt>
      <trkpt lat="44.205495994538069" lon="8.414343232288957">
        <ele>9.75</ele>
        <time>2016-04-03T08:47:18Z</time>
      </trkpt>
      <trkpt lat="44.205539412796497" lon="8.414193950593472">
        <ele>10.23</ele>
        <time>2016-04-03T08:47:32Z</time>
      </trkpt>
      <trkpt lat="44.205578053370118" lon="8.414082890376449">
        <ele>10.23</ele>
        <time>2016-04-03T08:47:44Z</time>
      </trkpt>
      <trkpt lat="44.205615855753422" lon="8.413949869573116">
        <ele>10.23</ele>
        <time>2016-04-03T08:47:59Z</time>
      </trkpt>
      <trkpt lat="44.205667320638895" lon="8.413829002529383">
        <ele>10.23</ele>
        <time>2016-04-03T08:48:11Z</time>
      </trkpt>
      <trkpt lat="44.205722808837891" lon="8.413655078038573">
        <ele>10.710000000000001</ele>
        <time>2016-04-03T08:48:26Z</time>
      </trkpt>
      <trkpt lat="44.205722054466605" lon="8.413626328110695">
        <ele>11.19</ele>
        <time>2016-04-03T08:48:42Z</time>
      </trkpt>
      <trkpt lat="44.205753654241562" lon="8.413570923730731">
        <ele>11.19</ele>
        <time>2016-04-03T08:49:05Z</time>
      </trkpt>
      <trkpt lat="44.205728424713016" lon="8.413598835468292">
        <ele>11.19</ele>
        <time>2016-04-03T08:49:30Z</time>
      </trkpt>
      <trkpt lat="44.20574527233839" lon="8.413613419979811">
        <ele>11.19</ele>
        <time>2016-04-03T08:49:55Z</time>
      </trkpt>
      <trkpt lat="44.205691460520029" lon="8.413717271760106">
        <ele>11.19</ele>
        <time>2016-04-03T08:50:14Z</time>
      </trkpt>
      <trkpt lat="44.205717779695988" lon="8.413782147690654">
        <ele>11.19</ele>
        <time>2016-04-03T08:50:28Z</time>
      </trkpt>
      <trkpt lat="44.20568366535008" lon="8.413879377767444">
        <ele>10.710000000000001</ele>
        <time>2016-04-03T08:50:42Z</time>
      </trkpt>
      <trkpt lat="44.205631446093321" lon="8.413989515975118">
        <ele>10.710000000000001</ele>
        <time>2016-04-03T08:50:57Z</time>
      </trkpt>
      <trkpt lat="44.205572605133057" lon="8.414106024429202">
        <ele>10.710000000000001</ele>
        <time>2016-04-03T08:51:12Z</time>
      </trkpt>
      <trkpt lat="44.205526923760772" lon="8.414293443784118">
        <ele>10.710000000000001</ele>
        <time>2016-04-03T08:51:26Z</time>
      </trkpt>
      <trkpt lat="44.20552633702755" lon="8.414360163733363">
        <ele>10.710000000000001</ele>
        <time>2016-04-03T08:51:29Z</time>
      </trkpt>
      <trkpt lat="44.205496329814196" lon="8.414522521197796">
        <ele>10.23</ele>
        <time>2016-04-03T08:51:42Z</time>
      </trkpt>
      <trkpt lat="44.205488869920373" lon="8.41462142765522">
        <ele>9.75</ele>
        <time>2016-04-03T08:51:54Z</time>
      </trkpt>
      <trkpt lat="44.205502951517701" lon="8.414614303037524">
        <ele>10.23</ele>
        <time>2016-04-03T08:51:59Z</time>
      </trkpt>
      <trkpt lat="44.205528348684311" lon="8.414743551984429">
        <ele>9.75</ele>
        <time>2016-04-03T08:52:13Z</time>
      </trkpt>
      <trkpt lat="44.205486690625548" lon="8.414895934984088">
        <ele>9.75</ele>
        <time>2016-04-03T08:52:28Z</time>
      </trkpt>
      <trkpt lat="44.205473614856601" lon="8.414936335757375">
        <ele>9.75</ele>
        <time>2016-04-03T08:52:32Z</time>
      </trkpt>
      <trkpt lat="44.205412343144417" lon="8.415160719305277">
        <ele>9.27</ele>
        <time>2016-04-03T08:52:49Z</time>
      </trkpt>
      <trkpt lat="44.205350987613201" lon="8.415307151153684">
        <ele>9.27</ele>
        <time>2016-04-03T08:53:02Z</time>
      </trkpt>
      <trkpt lat="44.205327937379479" lon="8.415515441447496">
        <ele>8.789999999999999</ele>
        <time>2016-04-03T08:53:17Z</time>
      </trkpt>
      <trkpt lat="44.205350317060947" lon="8.415592387318611">
        <ele>10.23</ele>
        <time>2016-04-03T08:53:29Z</time>
      </trkpt>
      <trkpt lat="44.205350903794169" lon="8.415631195530295">
        <ele>8.789999999999999</ele>
        <time>2016-04-03T08:53:32Z</time>
      </trkpt>
      <trkpt lat="44.205437824130058" lon="8.41569883748889">
        <ele>8.310000000000001</ele>
        <time>2016-04-03T08:53:44Z</time>
      </trkpt>
      <trkpt lat="44.205404045060277" lon="8.415872510522604">
        <ele>7.83</ele>
        <time>2016-04-03T08:53:59Z</time>
      </trkpt>
      <trkpt lat="44.20540027320385" lon="8.415881730616093">
        <ele>7.83</ele>
        <time>2016-04-03T08:54:00Z</time>
      </trkpt>
      <trkpt lat="44.205336822196841" lon="8.416073592379689">
        <ele>7.83</ele>
        <time>2016-04-03T08:54:15Z</time>
      </trkpt>
      <trkpt lat="44.205322237685323" lon="8.416251540184021">
        <ele>7.35</ele>
        <time>2016-04-03T08:54:24Z</time>
      </trkpt>
      <trkpt lat="44.205287788063288" lon="8.416309207677841">
        <ele>7.83</ele>
        <time>2016-04-03T08:54:29Z</time>
      </trkpt>
      <trkpt lat="44.205218553543091" lon="8.4163355268538">
        <ele>7.83</ele>
        <time>2016-04-03T08:54:41Z</time>
      </trkpt>
      <trkpt lat="44.205141691491008" lon="8.416306525468826">
        <ele>7.83</ele>
        <time>2016-04-03T08:54:53Z</time>
      </trkpt>
      <trkpt lat="44.20510564930737" lon="8.41630476526916">
        <ele>7.83</ele>
        <time>2016-04-03T08:54:58Z</time>
      </trkpt>
      <trkpt lat="44.204956702888012" lon="8.416244080290198">
        <ele>7.83</ele>
        <time>2016-04-03T08:55:12Z</time>
      </trkpt>
      <trkpt lat="44.204850252717733" lon="8.416206864640117">
        <ele>7.35</ele>
        <time>2016-04-03T08:55:23Z</time>
      </trkpt>
      <trkpt lat="44.204711951315403" lon="8.416148107498884">
        <ele>7.35</ele>
        <time>2016-04-03T08:55:35Z</time>
      </trkpt>
      <trkpt lat="44.204572644084692" lon="8.416070826351643">
        <ele>7.35</ele>
        <time>2016-04-03T08:55:47Z</time>
      </trkpt>
      <trkpt lat="44.204440545290709" lon="8.415998658165336">
        <ele>7.35</ele>
        <time>2016-04-03T08:56:00Z</time>
      </trkpt>
      <trkpt lat="44.204378519207239" lon="8.415972590446472">
        <ele>7.35</ele>
        <time>2016-04-03T08:56:06Z</time>
      </trkpt>
      <trkpt lat="44.204268380999565" lon="8.415927076712251">
        <ele>6.87</ele>
        <time>2016-04-03T08:56:20Z</time>
      </trkpt>
      <trkpt lat="44.204284138977528" lon="8.415910732001066">
        <ele>6.87</ele>
        <time>2016-04-03T08:56:34Z</time>
      </trkpt>
      <trkpt lat="44.204256646335125" lon="8.415936212986708">
        <ele>6.87</ele>
        <time>2016-04-03T08:56:50Z</time>
      </trkpt>
      <trkpt lat="44.204197889193892" lon="8.415967645123601">
        <ele>6.87</ele>
        <time>2016-04-03T08:57:03Z</time>
      </trkpt>
      <trkpt lat="44.20410786755383" lon="8.415983486920595">
        <ele>6.87</ele>
        <time>2016-04-03T08:57:16Z</time>
      </trkpt>
      <trkpt lat="44.204042069613934" lon="8.415973093360663">
        <ele>6.87</ele>
        <time>2016-04-03T08:57:29Z</time>
      </trkpt>
      <trkpt lat="44.204009715467691" lon="8.415967645123601">
        <ele>6.87</ele>
        <time>2016-04-03T08:57:41Z</time>
      </trkpt>
      <trkpt lat="44.203996807336807" lon="8.415966471657157">
        <ele>5.91</ele>
        <time>2016-04-03T08:57:55Z</time>
      </trkpt>
      <trkpt lat="44.204027820378542" lon="8.415943086147308">
        <ele>5.91</ele>
        <time>2016-04-03T08:58:15Z</time>
      </trkpt>
      <trkpt lat="44.204038046300411" lon="8.41595146805048">
        <ele>5.91</ele>
        <time>2016-04-03T08:58:35Z</time>
      </trkpt>
      <trkpt lat="44.204026143997908" lon="8.415959430858493">
        <ele>5.91</ele>
        <time>2016-04-03T08:58:56Z</time>
      </trkpt>
      <trkpt lat="44.203966129571199" lon="8.415979631245136">
        <ele>6.87</ele>
        <time>2016-04-03T08:59:09Z</time>
      </trkpt>
      <trkpt lat="44.203975601121783" lon="8.415980134159327">
        <ele>7.35</ele>
        <time>2016-04-03T08:59:21Z</time>
      </trkpt>
      <trkpt lat="44.20398423448205" lon="8.416002430021763">
        <ele>7.35</ele>
        <time>2016-04-03T08:59:34Z</time>
      </trkpt>
      <trkpt lat="44.203994125127792" lon="8.415958844125271">
        <ele>6.87</ele>
        <time>2016-04-03T08:59:45Z</time>
      </trkpt>
      <trkpt lat="44.203975014388561" lon="8.415954653173685">
        <ele>6.87</ele>
        <time>2016-04-03T09:00:02Z</time>
      </trkpt>
      <trkpt lat="44.203928662464023" lon="8.41592607088387">
        <ele>6.87</ele>
        <time>2016-04-03T09:00:13Z</time>
      </trkpt>
      <trkpt lat="44.203870492056012" lon="8.415815345942974">
        <ele>6.39</ele>
        <time>2016-04-03T09:00:27Z</time>
      </trkpt>
      <trkpt lat="44.203806035220623" lon="8.415767485275865">
        <ele>6.87</ele>
        <time>2016-04-03T09:00:35Z</time>
      </trkpt>
      <trkpt lat="44.203702937811613" lon="8.415716858580709">
        <ele>6.87</ele>
        <time>2016-04-03T09:00:46Z</time>
      </trkpt>
      <trkpt lat="44.203671338036656" lon="8.41570713557303">
        <ele>7.35</ele>
        <time>2016-04-03T09:00:49Z</time>
      </trkpt>
      <trkpt lat="44.203642923384905" lon="8.415703531354666">
        <ele>7.35</ele>
        <time>2016-04-03T09:00:52Z</time>
      </trkpt>
      <trkpt lat="44.20353764668107" lon="8.415653072297573">
        <ele>8.310000000000001</ele>
        <time>2016-04-03T09:01:03Z</time>
      </trkpt>
      <trkpt lat="44.203476877883077" lon="8.415612336248159">
        <ele>8.789999999999999</ele>
        <time>2016-04-03T09:01:15Z</time>
      </trkpt>
      <trkpt lat="44.203448379412293" lon="8.41555374674499">
        <ele>8.789999999999999</ele>
        <time>2016-04-03T09:01:24Z</time>
      </trkpt>
      <trkpt lat="44.203480985015631" lon="8.415493229404092">
        <ele>9.75</ele>
        <time>2016-04-03T09:01:34Z</time>
      </trkpt>
      <trkpt lat="44.203460784628987" lon="8.415523739531636">
        <ele>8.789999999999999</ele>
        <time>2016-04-03T09:01:38Z</time>
      </trkpt>
      <trkpt lat="44.203407727181911" lon="8.415564643219113">
        <ele>8.789999999999999</ele>
        <time>2016-04-03T09:01:45Z</time>
      </trkpt>
      <trkpt lat="44.203239502385259" lon="8.415517201647162">
        <ele>9.75</ele>
        <time>2016-04-03T09:02:00Z</time>
      </trkpt>
      <trkpt lat="44.203178146854043" lon="8.415485601872206">
        <ele>9.75</ele>
        <time>2016-04-03T09:02:06Z</time>
      </trkpt>
      <trkpt lat="44.203151660040021" lon="8.415431873872876">
        <ele>9.75</ele>
        <time>2016-04-03T09:02:11Z</time>
      </trkpt>
      <trkpt lat="44.203159119933844" lon="8.415372697636485">
        <ele>9.75</ele>
        <time>2016-04-03T09:02:22Z</time>
      </trkpt>
      <trkpt lat="44.203171608969569" lon="8.415400525555015">
        <ele>9.75</ele>
        <time>2016-04-03T09:02:25Z</time>
      </trkpt>
      <trkpt lat="44.20314721763134" lon="8.415519800037146">
        <ele>9.75</ele>
        <time>2016-04-03T09:02:37Z</time>
      </trkpt>
      <trkpt lat="44.203059291467071" lon="8.415512759238482">
        <ele>9.27</ele>
        <time>2016-04-03T09:02:50Z</time>
      </trkpt>
      <trkpt lat="44.202927695587277" lon="8.415484679862857">
        <ele>7.83</ele>
        <time>2016-04-03T09:03:04Z</time>
      </trkpt>
      <trkpt lat="44.202811103314161" lon="8.415500186383724">
        <ele>7.83</ele>
        <time>2016-04-03T09:03:13Z</time>
      </trkpt>
      <trkpt lat="44.202692583203316" lon="8.415423408150673">
        <ele>7.35</ele>
        <time>2016-04-03T09:03:27Z</time>
      </trkpt>
      <trkpt lat="44.202491836622357" lon="8.415431538596749">
        <ele>7.35</ele>
        <time>2016-04-03T09:03:38Z</time>
      </trkpt>
      <trkpt lat="44.202352864667773" lon="8.415336571633816">
        <ele>7.83</ele>
        <time>2016-04-03T09:03:54Z</time>
      </trkpt>
      <trkpt lat="44.202245827764273" lon="8.415281334891915">
        <ele>7.35</ele>
        <time>2016-04-03T09:04:07Z</time>
      </trkpt>
      <trkpt lat="44.202106604352593" lon="8.415311761200428">
        <ele>7.83</ele>
        <time>2016-04-03T09:04:20Z</time>
      </trkpt>
      <trkpt lat="44.201990431174636" lon="8.415304301306605">
        <ele>7.83</ele>
        <time>2016-04-03T09:04:33Z</time>
      </trkpt>
      <trkpt lat="44.20186017639935" lon="8.415298350155354">
        <ele>7.83</ele>
        <time>2016-04-03T09:04:48Z</time>
      </trkpt>
      <trkpt lat="44.20180544257164" lon="8.415255015715957">
        <ele>7.83</ele>
        <time>2016-04-03T09:04:59Z</time>
      </trkpt>
      <trkpt lat="44.201711229979992" lon="8.415229618549347">
        <ele>8.310000000000001</ele>
        <time>2016-04-03T09:05:13Z</time>
      </trkpt>
      <trkpt lat="44.201612994074821" lon="8.415242778137326">
        <ele>8.310000000000001</ele>
        <time>2016-04-03T09:05:28Z</time>
      </trkpt>
      <trkpt lat="44.201534120365977" lon="8.415241939947009">
        <ele>9.27</ele>
        <time>2016-04-03T09:05:39Z</time>
      </trkpt>
      <trkpt lat="44.201515847817063" lon="8.41524638235569">
        <ele>9.27</ele>
        <time>2016-04-03T09:05:41Z</time>
      </trkpt>
      <trkpt lat="44.201395902782679" lon="8.415243700146675">
        <ele>9.75</ele>
        <time>2016-04-03T09:05:53Z</time>
      </trkpt>
      <trkpt lat="44.20128702186048" lon="8.415259541943669">
        <ele>10.23</ele>
        <time>2016-04-03T09:06:05Z</time>
      </trkpt>
      <trkpt lat="44.20114922337234" lon="8.415283430367708">
        <ele>10.23</ele>
        <time>2016-04-03T09:06:17Z</time>
      </trkpt>
      <trkpt lat="44.201012346893549" lon="8.415271108970046">
        <ele>10.23</ele>
        <time>2016-04-03T09:06:27Z</time>
      </trkpt>
      <trkpt lat="44.200974963605404" lon="8.415275886654854">
        <ele>10.23</ele>
        <time>2016-04-03T09:06:31Z</time>
      </trkpt>
      <trkpt lat="44.200926516205072" lon="8.415290638804436">
        <ele>9.75</ele>
        <time>2016-04-03T09:06:36Z</time>
      </trkpt>
      <trkpt lat="44.200780838727951" lon="8.415364399552345">
        <ele>10.23</ele>
        <time>2016-04-03T09:06:51Z</time>
      </trkpt>
      <trkpt lat="44.200667515397072" lon="8.415390215814114">
        <ele>10.710000000000001</ele>
        <time>2016-04-03T09:07:01Z</time>
      </trkpt>
      <trkpt lat="44.200641196221113" lon="8.415397675707936">
        <ele>10.710000000000001</ele>
        <time>2016-04-03T09:07:04Z</time>
      </trkpt>
      <trkpt lat="44.20054622925818" lon="8.415425168350339">
        <ele>11.67</ele>
        <time>2016-04-03T09:07:14Z</time>
      </trkpt>
      <trkpt lat="44.200476827099919" lon="8.415495911613107">
        <ele>12.15</ele>
        <time>2016-04-03T09:07:25Z</time>
      </trkpt>
      <trkpt lat="44.200438186526299" lon="8.415547208860517">
        <ele>13.6</ele>
        <time>2016-04-03T09:07:35Z</time>
      </trkpt>
      <trkpt lat="44.200395019724965" lon="8.415632704272866">
        <ele>15.039999999999999</ele>
        <time>2016-04-03T09:07:46Z</time>
      </trkpt>
      <trkpt lat="44.200340621173382" lon="8.415716271847487">
        <ele>16.48</ele>
        <time>2016-04-03T09:07:56Z</time>
      </trkpt>
      <trkpt lat="44.20029116794467" lon="8.415757343173027">
        <ele>17.440000000000001</ele>
        <time>2016-04-03T09:08:06Z</time>
      </trkpt>
      <trkpt lat="44.200284881517291" lon="8.415776202455163">
        <ele>18.399999999999999</ele>
        <time>2016-04-03T09:08:15Z</time>
      </trkpt>
      <trkpt lat="44.200216233730316" lon="8.415827248245478">
        <ele>19.359999999999999</ele>
        <time>2016-04-03T09:08:22Z</time>
      </trkpt>
      <trkpt lat="44.200153537094593" lon="8.415842754766345">
        <ele>21.289999999999999</ele>
        <time>2016-04-03T09:08:30Z</time>
      </trkpt>
      <trkpt lat="44.200100898742676" lon="8.415904110297561">
        <ele>23.210000000000001</ele>
        <time>2016-04-03T09:08:40Z</time>
      </trkpt>
      <trkpt lat="44.200119925662875" lon="8.415798330679536">
        <ele>25.129999999999999</ele>
        <time>2016-04-03T09:08:50Z</time>
      </trkpt>
      <trkpt lat="44.200129564851522" lon="8.415709566324949">
        <ele>26.57</ele>
        <time>2016-04-03T09:09:00Z</time>
      </trkpt>
      <trkpt lat="44.200106430798769" lon="8.415706297382712">
        <ele>28.02</ele>
        <time>2016-04-03T09:09:11Z</time>
      </trkpt>
      <trkpt lat="44.200054882094264" lon="8.415752062574029">
        <ele>29.940000000000001</ele>
        <time>2016-04-03T09:09:20Z</time>
      </trkpt>
      <trkpt lat="44.200017917901278" lon="8.415827918797731">
        <ele>31.859999999999999</ele>
        <time>2016-04-03T09:09:31Z</time>
      </trkpt>
      <trkpt lat="44.199971733614802" lon="8.415872929617763">
        <ele>33.299999999999997</ele>
        <time>2016-04-03T09:09:40Z</time>
      </trkpt>
      <trkpt lat="44.199926471337676" lon="8.415947193279862">
        <ele>34.740000000000002</ele>
        <time>2016-04-03T09:09:50Z</time>
      </trkpt>
      <trkpt lat="44.199914988130331" lon="8.415966052561998">
        <ele>34.740000000000002</ele>
        <time>2016-04-03T09:09:59Z</time>
      </trkpt>
      <trkpt lat="44.199916748329997" lon="8.415966304019094">
        <ele>34.740000000000002</ele>
        <time>2016-04-03T09:10:00Z</time>
      </trkpt>
      <trkpt lat="44.199889255687594" lon="8.415950462222099">
        <ele>34.259999999999998</ele>
        <time>2016-04-03T09:10:12Z</time>
      </trkpt>
      <trkpt lat="44.199922196567059" lon="8.415938559919596">
        <ele>33.780000000000001</ele>
        <time>2016-04-03T09:10:27Z</time>
      </trkpt>
      <trkpt lat="44.199929069727659" lon="8.415947780013084">
        <ele>34.740000000000002</ele>
        <time>2016-04-03T09:10:43Z</time>
      </trkpt>
      <trkpt lat="44.199909372255206" lon="8.415978793054819">
        <ele>34.740000000000002</ele>
        <time>2016-04-03T09:10:53Z</time>
      </trkpt>
      <trkpt lat="44.19991884380579" lon="8.41599740087986">
        <ele>34.740000000000002</ele>
        <time>2016-04-03T09:11:10Z</time>
      </trkpt>
      <trkpt lat="44.199910126626492" lon="8.415980888530612">
        <ele>34.740000000000002</ele>
        <time>2016-04-03T09:11:22Z</time>
      </trkpt>
      <trkpt lat="44.199906690046191" lon="8.416002094745636">
        <ele>35.229999999999997</ele>
        <time>2016-04-03T09:11:39Z</time>
      </trkpt>
      <trkpt lat="44.199917083606124" lon="8.415994383394718">
        <ele>35.229999999999997</ele>
        <time>2016-04-03T09:11:51Z</time>
      </trkpt>
      <trkpt lat="44.199907192960382" lon="8.415982984006405">
        <ele>35.710000000000001</ele>
        <time>2016-04-03T09:12:05Z</time>
      </trkpt>
      <trkpt lat="44.199902666732669" lon="8.415984241291881">
        <ele>35.710000000000001</ele>
        <time>2016-04-03T09:12:18Z</time>
      </trkpt>
      <trkpt lat="44.199905097484589" lon="8.416005363687873">
        <ele>35.710000000000001</ele>
        <time>2016-04-03T09:12:38Z</time>
      </trkpt>
      <trkpt lat="44.19989344663918" lon="8.416019612923265">
        <ele>35.710000000000001</ele>
        <time>2016-04-03T09:12:49Z</time>
      </trkpt>
      <trkpt lat="44.199906941503286" lon="8.416012236848474">
        <ele>35.710000000000001</ele>
        <time>2016-04-03T09:13:01Z</time>
      </trkpt>
      <trkpt lat="44.199857236817479" lon="8.416061438620091">
        <ele>37.149999999999999</ele>
        <time>2016-04-03T09:13:12Z</time>
      </trkpt>
      <trkpt lat="44.199825385585427" lon="8.416122542694211">
        <ele>38.590000000000003</ele>
        <time>2016-04-03T09:13:20Z</time>
      </trkpt>
      <trkpt lat="44.199782805517316" lon="8.416180964559317">
        <ele>40.509999999999998</ele>
        <time>2016-04-03T09:13:31Z</time>
      </trkpt>
      <trkpt lat="44.199737291783094" lon="8.41623293235898">
        <ele>43.880000000000003</ele>
        <time>2016-04-03T09:13:42Z</time>
      </trkpt>
      <trkpt lat="44.199688760563731" lon="8.416274087503552">
        <ele>43.880000000000003</ele>
        <time>2016-04-03T09:13:52Z</time>
      </trkpt>
      <trkpt lat="44.199659842997789" lon="8.416335862129927">
        <ele>45.32</ele>
        <time>2016-04-03T09:14:00Z</time>
      </trkpt>
      <trkpt lat="44.199596559628844" lon="8.416417501866818">
        <ele>47.240000000000002</ele>
        <time>2016-04-03T09:14:11Z</time>
      </trkpt>
      <trkpt lat="44.199532270431519" lon="8.416478019207716">
        <ele>49.159999999999997</ele>
        <time>2016-04-03T09:14:21Z</time>
      </trkpt>
      <trkpt lat="44.19952648691833" lon="8.416484892368317">
        <ele>49.159999999999997</ele>
        <time>2016-04-03T09:14:22Z</time>
      </trkpt>
      <trkpt lat="44.199492624029517" lon="8.416550355032086">
        <ele>50.609999999999999</ele>
        <time>2016-04-03T09:14:31Z</time>
      </trkpt>
      <trkpt lat="44.199427831918001" lon="8.416625121608377">
        <ele>52.530000000000001</ele>
        <time>2016-04-03T09:14:42Z</time>
      </trkpt>
      <trkpt lat="44.199387598782778" lon="8.416722938418388">
        <ele>54.450000000000003</ele>
        <time>2016-04-03T09:14:55Z</time>
      </trkpt>
      <trkpt lat="44.199363123625517" lon="8.416745653375983">
        <ele>55.409999999999997</ele>
        <time>2016-04-03T09:15:06Z</time>
      </trkpt>
      <trkpt lat="44.199331104755402" lon="8.416843554005027">
        <ele>56.369999999999997</ele>
        <time>2016-04-03T09:15:17Z</time>
      </trkpt>
      <trkpt lat="44.19927092269063" lon="8.416956039145589">
        <ele>59.259999999999998</ele>
        <time>2016-04-03T09:15:31Z</time>
      </trkpt>
      <trkpt lat="44.199204538017511" lon="8.417032985016704">
        <ele>61.18</ele>
        <time>2016-04-03T09:15:42Z</time>
      </trkpt>
      <trkpt lat="44.199151145294309" lon="8.417115630581975">
        <ele>63.100000000000001</ele>
        <time>2016-04-03T09:15:53Z</time>
      </trkpt>
      <trkpt lat="44.199089538305998" lon="8.417188720777631">
        <ele>65.030000000000001</ele>
        <time>2016-04-03T09:16:04Z</time>
      </trkpt>
      <trkpt lat="44.19904419220984" lon="8.417260302230716">
        <ele>66.469999999999999</ele>
        <time>2016-04-03T09:16:13Z</time>
      </trkpt>
      <trkpt lat="44.198978981003165" lon="8.417315119877458">
        <ele>67.909999999999997</ele>
        <time>2016-04-03T09:16:24Z</time>
      </trkpt>
      <trkpt lat="44.198917122557759" lon="8.417376978322864">
        <ele>68.870000000000005</ele>
        <time>2016-04-03T09:16:35Z</time>
      </trkpt>
      <trkpt lat="44.198854677379131" lon="8.417447553947568">
        <ele>70.310000000000002</ele>
        <time>2016-04-03T09:16:45Z</time>
      </trkpt>
      <trkpt lat="44.198793321847916" lon="8.417520727962256">
        <ele>71.760000000000005</ele>
        <time>2016-04-03T09:16:55Z</time>
      </trkpt>
      <trkpt lat="44.198730709031224" lon="8.417606977745891">
        <ele>73.200000000000003</ele>
        <time>2016-04-03T09:17:07Z</time>
      </trkpt>
      <trkpt lat="44.198662480339408" lon="8.417733041569591">
        <ele>74.640000000000001</ele>
        <time>2016-04-03T09:17:19Z</time>
      </trkpt>
      <trkpt lat="44.198590647429228" lon="8.417836390435696">
        <ele>75.599999999999994</ele>
        <time>2016-04-03T09:17:30Z</time>
      </trkpt>
      <trkpt lat="44.198548654094338" lon="8.417920796200633">
        <ele>76.560000000000002</ele>
        <time>2016-04-03T09:17:41Z</time>
      </trkpt>
      <trkpt lat="44.198512360453606" lon="8.41796656139195">
        <ele>77.519999999999996</ele>
        <time>2016-04-03T09:17:51Z</time>
      </trkpt>
      <trkpt lat="44.198508504778147" lon="8.417978715151548">
        <ele>77.519999999999996</ele>
        <time>2016-04-03T09:17:52Z</time>
      </trkpt>
      <trkpt lat="44.198463074862957" lon="8.418054822832346">
        <ele>78.480000000000004</ele>
        <time>2016-04-03T09:18:00Z</time>
      </trkpt>
      <trkpt lat="44.198427284136415" lon="8.418153142556548">
        <ele>78.480000000000004</ele>
        <time>2016-04-03T09:18:11Z</time>
      </trkpt>
      <trkpt lat="44.198424769565463" lon="8.418161943554878">
        <ele>78.480000000000004</ele>
        <time>2016-04-03T09:18:19Z</time>
      </trkpt>
      <trkpt lat="44.198393588885665" lon="8.418218437582254">
        <ele>78</ele>
        <time>2016-04-03T09:18:30Z</time>
      </trkpt>
      <trkpt lat="44.198381938040257" lon="8.418282894417644">
        <ele>78</ele>
        <time>2016-04-03T09:18:40Z</time>
      </trkpt>
      <trkpt lat="44.198383865877986" lon="8.418293120339513">
        <ele>78</ele>
        <time>2016-04-03T09:18:47Z</time>
      </trkpt>
      <trkpt lat="44.198369113728404" lon="8.418377609923482">
        <ele>77.519999999999996</ele>
        <time>2016-04-03T09:18:58Z</time>
      </trkpt>
      <trkpt lat="44.198342459276319" lon="8.418492190539837">
        <ele>77.040000000000006</ele>
        <time>2016-04-03T09:19:08Z</time>
      </trkpt>
      <trkpt lat="44.198263166472316" lon="8.418666617944837">
        <ele>75.599999999999994</ele>
        <time>2016-04-03T09:19:20Z</time>
      </trkpt>
      <trkpt lat="44.198133330792189" lon="8.418772565200925">
        <ele>75.599999999999994</ele>
        <time>2016-04-03T09:19:33Z</time>
      </trkpt>
      <trkpt lat="44.198136599734426" lon="8.418782623484731">
        <ele>75.120000000000005</ele>
        <time>2016-04-03T09:19:44Z</time>
      </trkpt>
      <trkpt lat="44.198117824271321" lon="8.418766614049673">
        <ele>75.599999999999994</ele>
        <time>2016-04-03T09:19:55Z</time>
      </trkpt>
      <trkpt lat="44.198095444589853" lon="8.41877331957221">
        <ele>75.599999999999994</ele>
        <time>2016-04-03T09:20:06Z</time>
      </trkpt>
      <trkpt lat="44.198039285838604" lon="8.418772146105766">
        <ele>74.640000000000001</ele>
        <time>2016-04-03T09:20:18Z</time>
      </trkpt>
      <trkpt lat="44.197981618344784" lon="8.41876158490777">
        <ele>74.159999999999997</ele>
        <time>2016-04-03T09:20:28Z</time>
      </trkpt>
      <trkpt lat="44.197956053540111" lon="8.418759657070041">
        <ele>73.200000000000003</ele>
        <time>2016-04-03T09:20:31Z</time>
      </trkpt>
      <trkpt lat="44.197922861203551" lon="8.418753789737821">
        <ele>73.200000000000003</ele>
        <time>2016-04-03T09:20:35Z</time>
      </trkpt>
      <trkpt lat="44.197888076305389" lon="8.418774409219623">
        <ele>72.239999999999995</ele>
        <time>2016-04-03T09:20:39Z</time>
      </trkpt>
      <trkpt lat="44.197854632511735" lon="8.418731074780226">
        <ele>71.269999999999996</ele>
        <time>2016-04-03T09:20:49Z</time>
      </trkpt>
      <trkpt lat="44.197771064937115" lon="8.418741300702095">
        <ele>70.310000000000002</ele>
        <time>2016-04-03T09:20:57Z</time>
      </trkpt>
      <trkpt lat="44.197679786011577" lon="8.418723614886403">
        <ele>69.349999999999994</ele>
        <time>2016-04-03T09:21:04Z</time>
      </trkpt>
      <trkpt lat="44.197651958093047" lon="8.418686231598258">
        <ele>68.870000000000005</ele>
        <time>2016-04-03T09:21:12Z</time>
      </trkpt>
      <trkpt lat="44.197509046643972" lon="8.418615069240332">
        <ele>67.909999999999997</ele>
        <time>2016-04-03T09:21:25Z</time>
      </trkpt>
      <trkpt lat="44.19736186042428" lon="8.418561676517129">
        <ele>67.909999999999997</ele>
        <time>2016-04-03T09:21:37Z</time>
      </trkpt>
      <trkpt lat="44.197360435500741" lon="8.418608196079731">
        <ele>67.909999999999997</ele>
        <time>2016-04-03T09:21:44Z</time>
      </trkpt>
      <trkpt lat="44.19740385375917" lon="8.418671227991581">
        <ele>68.390000000000001</ele>
        <time>2016-04-03T09:21:51Z</time>
      </trkpt>
      <trkpt lat="44.197420449927449" lon="8.418745575472713">
        <ele>69.349999999999994</ele>
        <time>2016-04-03T09:22:02Z</time>
      </trkpt>
      <trkpt lat="44.197408631443977" lon="8.418766865506768">
        <ele>69.829999999999998</ele>
        <time>2016-04-03T09:22:19Z</time>
      </trkpt>
      <trkpt lat="44.19744442217052" lon="8.418860072270036">
        <ele>70.310000000000002</ele>
        <time>2016-04-03T09:22:29Z</time>
      </trkpt>
      <trkpt lat="44.19747618958354" lon="8.418923104181886">
        <ele>70.790000000000006</ele>
        <time>2016-04-03T09:22:41Z</time>
      </trkpt>
      <trkpt lat="44.197476021945477" lon="8.41904740780592">
        <ele>71.269999999999996</ele>
        <time>2016-04-03T09:22:53Z</time>
      </trkpt>
      <trkpt lat="44.197491779923439" lon="8.419105242937803">
        <ele>71.760000000000005</ele>
        <time>2016-04-03T09:22:59Z</time>
      </trkpt>
      <trkpt lat="44.197496054694057" lon="8.419118486344814">
        <ele>71.760000000000005</ele>
        <time>2016-04-03T09:23:00Z</time>
      </trkpt>
      <trkpt lat="44.19749915599823" lon="8.419131729751825">
        <ele>71.760000000000005</ele>
        <time>2016-04-03T09:23:01Z</time>
      </trkpt>
      <trkpt lat="44.197482643648982" lon="8.419247483834624">
        <ele>71.760000000000005</ele>
        <time>2016-04-03T09:23:11Z</time>
      </trkpt>
      <trkpt lat="44.197480799630284" lon="8.419274389743805">
        <ele>71.760000000000005</ele>
        <time>2016-04-03T09:23:13Z</time>
      </trkpt>
      <trkpt lat="44.197483565658331" lon="8.419462060555816">
        <ele>72.239999999999995</ele>
        <time>2016-04-03T09:23:24Z</time>
      </trkpt>
      <trkpt lat="44.197469064965844" lon="8.419574210420251">
        <ele>73.200000000000003</ele>
        <time>2016-04-03T09:23:35Z</time>
      </trkpt>
      <trkpt lat="44.197460599243641" lon="8.419724833220244">
        <ele>73.200000000000003</ele>
        <time>2016-04-03T09:23:46Z</time>
      </trkpt>
      <trkpt lat="44.197463029995561" lon="8.419739501550794">
        <ele>73.200000000000003</ele>
        <time>2016-04-03T09:23:47Z</time>
      </trkpt>
      <trkpt lat="44.197463700547814" lon="8.419752828776836">
        <ele>73.200000000000003</ele>
        <time>2016-04-03T09:23:48Z</time>
      </trkpt>
      <trkpt lat="44.197464287281036" lon="8.419817285612226">
        <ele>74.640000000000001</ele>
        <time>2016-04-03T09:23:57Z</time>
      </trkpt>
      <trkpt lat="44.197484236210585" lon="8.419921807944775">
        <ele>74.159999999999997</ele>
        <time>2016-04-03T09:24:07Z</time>
      </trkpt>
      <trkpt lat="44.197505274787545" lon="8.420035634189844">
        <ele>74.640000000000001</ele>
        <time>2016-04-03T09:24:17Z</time>
      </trkpt>
      <trkpt lat="44.197508040815592" lon="8.420051224529743">
        <ele>74.640000000000001</ele>
        <time>2016-04-03T09:24:18Z</time>
      </trkpt>
      <trkpt lat="44.197527403011918" lon="8.420065557584167">
        <ele>74.640000000000001</ele>
        <time>2016-04-03T09:24:28Z</time>
      </trkpt>
      <trkpt lat="44.19752505607903" lon="8.420099252834916">
        <ele>74.640000000000001</ele>
        <time>2016-04-03T09:24:32Z</time>
      </trkpt>
      <trkpt lat="44.197530336678028" lon="8.420142838731408">
        <ele>74.640000000000001</ele>
        <time>2016-04-03T09:24:43Z</time>
      </trkpt>
      <trkpt lat="44.19755288399756" lon="8.420193130150437">
        <ele>74.159999999999997</ele>
        <time>2016-04-03T09:24:50Z</time>
      </trkpt>
      <trkpt lat="44.197555398568511" lon="8.420235039666295">
        <ele>74.159999999999997</ele>
        <time>2016-04-03T09:24:53Z</time>
      </trkpt>
      <trkpt lat="44.197555314749479" lon="8.420250210911036">
        <ele>74.159999999999997</ele>
        <time>2016-04-03T09:24:54Z</time>
      </trkpt>
      <trkpt lat="44.197556236758828" lon="8.420263873413205">
        <ele>74.159999999999997</ele>
        <time>2016-04-03T09:24:55Z</time>
      </trkpt>
      <trkpt lat="44.197556488215923" lon="8.420280469581485">
        <ele>73.680000000000007</ele>
        <time>2016-04-03T09:24:56Z</time>
      </trkpt>
      <trkpt lat="44.197558164596558" lon="8.420294718816876">
        <ele>73.680000000000007</ele>
        <time>2016-04-03T09:24:57Z</time>
      </trkpt>
      <trkpt lat="44.197569563984871" lon="8.420441905036569">
        <ele>73.200000000000003</ele>
        <time>2016-04-03T09:25:09Z</time>
      </trkpt>
      <trkpt lat="44.197571994736791" lon="8.42048792168498">
        <ele>72.719999999999999</ele>
        <time>2016-04-03T09:25:21Z</time>
      </trkpt>
      <trkpt lat="44.197546513751149" lon="8.420546762645245">
        <ele>72.239999999999995</ele>
        <time>2016-04-03T09:25:31Z</time>
      </trkpt>
      <trkpt lat="44.197552297264338" lon="8.420612812042236">
        <ele>72.239999999999995</ele>
        <time>2016-04-03T09:25:44Z</time>
      </trkpt>
      <trkpt lat="44.197566714137793" lon="8.420748682692647">
        <ele>72.719999999999999</ele>
        <time>2016-04-03T09:25:57Z</time>
      </trkpt>
      <trkpt lat="44.197573754936457" lon="8.420905927196145">
        <ele>72.239999999999995</ele>
        <time>2016-04-03T09:26:09Z</time>
      </trkpt>
      <trkpt lat="44.197588255628943" lon="8.420976754277945">
        <ele>72.239999999999995</ele>
        <time>2016-04-03T09:26:15Z</time>
      </trkpt>
      <trkpt lat="44.197615748271346" lon="8.42111136764288">
        <ele>72.239999999999995</ele>
        <time>2016-04-03T09:26:25Z</time>
      </trkpt>
      <trkpt lat="44.19768339022994" lon="8.421257296577096">
        <ele>71.269999999999996</ele>
        <time>2016-04-03T09:26:36Z</time>
      </trkpt>
      <trkpt lat="44.197742398828268" lon="8.421366177499294">
        <ele>71.269999999999996</ele>
        <time>2016-04-03T09:26:44Z</time>
      </trkpt>
      <trkpt lat="44.197839880362153" lon="8.421464748680592">
        <ele>71.269999999999996</ele>
        <time>2016-04-03T09:26:56Z</time>
      </trkpt>
      <trkpt lat="44.197891680523753" lon="8.421510513871908">
        <ele>71.269999999999996</ele>
        <time>2016-04-03T09:27:07Z</time>
      </trkpt>
      <trkpt lat="44.197893356904387" lon="8.421537084504962">
        <ele>71.760000000000005</ele>
        <time>2016-04-03T09:27:17Z</time>
      </trkpt>
      <trkpt lat="44.197890171781182" lon="8.421552004292607">
        <ele>71.760000000000005</ele>
        <time>2016-04-03T09:27:29Z</time>
      </trkpt>
      <trkpt lat="44.197926968336105" lon="8.421534486114979">
        <ele>71.760000000000005</ele>
        <time>2016-04-03T09:27:40Z</time>
      </trkpt>
      <trkpt lat="44.197916910052299" lon="8.42154286801815">
        <ele>71.760000000000005</ele>
        <time>2016-04-03T09:27:52Z</time>
      </trkpt>
      <trkpt lat="44.197887489572167" lon="8.421574048697949">
        <ele>71.760000000000005</ele>
        <time>2016-04-03T09:28:10Z</time>
      </trkpt>
      <trkpt lat="44.197887573391199" lon="8.421579916030169">
        <ele>71.760000000000005</ele>
        <time>2016-04-03T09:28:28Z</time>
      </trkpt>
      <trkpt lat="44.197886064648628" lon="8.421582262963057">
        <ele>72.239999999999995</ele>
        <time>2016-04-03T09:28:43Z</time>
      </trkpt>
      <trkpt lat="44.197885897010565" lon="8.42158293351531">
        <ele>71.760000000000005</ele>
        <time>2016-04-03T09:28:58Z</time>
      </trkpt>
      <trkpt lat="44.197886986657977" lon="8.421586621552706">
        <ele>71.760000000000005</ele>
        <time>2016-04-03T09:29:10Z</time>
      </trkpt>
      <trkpt lat="44.197874581441283" lon="8.421575473621488">
        <ele>72.239999999999995</ele>
        <time>2016-04-03T09:29:29Z</time>
      </trkpt>
      <trkpt lat="44.197904840111732" lon="8.421597434207797">
        <ele>72.719999999999999</ele>
        <time>2016-04-03T09:29:49Z</time>
      </trkpt>
      <trkpt lat="44.197891429066658" lon="8.421603385359049">
        <ele>72.239999999999995</ele>
        <time>2016-04-03T09:30:01Z</time>
      </trkpt>
      <trkpt lat="44.197881706058979" lon="8.421598942950368">
        <ele>72.719999999999999</ele>
        <time>2016-04-03T09:30:11Z</time>
      </trkpt>
      <trkpt lat="44.197879526764154" lon="8.421613359823823">
        <ele>72.719999999999999</ele>
        <time>2016-04-03T09:30:22Z</time>
      </trkpt>
      <trkpt lat="44.197877766564488" lon="8.421587543562055">
        <ele>72.239999999999995</ele>
        <time>2016-04-03T09:30:39Z</time>
      </trkpt>
      <trkpt lat="44.19788857921958" lon="8.421594249084592">
        <ele>72.239999999999995</ele>
        <time>2016-04-03T09:30:54Z</time>
      </trkpt>
      <trkpt lat="44.197868797928095" lon="8.421602379530668">
        <ele>72.719999999999999</ele>
        <time>2016-04-03T09:31:08Z</time>
      </trkpt>
      <trkpt lat="44.197861086577177" lon="8.421614281833172">
        <ele>72.239999999999995</ele>
        <time>2016-04-03T09:31:27Z</time>
      </trkpt>
      <trkpt lat="44.197866870090365" lon="8.421625681221485">
        <ele>72.239999999999995</ele>
        <time>2016-04-03T09:31:47Z</time>
      </trkpt>
      <trkpt lat="44.197873491793871" lon="8.421583017334342">
        <ele>72.239999999999995</ele>
        <time>2016-04-03T09:32:01Z</time>
      </trkpt>
      <trkpt lat="44.197884052991867" lon="8.421563152223826">
        <ele>72.239999999999995</ele>
        <time>2016-04-03T09:32:17Z</time>
      </trkpt>
      <trkpt lat="44.197913724929094" lon="8.421566002070904">
        <ele>71.760000000000005</ele>
        <time>2016-04-03T09:32:27Z</time>
      </trkpt>
      <trkpt lat="44.197927638888359" lon="8.421579832211137">
        <ele>71.269999999999996</ele>
        <time>2016-04-03T09:32:40Z</time>
      </trkpt>
      <trkpt lat="44.1979462467134" lon="8.421565918251872">
        <ele>71.269999999999996</ele>
        <time>2016-04-03T09:32:53Z</time>
      </trkpt>
      <trkpt lat="44.197977930307388" lon="8.421605480834842">
        <ele>70.310000000000002</ele>
        <time>2016-04-03T09:33:05Z</time>
      </trkpt>
      <trkpt lat="44.19792428612709" lon="8.421584777534008">
        <ele>70.790000000000006</ele>
        <time>2016-04-03T09:33:18Z</time>
      </trkpt>
      <trkpt lat="44.197874329984188" lon="8.421601206064224">
        <ele>71.760000000000005</ele>
        <time>2016-04-03T09:33:31Z</time>
      </trkpt>
      <trkpt lat="44.197902493178844" lon="8.42159366235137">
        <ele>72.239999999999995</ele>
        <time>2016-04-03T09:33:44Z</time>
      </trkpt>
      <trkpt lat="44.197890004143119" lon="8.421600619331002">
        <ele>72.239999999999995</ele>
        <time>2016-04-03T09:34:00Z</time>
      </trkpt>
      <trkpt lat="44.197912467643619" lon="8.421607492491603">
        <ele>72.239999999999995</ele>
        <time>2016-04-03T09:34:16Z</time>
      </trkpt>
      <trkpt lat="44.197901571169496" lon="8.42160196043551">
        <ele>72.239999999999995</ele>
        <time>2016-04-03T09:34:28Z</time>
      </trkpt>
      <trkpt lat="44.197907187044621" lon="8.421609420329332">
        <ele>72.719999999999999</ele>
        <time>2016-04-03T09:34:39Z</time>
      </trkpt>
      <trkpt lat="44.197932751849294" lon="8.421668680384755">
        <ele>73.200000000000003</ele>
        <time>2016-04-03T09:34:49Z</time>
      </trkpt>
      <trkpt lat="44.197926800698042" lon="8.42177395708859">
        <ele>74.159999999999997</ele>
        <time>2016-04-03T09:35:02Z</time>
      </trkpt>
      <trkpt lat="44.197848681360483" lon="8.421701705083251">
        <ele>76.079999999999998</ele>
        <time>2016-04-03T09:35:14Z</time>
      </trkpt>
      <trkpt lat="44.197841724380851" lon="8.421757528558374">
        <ele>78</ele>
        <time>2016-04-03T09:35:25Z</time>
      </trkpt>
      <trkpt lat="44.197887657210231" lon="8.421861380338669">
        <ele>79.450000000000003</ele>
        <time>2016-04-03T09:35:38Z</time>
      </trkpt>
      <trkpt lat="44.197879023849964" lon="8.421958358958364">
        <ele>80.890000000000001</ele>
        <time>2016-04-03T09:35:50Z</time>
      </trkpt>
      <trkpt lat="44.197863601148129" lon="8.422050727531314">
        <ele>82.329999999999998</ele>
        <time>2016-04-03T09:36:01Z</time>
      </trkpt>
      <trkpt lat="44.197851195931435" lon="8.422094229608774">
        <ele>82.810000000000002</ele>
        <time>2016-04-03T09:36:05Z</time>
      </trkpt>
      <trkpt lat="44.197846334427595" lon="8.422109736129642">
        <ele>82.810000000000002</ele>
        <time>2016-04-03T09:36:06Z</time>
      </trkpt>
      <trkpt lat="44.197835521772504" lon="8.422151813283563">
        <ele>82.329999999999998</ele>
        <time>2016-04-03T09:36:09Z</time>
      </trkpt>
      <trkpt lat="44.197829738259315" lon="8.422167990356684">
        <ele>82.329999999999998</ele>
        <time>2016-04-03T09:36:10Z</time>
      </trkpt>
      <trkpt lat="44.197827642783523" lon="8.422186765819788">
        <ele>80.890000000000001</ele>
        <time>2016-04-03T09:36:11Z</time>
      </trkpt>
      <trkpt lat="44.197825882583857" lon="8.422204367816448">
        <ele>80.890000000000001</ele>
        <time>2016-04-03T09:36:12Z</time>
      </trkpt>
      <trkpt lat="44.197787409648299" lon="8.422360271215439">
        <ele>80.890000000000001</ele>
        <time>2016-04-03T09:36:26Z</time>
      </trkpt>
      <trkpt lat="44.197711050510406" lon="8.422503098845482">
        <ele>81.849999999999994</ele>
        <time>2016-04-03T09:36:40Z</time>
      </trkpt>
      <trkpt lat="44.197678444907069" lon="8.422596054151654">
        <ele>82.810000000000002</ele>
        <time>2016-04-03T09:36:48Z</time>
      </trkpt>
      <trkpt lat="44.197641145437956" lon="8.422748940065503">
        <ele>82.810000000000002</ele>
        <time>2016-04-03T09:37:01Z</time>
      </trkpt>
      <trkpt lat="44.197595799341798" lon="8.422918003052473">
        <ele>83.769999999999996</ele>
        <time>2016-04-03T09:37:14Z</time>
      </trkpt>
      <trkpt lat="44.197560260072351" lon="8.423080611974001">
        <ele>84.730000000000004</ele>
        <time>2016-04-03T09:37:25Z</time>
      </trkpt>
      <trkpt lat="44.19751382432878" lon="8.42323886230588">
        <ele>86.180000000000007</ele>
        <time>2016-04-03T09:37:38Z</time>
      </trkpt>
      <trkpt lat="44.197477698326111" lon="8.423366853967309">
        <ele>86.659999999999997</ele>
        <time>2016-04-03T09:37:49Z</time>
      </trkpt>
      <trkpt lat="44.197430424392223" lon="8.423462407663465">
        <ele>88.099999999999994</ele>
        <time>2016-04-03T09:38:00Z</time>
      </trkpt>
      <trkpt lat="44.197434699162841" lon="8.423526026308537">
        <ele>88.579999999999998</ele>
        <time>2016-04-03T09:38:10Z</time>
      </trkpt>
      <trkpt lat="44.197421874850988" lon="8.423542371019721">
        <ele>89.060000000000002</ele>
        <time>2016-04-03T09:38:25Z</time>
      </trkpt>
      <trkpt lat="44.197420617565513" lon="8.423591237515211">
        <ele>89.540000000000006</ele>
        <time>2016-04-03T09:38:37Z</time>
      </trkpt>
      <trkpt lat="44.197426736354828" lon="8.423625351861119">
        <ele>90.5</ele>
        <time>2016-04-03T09:38:53Z</time>
      </trkpt>
      <trkpt lat="44.197413828223944" lon="8.423624513670802">
        <ele>90.5</ele>
        <time>2016-04-03T09:39:08Z</time>
      </trkpt>
      <trkpt lat="44.197391113266349" lon="8.423657370731235">
        <ele>90.5</ele>
        <time>2016-04-03T09:39:11Z</time>
      </trkpt>
      <trkpt lat="44.197388347238302" lon="8.423671452328563">
        <ele>90.980000000000004</ele>
        <time>2016-04-03T09:39:12Z</time>
      </trkpt>
      <trkpt lat="44.197383988648653" lon="8.423685282468796">
        <ele>90.980000000000004</ele>
        <time>2016-04-03T09:39:13Z</time>
      </trkpt>
      <trkpt lat="44.19737552292645" lon="8.423710763454437">
        <ele>90.5</ele>
        <time>2016-04-03T09:39:15Z</time>
      </trkpt>
      <trkpt lat="44.197347862645984" lon="8.423734735697508">
        <ele>90.980000000000004</ele>
        <time>2016-04-03T09:39:18Z</time>
      </trkpt>
      <trkpt lat="44.197282651439309" lon="8.423816794529557">
        <ele>91.939999999999998</ele>
        <time>2016-04-03T09:39:26Z</time>
      </trkpt>
      <trkpt lat="44.19718399643898" lon="8.423851327970624">
        <ele>92.900000000000006</ele>
        <time>2016-04-03T09:39:36Z</time>
      </trkpt>
      <trkpt lat="44.197100512683392" lon="8.423879072070122">
        <ele>94.349999999999994</ele>
        <time>2016-04-03T09:39:46Z</time>
      </trkpt>
      <trkpt lat="44.19708140194416" lon="8.423892147839069">
        <ele>94.349999999999994</ele>
        <time>2016-04-03T09:39:48Z</time>
      </trkpt>
      <trkpt lat="44.197037145495415" lon="8.423871360719204">
        <ele>95.790000000000006</ele>
        <time>2016-04-03T09:39:55Z</time>
      </trkpt>
      <trkpt lat="44.19701686128974" lon="8.42386431992054">
        <ele>95.790000000000006</ele>
        <time>2016-04-03T09:40:09Z</time>
      </trkpt>
      <trkpt lat="44.196980483829975" lon="8.423842443153262">
        <ele>94.829999999999998</ele>
        <time>2016-04-03T09:40:13Z</time>
      </trkpt>
      <trkpt lat="44.196893060579896" lon="8.42382232658565">
        <ele>96.269999999999996</ele>
        <time>2016-04-03T09:40:25Z</time>
      </trkpt>
      <trkpt lat="44.196829106658697" lon="8.423856860026717">
        <ele>97.230000000000004</ele>
        <time>2016-04-03T09:40:32Z</time>
      </trkpt>
      <trkpt lat="44.196752160787582" lon="8.423896254971623">
        <ele>98.670000000000002</ele>
        <time>2016-04-03T09:40:41Z</time>
      </trkpt>
      <trkpt lat="44.196721147745848" lon="8.423916036263108">
        <ele>99.150000000000006</ele>
        <time>2016-04-03T09:40:44Z</time>
      </trkpt>
      <trkpt lat="44.196707652881742" lon="8.423911761492491">
        <ele>99.150000000000006</ele>
        <time>2016-04-03T09:40:45Z</time>
      </trkpt>
      <trkpt lat="44.196567172184587" lon="8.423914359882474">
        <ele>101.08</ele>
        <time>2016-04-03T09:40:59Z</time>
      </trkpt>
      <trkpt lat="44.196531381458044" lon="8.423917712643743">
        <ele>101.56</ele>
        <time>2016-04-03T09:41:02Z</time>
      </trkpt>
      <trkpt lat="44.19651604257524" lon="8.423921819776297">
        <ele>101.56</ele>
        <time>2016-04-03T09:41:03Z</time>
      </trkpt>
      <trkpt lat="44.196502631530166" lon="8.423926178365946">
        <ele>101.56</ele>
        <time>2016-04-03T09:41:04Z</time>
      </trkpt>
      <trkpt lat="44.196347733959556" lon="8.424035478383303">
        <ele>102.04000000000001</ele>
        <time>2016-04-03T09:41:19Z</time>
      </trkpt>
      <trkpt lat="44.196269111707807" lon="8.424133127555251">
        <ele>103.95999999999999</ele>
        <time>2016-04-03T09:41:32Z</time>
      </trkpt>
      <trkpt lat="44.196185376495123" lon="8.42420588247478">
        <ele>105.88</ele>
        <time>2016-04-03T09:41:44Z</time>
      </trkpt>
      <trkpt lat="44.196123601868749" lon="8.424249887466431">
        <ele>107.81</ele>
        <time>2016-04-03T09:41:56Z</time>
      </trkpt>
      <trkpt lat="44.196074903011322" lon="8.424293557181954">
        <ele>109.25</ele>
        <time>2016-04-03T09:42:05Z</time>
      </trkpt>
      <trkpt lat="44.196003573015332" lon="8.424340495839715">
        <ele>110.20999999999999</ele>
        <time>2016-04-03T09:42:17Z</time>
      </trkpt>
      <trkpt lat="44.19594531878829" lon="8.424388272687793">
        <ele>111.17</ele>
        <time>2016-04-03T09:42:28Z</time>
      </trkpt>
      <trkpt lat="44.195942971855402" lon="8.424410987645388">
        <ele>112.13</ele>
        <time>2016-04-03T09:42:41Z</time>
      </trkpt>
      <trkpt lat="44.195946827530861" lon="8.424413837492466">
        <ele>112.13</ele>
        <time>2016-04-03T09:43:00Z</time>
      </trkpt>
      <trkpt lat="44.195970967411995" lon="8.424423560500145">
        <ele>112.13</ele>
        <time>2016-04-03T09:43:06Z</time>
      </trkpt>
      <trkpt lat="44.195983875542879" lon="8.42442330904305">
        <ele>111.65000000000001</ele>
        <time>2016-04-03T09:43:07Z</time>
      </trkpt>
      <trkpt lat="44.196013547480106" lon="8.424423560500145">
        <ele>111.65000000000001</ele>
        <time>2016-04-03T09:43:10Z</time>
      </trkpt>
      <trkpt lat="44.196041710674763" lon="8.424559514969587">
        <ele>111.65000000000001</ele>
        <time>2016-04-03T09:43:22Z</time>
      </trkpt>
      <trkpt lat="44.196051517501473" lon="8.42461533844471">
        <ele>112.13</ele>
        <time>2016-04-03T09:43:32Z</time>
      </trkpt>
      <trkpt lat="44.196051014587283" lon="8.424608465284109">
        <ele>111.17</ele>
        <time>2016-04-03T09:43:34Z</time>
      </trkpt>
      <trkpt lat="44.196039866656065" lon="8.424595389515162">
        <ele>111.65000000000001</ele>
        <time>2016-04-03T09:43:47Z</time>
      </trkpt>
      <trkpt lat="44.19605378061533" lon="8.424627911299467">
        <ele>113.56999999999999</ele>
        <time>2016-04-03T09:43:56Z</time>
      </trkpt>
      <trkpt lat="44.196061408147216" lon="8.424635957926512">
        <ele>112.61</ele>
        <time>2016-04-03T09:44:11Z</time>
      </trkpt>
      <trkpt lat="44.196029054000974" lon="8.424642831087112">
        <ele>111.17</ele>
        <time>2016-04-03T09:44:29Z</time>
      </trkpt>
      <trkpt lat="44.19599904678762" lon="8.424685746431351">
        <ele>112.13</ele>
        <time>2016-04-03T09:44:36Z</time>
      </trkpt>
      <trkpt lat="44.195991000160575" lon="8.424684153869748">
        <ele>112.13</ele>
        <time>2016-04-03T09:44:47Z</time>
      </trkpt>
      <trkpt lat="44.195997873321176" lon="8.424677196890116">
        <ele>111.17</ele>
        <time>2016-04-03T09:44:56Z</time>
      </trkpt>
      <trkpt lat="44.195998376235366" lon="8.424669653177261">
        <ele>111.65000000000001</ele>
        <time>2016-04-03T09:45:07Z</time>
      </trkpt>
      <trkpt lat="44.196020839735866" lon="8.424653811380267">
        <ele>112.13</ele>
        <time>2016-04-03T09:45:18Z</time>
      </trkpt>
      <trkpt lat="44.196033412590623" lon="8.424641992896795">
        <ele>111.65000000000001</ele>
        <time>2016-04-03T09:45:28Z</time>
      </trkpt>
      <trkpt lat="44.196026707068086" lon="8.424644339829683">
        <ele>111.65000000000001</ele>
        <time>2016-04-03T09:45:38Z</time>
      </trkpt>
      <trkpt lat="44.196041207760572" lon="8.42465247027576">
        <ele>109.73</ele>
        <time>2016-04-03T09:45:45Z</time>
      </trkpt>
      <trkpt lat="44.196043722331524" lon="8.424652805551887">
        <ele>111.17</ele>
        <time>2016-04-03T09:45:55Z</time>
      </trkpt>
      <trkpt lat="44.196041878312826" lon="8.424654146656394">
        <ele>112.13</ele>
        <time>2016-04-03T09:45:58Z</time>
      </trkpt>
      <trkpt lat="44.196043722331524" lon="8.424652805551887">
        <ele>109.73</ele>
        <time>2016-04-03T09:46:08Z</time>
      </trkpt>
      <trkpt lat="44.196031987667084" lon="8.424709718674421">
        <ele>111.17</ele>
        <time>2016-04-03T09:46:15Z</time>
      </trkpt>
      <trkpt lat="44.196027964353561" lon="8.42464760877192">
        <ele>111.17</ele>
        <time>2016-04-03T09:46:27Z</time>
      </trkpt>
      <trkpt lat="44.196049422025681" lon="8.424648866057396">
        <ele>111.65000000000001</ele>
        <time>2016-04-03T09:46:45Z</time>
      </trkpt>
      <trkpt lat="44.196043387055397" lon="8.424622546881437">
        <ele>110.69</ele>
        <time>2016-04-03T09:46:58Z</time>
      </trkpt>
      <trkpt lat="44.196047158911824" lon="8.424576027318835">
        <ele>111.17</ele>
        <time>2016-04-03T09:47:05Z</time>
      </trkpt>
      <trkpt lat="44.196052858605981" lon="8.424512827768922">
        <ele>110.69</ele>
        <time>2016-04-03T09:47:11Z</time>
      </trkpt>
      <trkpt lat="44.196019833907485" lon="8.424431774765253">
        <ele>110.69</ele>
        <time>2016-04-03T09:47:20Z</time>
      </trkpt>
      <trkpt lat="44.195987982675433" lon="8.424416687339544">
        <ele>111.17</ele>
        <time>2016-04-03T09:47:24Z</time>
      </trkpt>
      <trkpt lat="44.195919837802649" lon="8.424411993473768">
        <ele>111.65000000000001</ele>
        <time>2016-04-03T09:47:35Z</time>
      </trkpt>
      <trkpt lat="44.195897039026022" lon="8.424386093392968">
        <ele>112.13</ele>
        <time>2016-04-03T09:47:48Z</time>
      </trkpt>
      <trkpt lat="44.195894692093134" lon="8.42432658188045">
        <ele>112.61</ele>
        <time>2016-04-03T09:48:05Z</time>
      </trkpt>
      <trkpt lat="44.195880107581615" lon="8.424249636009336">
        <ele>114.05</ele>
        <time>2016-04-03T09:48:17Z</time>
      </trkpt>
      <trkpt lat="44.195896033197641" lon="8.42416045255959">
        <ele>115.01000000000001</ele>
        <time>2016-04-03T09:48:26Z</time>
      </trkpt>
      <trkpt lat="44.195913132280111" lon="8.424074705690146">
        <ele>117.42</ele>
        <time>2016-04-03T09:48:37Z</time>
      </trkpt>
      <trkpt lat="44.19591112062335" lon="8.423994239419699">
        <ele>118.38</ele>
        <time>2016-04-03T09:48:47Z</time>
      </trkpt>
      <trkpt lat="44.195889160037041" lon="8.42402852140367">
        <ele>119.34</ele>
        <time>2016-04-03T09:48:57Z</time>
      </trkpt>
      <trkpt lat="44.195852782577276" lon="8.424007650464773">
        <ele>120.78</ele>
        <time>2016-04-03T09:49:05Z</time>
      </trkpt>
      <trkpt lat="44.195815231651068" lon="8.423946043476462">
        <ele>122.22</ele>
        <time>2016-04-03T09:49:16Z</time>
      </trkpt>
      <trkpt lat="44.195808945223689" lon="8.423877060413361">
        <ele>123.67</ele>
        <time>2016-04-03T09:49:25Z</time>
      </trkpt>
      <trkpt lat="44.195759408175945" lon="8.423797599971294">
        <ele>124.63</ele>
        <time>2016-04-03T09:49:39Z</time>
      </trkpt>
      <trkpt lat="44.195719761773944" lon="8.42373481951654">
        <ele>127.03</ele>
        <time>2016-04-03T09:49:53Z</time>
      </trkpt>
      <trkpt lat="44.195725880563259" lon="8.423664830625057">
        <ele>128.47</ele>
        <time>2016-04-03T09:50:02Z</time>
      </trkpt>
      <trkpt lat="44.195701824501157" lon="8.423589896410704">
        <ele>129.91999999999999</ele>
        <time>2016-04-03T09:50:12Z</time>
      </trkpt>
      <trkpt lat="44.195649605244398" lon="8.423549495637417">
        <ele>132.31999999999999</ele>
        <time>2016-04-03T09:50:23Z</time>
      </trkpt>
      <trkpt lat="44.195635775104165" lon="8.423565002158284">
        <ele>132.31999999999999</ele>
        <time>2016-04-03T09:50:33Z</time>
      </trkpt>
      <trkpt lat="44.195613143965602" lon="8.4235261939466">
        <ele>132.31999999999999</ele>
        <time>2016-04-03T09:50:53Z</time>
      </trkpt>
      <trkpt lat="44.195613479241729" lon="8.42345436103642">
        <ele>133.28</ele>
        <time>2016-04-03T09:51:03Z</time>
      </trkpt>
      <trkpt lat="44.195594033226371" lon="8.423380684107542">
        <ele>134.24000000000001</ele>
        <time>2016-04-03T09:51:15Z</time>
      </trkpt>
      <trkpt lat="44.195570815354586" lon="8.423255290836096">
        <ele>134.72</ele>
        <time>2016-04-03T09:51:27Z</time>
      </trkpt>
      <trkpt lat="44.195545166730881" lon="8.423131154850125">
        <ele>135.19999999999999</ele>
        <time>2016-04-03T09:51:37Z</time>
      </trkpt>
      <trkpt lat="44.195518093183637" lon="8.423000313341618">
        <ele>136.16</ele>
        <time>2016-04-03T09:51:49Z</time>
      </trkpt>
      <trkpt lat="44.195481212809682" lon="8.422880200669169">
        <ele>136.16</ele>
        <time>2016-04-03T09:51:59Z</time>
      </trkpt>
      <trkpt lat="44.195470232516527" lon="8.422833597287536">
        <ele>136.63999999999999</ele>
        <time>2016-04-03T09:52:03Z</time>
      </trkpt>
      <trkpt lat="44.195437794551253" lon="8.4227180108428">
        <ele>136.63999999999999</ele>
        <time>2016-04-03T09:52:12Z</time>
      </trkpt>
      <trkpt lat="44.195378869771957" lon="8.42260904610157">
        <ele>137.13</ele>
        <time>2016-04-03T09:52:22Z</time>
      </trkpt>
      <trkpt lat="44.195330087095499" lon="8.42252841219306">
        <ele>137.61000000000001</ele>
        <time>2016-04-03T09:52:31Z</time>
      </trkpt>
      <trkpt lat="44.195262026041746" lon="8.422452136874199">
        <ele>138.09</ele>
        <time>2016-04-03T09:52:41Z</time>
      </trkpt>
      <trkpt lat="44.195195222273469" lon="8.422382567077875">
        <ele>138.56999999999999</ele>
        <time>2016-04-03T09:52:51Z</time>
      </trkpt>
      <trkpt lat="44.195096651092172" lon="8.422285756096244">
        <ele>139.53</ele>
        <time>2016-04-03T09:53:03Z</time>
      </trkpt>
      <trkpt lat="44.195010485127568" lon="8.422170085832477">
        <ele>140.49000000000001</ele>
        <time>2016-04-03T09:53:13Z</time>
      </trkpt>
      <trkpt lat="44.194922307506204" lon="8.422113005071878">
        <ele>141.44999999999999</ele>
        <time>2016-04-03T09:53:23Z</time>
      </trkpt>
      <trkpt lat="44.194814264774323" lon="8.422019630670548">
        <ele>142.41</ele>
        <time>2016-04-03T09:53:35Z</time>
      </trkpt>
      <trkpt lat="44.194735726341605" lon="8.421946624293923">
        <ele>142.41</ele>
        <time>2016-04-03T09:53:44Z</time>
      </trkpt>
      <trkpt lat="44.194609578698874" lon="8.421872360631824">
        <ele>143.37</ele>
        <time>2016-04-03T09:53:56Z</time>
      </trkpt>
      <trkpt lat="44.194589713588357" lon="8.421834809705615">
        <ele>143.37</ele>
        <time>2016-04-03T09:54:08Z</time>
      </trkpt>
      <trkpt lat="44.194558532908559" lon="8.421838078647852">
        <ele>143.84999999999999</ele>
        <time>2016-04-03T09:54:26Z</time>
      </trkpt>
      <trkpt lat="44.194547217339277" lon="8.421800527721643">
        <ele>144.34</ele>
        <time>2016-04-03T09:54:39Z</time>
      </trkpt>
      <trkpt lat="44.194525172933936" lon="8.421810083091259">
        <ele>143.84999999999999</ele>
        <time>2016-04-03T09:54:51Z</time>
      </trkpt>
      <trkpt lat="44.194492315873504" lon="8.421840677037835">
        <ele>141.93000000000001</ele>
        <time>2016-04-03T09:55:02Z</time>
      </trkpt>
      <trkpt lat="44.19448091648519" lon="8.421822572126985">
        <ele>141.44999999999999</ele>
        <time>2016-04-03T09:55:04Z</time>
      </trkpt>
      <trkpt lat="44.194474713876843" lon="8.421788541600108">
        <ele>140.49000000000001</ele>
        <time>2016-04-03T09:55:06Z</time>
      </trkpt>
      <trkpt lat="44.194437749683857" lon="8.421694161370397">
        <ele>138.56999999999999</ele>
        <time>2016-04-03T09:55:16Z</time>
      </trkpt>
      <trkpt lat="44.1943802498281" lon="8.421608414500952">
        <ele>137.13</ele>
        <time>2016-04-03T09:55:27Z</time>
      </trkpt>
      <trkpt lat="44.194355690851808" lon="8.421576311811805">
        <ele>135.68000000000001</ele>
        <time>2016-04-03T09:55:31Z</time>
      </trkpt>
      <trkpt lat="44.194305147975683" lon="8.42147103510797">
        <ele>133.75999999999999</ele>
        <time>2016-04-03T09:55:41Z</time>
      </trkpt>
      <trkpt lat="44.194226777181029" lon="8.421354945749044">
        <ele>131.84</ele>
        <time>2016-04-03T09:55:51Z</time>
      </trkpt>
      <trkpt lat="44.194123344495893" lon="8.421281604096293">
        <ele>128.94999999999999</ele>
        <time>2016-04-03T09:56:03Z</time>
      </trkpt>
      <trkpt lat="44.194007590413094" lon="8.421243131160736">
        <ele>126.06999999999999</ele>
        <time>2016-04-03T09:56:15Z</time>
      </trkpt>
      <trkpt lat="44.19388085603714" lon="8.421236760914326">
        <ele>123.67</ele>
        <time>2016-04-03T09:56:28Z</time>
      </trkpt>
      <trkpt lat="44.193876078352332" lon="8.421239610761404">
        <ele>123.19</ele>
        <time>2016-04-03T09:56:29Z</time>
      </trkpt>
      <trkpt lat="44.193797875195742" lon="8.421266349032521">
        <ele>120.78</ele>
        <time>2016-04-03T09:56:39Z</time>
      </trkpt>
      <trkpt lat="44.19373425655067" lon="8.421271964907646">
        <ele>119.34</ele>
        <time>2016-04-03T09:56:47Z</time>
      </trkpt>
      <trkpt lat="44.193704919889569" lon="8.421301385387778">
        <ele>118.38</ele>
        <time>2016-04-03T09:56:50Z</time>
      </trkpt>
      <trkpt lat="44.193684132769704" lon="8.421320915222168">
        <ele>117.42</ele>
        <time>2016-04-03T09:56:52Z</time>
      </trkpt>
      <trkpt lat="44.193552201613784" lon="8.421330219134688">
        <ele>115.01000000000001</ele>
        <time>2016-04-03T09:57:05Z</time>
      </trkpt>
      <trkpt lat="44.193439800292253" lon="8.421363579109311">
        <ele>112.61</ele>
        <time>2016-04-03T09:57:16Z</time>
      </trkpt>
      <trkpt lat="44.193441728129983" lon="8.421378079801798">
        <ele>112.61</ele>
        <time>2016-04-03T09:57:33Z</time>
      </trkpt>
      <trkpt lat="44.193423623219132" lon="8.421392496675253">
        <ele>112.13</ele>
        <time>2016-04-03T09:57:36Z</time>
      </trkpt>
      <trkpt lat="44.193345503881574" lon="8.421401213854551">
        <ele>110.69</ele>
        <time>2016-04-03T09:57:42Z</time>
      </trkpt>
      <trkpt lat="44.193289931863546" lon="8.421422671526671">
        <ele>109.73</ele>
        <time>2016-04-03T09:57:53Z</time>
      </trkpt>
      <trkpt lat="44.19325347058475" lon="8.421449828892946">
        <ele>108.77</ele>
        <time>2016-04-03T09:58:03Z</time>
      </trkpt>
      <trkpt lat="44.193226983770728" lon="8.421493414789438">
        <ele>108.29000000000001</ele>
        <time>2016-04-03T09:58:12Z</time>
      </trkpt>
      <trkpt lat="44.193226313218474" lon="8.421483524143696">
        <ele>108.29000000000001</ele>
        <time>2016-04-03T09:58:26Z</time>
      </trkpt>
      <trkpt lat="44.193211477249861" lon="8.421512190252543">
        <ele>107.81</ele>
        <time>2016-04-03T09:58:36Z</time>
      </trkpt>
      <trkpt lat="44.193209884688258" lon="8.421490145847201">
        <ele>107.81</ele>
        <time>2016-04-03T09:58:48Z</time>
      </trkpt>
      <trkpt lat="44.193243496119976" lon="8.421519147232175">
        <ele>109.25</ele>
        <time>2016-04-03T09:58:59Z</time>
      </trkpt>
      <trkpt lat="44.193268977105618" lon="8.421496767550707">
        <ele>109.73</ele>
        <time>2016-04-03T09:59:08Z</time>
      </trkpt>
      <trkpt lat="44.193267803639174" lon="8.421501545235515">
        <ele>109.73</ele>
        <time>2016-04-03T09:59:23Z</time>
      </trkpt>
      <trkpt lat="44.193272162228823" lon="8.421443458646536">
        <ele>109.25</ele>
        <time>2016-04-03T09:59:33Z</time>
      </trkpt>
      <trkpt lat="44.193292697891593" lon="8.42144806869328">
        <ele>109.73</ele>
        <time>2016-04-03T09:59:44Z</time>
      </trkpt>
      <trkpt lat="44.193328572437167" lon="8.421458629891276">
        <ele>110.20999999999999</ele>
        <time>2016-04-03T10:00:05Z</time>
      </trkpt>
      <trkpt lat="44.193332176655531" lon="8.421460725367069">
        <ele>109.73</ele>
        <time>2016-04-03T10:00:18Z</time>
      </trkpt>
      <trkpt lat="44.193345084786415" lon="8.421484446153045">
        <ele>109.25</ele>
        <time>2016-04-03T10:00:31Z</time>
      </trkpt>
      <trkpt lat="44.193336451426148" lon="8.421488720923662">
        <ele>109.25</ele>
        <time>2016-04-03T10:00:47Z</time>
      </trkpt>
      <trkpt lat="44.193365201354027" lon="8.4215022996068">
        <ele>108.77</ele>
        <time>2016-04-03T10:01:09Z</time>
      </trkpt>
      <trkpt lat="44.193368135020137" lon="8.421545382589102">
        <ele>108.29000000000001</ele>
        <time>2016-04-03T10:01:17Z</time>
      </trkpt>
      <trkpt lat="44.193372912704945" lon="8.421596176922321">
        <ele>106.36</ele>
        <time>2016-04-03T10:01:26Z</time>
      </trkpt>
      <trkpt lat="44.193337373435497" lon="8.421645378693938">
        <ele>105.40000000000001</ele>
        <time>2016-04-03T10:01:36Z</time>
      </trkpt>
      <trkpt lat="44.193338127806783" lon="8.421682761982083">
        <ele>102.52</ele>
        <time>2016-04-03T10:01:46Z</time>
      </trkpt>
      <trkpt lat="44.193345671519637" lon="8.421726431697607">
        <ele>100.11</ele>
        <time>2016-04-03T10:01:54Z</time>
      </trkpt>
      <trkpt lat="44.19337023049593" lon="8.421795079484582">
        <ele>97.709999999999994</ele>
        <time>2016-04-03T10:02:04Z</time>
      </trkpt>
      <trkpt lat="44.193377187475562" lon="8.421845538541675">
        <ele>94.349999999999994</ele>
        <time>2016-04-03T10:02:14Z</time>
      </trkpt>
      <trkpt lat="44.193382803350687" lon="8.421896919608116">
        <ele>93.390000000000001</ele>
        <time>2016-04-03T10:02:26Z</time>
      </trkpt>
      <trkpt lat="44.193357992917299" lon="8.421942684799433">
        <ele>91.939999999999998</ele>
        <time>2016-04-03T10:02:38Z</time>
      </trkpt>
      <trkpt lat="44.193344665691257" lon="8.421973614022136">
        <ele>90.5</ele>
        <time>2016-04-03T10:02:51Z</time>
      </trkpt>
      <trkpt lat="44.193366123363376" lon="8.422033376991749">
        <ele>87.620000000000005</ele>
        <time>2016-04-03T10:03:00Z</time>
      </trkpt>
      <trkpt lat="44.193366039544344" lon="8.422065228223801">
        <ele>85.689999999999998</ele>
        <time>2016-04-03T10:03:05Z</time>
      </trkpt>
      <trkpt lat="44.19333117082715" lon="8.422098672017455">
        <ele>84.730000000000004</ele>
        <time>2016-04-03T10:03:20Z</time>
      </trkpt>
      <trkpt lat="44.193322286009789" lon="8.422084674239159">
        <ele>85.209999999999994</ele>
        <time>2016-04-03T10:03:42Z</time>
      </trkpt>
      <trkpt lat="44.193320944905281" lon="8.422121219336987">
        <ele>84.25</ele>
        <time>2016-04-03T10:03:53Z</time>
      </trkpt>
      <trkpt lat="44.193324465304613" lon="8.422128930687904">
        <ele>84.25</ele>
        <time>2016-04-03T10:04:15Z</time>
      </trkpt>
      <trkpt lat="44.193324046209455" lon="8.4221360553056">
        <ele>83.769999999999996</ele>
        <time>2016-04-03T10:04:32Z</time>
      </trkpt>
      <trkpt lat="44.193308120593429" lon="8.422168744727969">
        <ele>83.290000000000006</ele>
        <time>2016-04-03T10:04:46Z</time>
      </trkpt>
      <trkpt lat="44.193316753953695" lon="8.422204870730639">
        <ele>83.290000000000006</ele>
        <time>2016-04-03T10:04:56Z</time>
      </trkpt>
      <trkpt lat="44.193295128643513" lon="8.422195482999086">
        <ele>82.810000000000002</ele>
        <time>2016-04-03T10:05:06Z</time>
      </trkpt>
      <trkpt lat="44.193311640992761" lon="8.422194644808769">
        <ele>82.329999999999998</ele>
        <time>2016-04-03T10:05:20Z</time>
      </trkpt>
      <trkpt lat="44.193328572437167" lon="8.422204870730639">
        <ele>82.329999999999998</ele>
        <time>2016-04-03T10:05:35Z</time>
      </trkpt>
      <trkpt lat="44.193307450041175" lon="8.422220125794411">
        <ele>82.329999999999998</ele>
        <time>2016-04-03T10:05:44Z</time>
      </trkpt>
      <trkpt lat="44.19329839758575" lon="8.422210486605763">
        <ele>79.930000000000007</ele>
        <time>2016-04-03T10:05:53Z</time>
      </trkpt>
      <trkpt lat="44.193786978721619" lon="8.422119040042162">
        <ele>80.409999999999997</ele>
        <time>2016-04-03T10:06:08Z</time>
      </trkpt>
      <trkpt lat="44.193721599876881" lon="8.422237476333976">
        <ele>79.450000000000003</ele>
        <time>2016-04-03T10:09:40Z</time>
      </trkpt>
      <trkpt lat="44.193834336474538" lon="8.422249797731638">
        <ele>78.969999999999999</ele>
        <time>2016-04-03T10:09:56Z</time>
      </trkpt>
      <trkpt lat="44.193710954859853" lon="8.422183748334646">
        <ele>81.370000000000005</ele>
        <time>2016-04-03T10:10:07Z</time>
      </trkpt>
      <trkpt lat="44.193622106686234" lon="8.422194560989738">
        <ele>81.370000000000005</ele>
        <time>2016-04-03T10:10:21Z</time>
      </trkpt>
      <trkpt lat="44.193587908521295" lon="8.422201937064529">
        <ele>81.370000000000005</ele>
        <time>2016-04-03T10:10:41Z</time>
      </trkpt>
      <trkpt lat="44.19352269731462" lon="8.422190872952342">
        <ele>81.370000000000005</ele>
        <time>2016-04-03T10:11:00Z</time>
      </trkpt>
      <trkpt lat="44.193335194140673" lon="8.422181401401758">
        <ele>82.329999999999998</ele>
        <time>2016-04-03T10:11:16Z</time>
      </trkpt>
      <trkpt lat="44.193313820287585" lon="8.422172348946333">
        <ele>81.370000000000005</ele>
        <time>2016-04-03T10:11:34Z</time>
      </trkpt>
      <trkpt lat="44.193348856642842" lon="8.422070005908608">
        <ele>83.769999999999996</ele>
        <time>2016-04-03T10:11:49Z</time>
      </trkpt>
      <trkpt lat="44.19337953440845" lon="8.422022396698594">
        <ele>85.689999999999998</ele>
        <time>2016-04-03T10:12:02Z</time>
      </trkpt>
      <trkpt lat="44.193359417840838" lon="8.421995490789414">
        <ele>86.659999999999997</ele>
        <time>2016-04-03T10:12:15Z</time>
      </trkpt>
      <trkpt lat="44.193320693448186" lon="8.421970596536994">
        <ele>89.060000000000002</ele>
        <time>2016-04-03T10:12:27Z</time>
      </trkpt>
      <trkpt lat="44.19334826990962" lon="8.421897925436497">
        <ele>91.939999999999998</ele>
        <time>2016-04-03T10:12:38Z</time>
      </trkpt>
      <trkpt lat="44.193360842764378" lon="8.421833217144013">
        <ele>93.390000000000001</ele>
        <time>2016-04-03T10:12:52Z</time>
      </trkpt>
      <trkpt lat="44.193341312929988" lon="8.42182626016438">
        <ele>93.870000000000005</ele>
        <time>2016-04-03T10:13:11Z</time>
      </trkpt>
      <trkpt lat="44.193342318758368" lon="8.42177789658308">
        <ele>95.310000000000002</ele>
        <time>2016-04-03T10:13:21Z</time>
      </trkpt>
      <trkpt lat="44.193345420062542" lon="8.42176272533834">
        <ele>95.790000000000006</ele>
        <time>2016-04-03T10:13:33Z</time>
      </trkpt>
      <trkpt lat="44.193336954340339" lon="8.421737747266889">
        <ele>97.709999999999994</ele>
        <time>2016-04-03T10:13:48Z</time>
      </trkpt>
      <trkpt lat="44.193322956562042" lon="8.421662310138345">
        <ele>100.11</ele>
        <time>2016-04-03T10:14:00Z</time>
      </trkpt>
      <trkpt lat="44.193340474739671" lon="8.421646216884255">
        <ele>101.08</ele>
        <time>2016-04-03T10:14:14Z</time>
      </trkpt>
      <trkpt lat="44.193354304879904" lon="8.421649234369397">
        <ele>101.08</ele>
        <time>2016-04-03T10:14:37Z</time>
      </trkpt>
      <trkpt lat="44.193328823894262" lon="8.421649318188429">
        <ele>102.52</ele>
        <time>2016-04-03T10:14:51Z</time>
      </trkpt>
      <trkpt lat="44.193308958783746" lon="8.42162593267858">
        <ele>103.48</ele>
        <time>2016-04-03T10:15:00Z</time>
      </trkpt>
      <trkpt lat="44.193322788923979" lon="8.421580670401454">
        <ele>105.88</ele>
        <time>2016-04-03T10:15:13Z</time>
      </trkpt>
      <trkpt lat="44.193317759782076" lon="8.42153406701982">
        <ele>107.31999999999999</ele>
        <time>2016-04-03T10:15:26Z</time>
      </trkpt>
      <trkpt lat="44.193338211625814" lon="8.421464916318655">
        <ele>109.25</ele>
        <time>2016-04-03T10:15:39Z</time>
      </trkpt>
      <trkpt lat="44.193333266302943" lon="8.421395849436522">
        <ele>110.69</ele>
        <time>2016-04-03T10:15:49Z</time>
      </trkpt>
      <trkpt lat="44.193417001515627" lon="8.421406662091613">
        <ele>112.13</ele>
        <time>2016-04-03T10:16:00Z</time>
      </trkpt>
      <trkpt lat="44.193518590182066" lon="8.421367099508643">
        <ele>115.01000000000001</ele>
        <time>2016-04-03T10:16:13Z</time>
      </trkpt>
      <trkpt lat="44.193604756146669" lon="8.42134103178978">
        <ele>116.94</ele>
        <time>2016-04-03T10:16:24Z</time>
      </trkpt>
      <trkpt lat="44.193707602098584" lon="8.421304067596793">
        <ele>119.34</ele>
        <time>2016-04-03T10:16:38Z</time>
      </trkpt>
      <trkpt lat="44.193745236843824" lon="8.421309515833855">
        <ele>119.81999999999999</ele>
        <time>2016-04-03T10:16:51Z</time>
      </trkpt>
      <trkpt lat="44.193810615688562" lon="8.421282107010484">
        <ele>121.26000000000001</ele>
        <time>2016-04-03T10:17:05Z</time>
      </trkpt>
      <trkpt lat="44.193862164393067" lon="8.421265929937363">
        <ele>122.70999999999999</ele>
        <time>2016-04-03T10:17:16Z</time>
      </trkpt>
      <trkpt lat="44.19387741945684" lon="8.421245897188783">
        <ele>123.19</ele>
        <time>2016-04-03T10:17:27Z</time>
      </trkpt>
      <trkpt lat="44.193887477740645" lon="8.421269115060568">
        <ele>122.70999999999999</ele>
        <time>2016-04-03T10:17:41Z</time>
      </trkpt>
      <trkpt lat="44.193928632885218" lon="8.421292500570417">
        <ele>124.15000000000001</ele>
        <time>2016-04-03T10:17:52Z</time>
      </trkpt>
      <trkpt lat="44.194003650918603" lon="8.42130926437676">
        <ele>126.06999999999999</ele>
        <time>2016-04-03T10:18:03Z</time>
      </trkpt>
      <trkpt lat="44.194034747779369" lon="8.421332482248545">
        <ele>127.51000000000001</ele>
        <time>2016-04-03T10:18:07Z</time>
      </trkpt>
      <trkpt lat="44.194132229313254" lon="8.421344216912985">
        <ele>129.91999999999999</ele>
        <time>2016-04-03T10:18:19Z</time>
      </trkpt>
      <trkpt lat="44.194179838523269" lon="8.421351592987776">
        <ele>130.88</ele>
        <time>2016-04-03T10:18:24Z</time>
      </trkpt>
      <trkpt lat="44.194274554029107" lon="8.421440608799458">
        <ele>132.80000000000001</ele>
        <time>2016-04-03T10:18:36Z</time>
      </trkpt>
      <trkpt lat="44.19435141608119" lon="8.421558877453208">
        <ele>135.19999999999999</ele>
        <time>2016-04-03T10:18:49Z</time>
      </trkpt>
      <trkpt lat="44.194421824067831" lon="8.42165325768292">
        <ele>137.13</ele>
        <time>2016-04-03T10:19:01Z</time>
      </trkpt>
      <trkpt lat="44.194461973384023" lon="8.421722073107958">
        <ele>138.56999999999999</ele>
        <time>2016-04-03T10:19:11Z</time>
      </trkpt>
      <trkpt lat="44.194486197084188" lon="8.421785105019808">
        <ele>140.49000000000001</ele>
        <time>2016-04-03T10:19:22Z</time>
      </trkpt>
      <trkpt lat="44.194530704990029" lon="8.421809999272227">
        <ele>142.41</ele>
        <time>2016-04-03T10:19:33Z</time>
      </trkpt>
      <trkpt lat="44.194558365270495" lon="8.421807568520308">
        <ele>143.84999999999999</ele>
        <time>2016-04-03T10:19:44Z</time>
      </trkpt>
      <trkpt lat="44.19455417431891" lon="8.421812849119306">
        <ele>143.84999999999999</ele>
        <time>2016-04-03T10:19:58Z</time>
      </trkpt>
      <trkpt lat="44.194554258137941" lon="8.421805892139673">
        <ele>143.84999999999999</ele>
        <time>2016-04-03T10:20:10Z</time>
      </trkpt>
      <trkpt lat="44.194553000852466" lon="8.421802958473563">
        <ele>143.84999999999999</ele>
        <time>2016-04-03T10:20:26Z</time>
      </trkpt>
      <trkpt lat="44.194562304764986" lon="8.421834977343679">
        <ele>143.84999999999999</ele>
        <time>2016-04-03T10:20:39Z</time>
      </trkpt>
      <trkpt lat="44.194570686668158" lon="8.421816537156701">
        <ele>144.34</ele>
        <time>2016-04-03T10:20:50Z</time>
      </trkpt>
      <trkpt lat="44.194574877619743" lon="8.421799102798104">
        <ele>144.34</ele>
        <time>2016-04-03T10:20:58Z</time>
      </trkpt>
      <trkpt lat="44.194569764658809" lon="8.421791307628155">
        <ele>144.81999999999999</ele>
        <time>2016-04-03T10:21:13Z</time>
      </trkpt>
      <trkpt lat="44.194561215117574" lon="8.421796504408121">
        <ele>144.34</ele>
        <time>2016-04-03T10:21:30Z</time>
      </trkpt>
      <trkpt lat="44.194567333906889" lon="8.421809999272227">
        <ele>144.81999999999999</ele>
        <time>2016-04-03T10:21:46Z</time>
      </trkpt>
      <trkpt lat="44.1946030408144" lon="8.421786278486252">
        <ele>144.81999999999999</ele>
        <time>2016-04-03T10:22:00Z</time>
      </trkpt>
      <trkpt lat="44.194684848189354" lon="8.42185702174902">
        <ele>146.74000000000001</ele>
        <time>2016-04-03T10:22:11Z</time>
      </trkpt>
      <trkpt lat="44.194744946435094" lon="8.421896081417799">
        <ele>147.69999999999999</ele>
        <time>2016-04-03T10:22:22Z</time>
      </trkpt>
      <trkpt lat="44.194819210097194" lon="8.421939667314291">
        <ele>148.66</ele>
        <time>2016-04-03T10:22:36Z</time>
      </trkpt>
      <trkpt lat="44.194906800985336" lon="8.421985516324639">
        <ele>149.62</ele>
        <time>2016-04-03T10:22:46Z</time>
      </trkpt>
      <trkpt lat="44.195009060204029" lon="8.421999095007777">
        <ele>150.58000000000001</ele>
        <time>2016-04-03T10:22:59Z</time>
      </trkpt>
      <trkpt lat="44.195089777931571" lon="8.422033963724971">
        <ele>151.53999999999999</ele>
        <time>2016-04-03T10:23:10Z</time>
      </trkpt>
      <trkpt lat="44.195164460688829" lon="8.422062294557691">
        <ele>152.50999999999999</ele>
        <time>2016-04-03T10:23:22Z</time>
      </trkpt>
      <trkpt lat="44.195252554491162" lon="8.422103701159358">
        <ele>153.47</ele>
        <time>2016-04-03T10:23:35Z</time>
      </trkpt>
      <trkpt lat="44.195333356037736" lon="8.422137564048171">
        <ele>154.43000000000001</ele>
        <time>2016-04-03T10:23:47Z</time>
      </trkpt>
      <trkpt lat="44.195401752367616" lon="8.422167906537652">
        <ele>154.91</ele>
        <time>2016-04-03T10:23:57Z</time>
      </trkpt>
      <trkpt lat="44.195468220859766" lon="8.422194058075547">
        <ele>155.87</ele>
        <time>2016-04-03T10:24:08Z</time>
      </trkpt>
      <trkpt lat="44.195538712665439" lon="8.422227082774043">
        <ele>156.34999999999999</ele>
        <time>2016-04-03T10:24:20Z</time>
      </trkpt>
      <trkpt lat="44.195611719042063" lon="8.422270752489567">
        <ele>157.31</ele>
        <time>2016-04-03T10:24:30Z</time>
      </trkpt>
      <trkpt lat="44.195700902491808" lon="8.422316182404757">
        <ele>158.27000000000001</ele>
        <time>2016-04-03T10:24:42Z</time>
      </trkpt>
      <trkpt lat="44.195744320750237" lon="8.422337975353003">
        <ele>158.75</ele>
        <time>2016-04-03T10:24:54Z</time>
      </trkpt>
      <trkpt lat="44.195774830877781" lon="8.422349207103252">
        <ele>159.24000000000001</ele>
        <time>2016-04-03T10:25:03Z</time>
      </trkpt>
      <trkpt lat="44.195883627980947" lon="8.422270081937313">
        <ele>160.19999999999999</ele>
        <time>2016-04-03T10:25:15Z</time>
      </trkpt>
      <trkpt lat="44.195888824760914" lon="8.422259353101254">
        <ele>160.19999999999999</ele>
        <time>2016-04-03T10:25:16Z</time>
      </trkpt>
      <trkpt lat="44.195977505296469" lon="8.422132283449173">
        <ele>160.19999999999999</ele>
        <time>2016-04-03T10:25:30Z</time>
      </trkpt>
      <trkpt lat="44.196019750088453" lon="8.421994652599096">
        <ele>160.19999999999999</ele>
        <time>2016-04-03T10:25:43Z</time>
      </trkpt>
      <trkpt lat="44.195979600772262" lon="8.421853333711624">
        <ele>160.19999999999999</ele>
        <time>2016-04-03T10:25:57Z</time>
      </trkpt>
      <trkpt lat="44.195949258282781" lon="8.421804467216134">
        <ele>164.03999999999999</ele>
        <time>2016-04-03T10:26:03Z</time>
      </trkpt>
      <trkpt lat="44.195944899693131" lon="8.421797761693597">
        <ele>164.03999999999999</ele>
        <time>2016-04-03T10:26:04Z</time>
      </trkpt>
      <trkpt lat="44.195896619930863" lon="8.421736992895603">
        <ele>165.47999999999999</ele>
        <time>2016-04-03T10:26:14Z</time>
      </trkpt>
      <trkpt lat="44.195829145610332" lon="8.421609001234174">
        <ele>166.93000000000001</ele>
        <time>2016-04-03T10:26:26Z</time>
      </trkpt>
      <trkpt lat="44.195815566927195" lon="8.421468771994114">
        <ele>167.88999999999999</ele>
        <time>2016-04-03T10:26:38Z</time>
      </trkpt>
      <trkpt lat="44.195812465623021" lon="8.421377493068576">
        <ele>168.37</ele>
        <time>2016-04-03T10:26:47Z</time>
      </trkpt>
      <trkpt lat="44.195821601897478" lon="8.421236090362072">
        <ele>168.84999999999999</ele>
        <time>2016-04-03T10:27:00Z</time>
      </trkpt>
      <trkpt lat="44.195835599675775" lon="8.421101309359074">
        <ele>169.33000000000001</ele>
        <time>2016-04-03T10:27:12Z</time>
      </trkpt>
      <trkpt lat="44.195860242471099" lon="8.420963929966092">
        <ele>170.28999999999999</ele>
        <time>2016-04-03T10:27:24Z</time>
      </trkpt>
      <trkpt lat="44.195870300754905" lon="8.420793693512678">
        <ele>171.72999999999999</ele>
        <time>2016-04-03T10:27:38Z</time>
      </trkpt>
      <trkpt lat="44.195865020155907" lon="8.420649524778128">
        <ele>172.21000000000001</ele>
        <time>2016-04-03T10:27:49Z</time>
      </trkpt>
      <trkpt lat="44.195838281884789" lon="8.420476941391826">
        <ele>173.16999999999999</ele>
        <time>2016-04-03T10:28:03Z</time>
      </trkpt>
      <trkpt lat="44.195806179195642" lon="8.42038725502789">
        <ele>173.66</ele>
        <time>2016-04-03T10:28:13Z</time>
      </trkpt>
      <trkpt lat="44.195742812007666" lon="8.420282816514373">
        <ele>174.62</ele>
        <time>2016-04-03T10:28:25Z</time>
      </trkpt>
      <trkpt lat="44.195674918591976" lon="8.420203188434243">
        <ele>176.53999999999999</ele>
        <time>2016-04-03T10:28:36Z</time>
      </trkpt>
      <trkpt lat="44.195618340745568" lon="8.420139821246266">
        <ele>177.02000000000001</ele>
        <time>2016-04-03T10:28:46Z</time>
      </trkpt>
      <trkpt lat="44.195564780384302" lon="8.420158261433244">
        <ele>178.46000000000001</ele>
        <time>2016-04-03T10:28:56Z</time>
      </trkpt>
      <trkpt lat="44.195604594424367" lon="8.42024358920753">
        <ele>178.94</ele>
        <time>2016-04-03T10:29:06Z</time>
      </trkpt>
      <trkpt lat="44.195658909156919" lon="8.420353140681982">
        <ele>180.38</ele>
        <time>2016-04-03T10:29:18Z</time>
      </trkpt>
      <trkpt lat="44.195693861693144" lon="8.420492867007852">
        <ele>181.83000000000001</ele>
        <time>2016-04-03T10:29:32Z</time>
      </trkpt>
      <trkpt lat="44.195665949955583" lon="8.420619936659932">
        <ele>182.78999999999999</ele>
        <time>2016-04-03T10:29:45Z</time>
      </trkpt>
      <trkpt lat="44.195648934692144" lon="8.42067408375442">
        <ele>183.27000000000001</ele>
        <time>2016-04-03T10:29:50Z</time>
      </trkpt>
      <trkpt lat="44.195629488676786" lon="8.420753544196487">
        <ele>184.22999999999999</ele>
        <time>2016-04-03T10:29:58Z</time>
      </trkpt>
      <trkpt lat="44.195588920265436" lon="8.420885307714343">
        <ele>185.19</ele>
        <time>2016-04-03T10:30:10Z</time>
      </trkpt>
      <trkpt lat="44.195548100396991" lon="8.420999301597476">
        <ele>186.15000000000001</ele>
        <time>2016-04-03T10:30:21Z</time>
      </trkpt>
      <trkpt lat="44.195491774007678" lon="8.421107260510325">
        <ele>187.59</ele>
        <time>2016-04-03T10:30:33Z</time>
      </trkpt>
      <trkpt lat="44.195432094857097" lon="8.421227959915996">
        <ele>189.03999999999999</ele>
        <time>2016-04-03T10:30:45Z</time>
      </trkpt>
      <trkpt lat="44.195389347150922" lon="8.42133373953402">
        <ele>190</ele>
        <time>2016-04-03T10:30:56Z</time>
      </trkpt>
      <trkpt lat="44.195313071832061" lon="8.421295350417495">
        <ele>190.96000000000001</ele>
        <time>2016-04-03T10:31:07Z</time>
      </trkpt>
      <trkpt lat="44.195338301360607" lon="8.421165011823177">
        <ele>191.91999999999999</ele>
        <time>2016-04-03T10:31:19Z</time>
      </trkpt>
      <trkpt lat="44.19537560082972" lon="8.421050431206822">
        <ele>192.40000000000001</ele>
        <time>2016-04-03T10:31:30Z</time>
      </trkpt>
      <trkpt lat="44.195403680205345" lon="8.420885056257248">
        <ele>192.88</ele>
        <time>2016-04-03T10:31:44Z</time>
      </trkpt>
      <trkpt lat="44.195411475375295" lon="8.42073124833405">
        <ele>193.84</ele>
        <time>2016-04-03T10:31:56Z</time>
      </trkpt>
      <trkpt lat="44.195394543930888" lon="8.420577021315694">
        <ele>194.80000000000001</ele>
        <time>2016-04-03T10:32:10Z</time>
      </trkpt>
      <trkpt lat="44.19535112567246" lon="8.420467721298337">
        <ele>195.77000000000001</ele>
        <time>2016-04-03T10:32:22Z</time>
      </trkpt>
      <trkpt lat="44.195290524512529" lon="8.420356577262282">
        <ele>196.72999999999999</ele>
        <time>2016-04-03T10:32:33Z</time>
      </trkpt>
      <trkpt lat="44.195237550884485" lon="8.42024945653975">
        <ele>197.69</ele>
        <time>2016-04-03T10:32:45Z</time>
      </trkpt>
      <trkpt lat="44.19519773684442" lon="8.420133618637919">
        <ele>198.65000000000001</ele>
        <time>2016-04-03T10:32:57Z</time>
      </trkpt>
      <trkpt lat="44.195173680782318" lon="8.42006279155612">
        <ele>199.13</ele>
        <time>2016-04-03T10:33:08Z</time>
      </trkpt>
      <trkpt lat="44.195189606398344" lon="8.420047871768475">
        <ele>199.13</ele>
        <time>2016-04-03T10:33:23Z</time>
      </trkpt>
      <trkpt lat="44.19518893584609" lon="8.42002909630537">
        <ele>199.13</ele>
        <time>2016-04-03T10:33:34Z</time>
      </trkpt>
      <trkpt lat="44.195201760157943" lon="8.420016942545772">
        <ele>199.61000000000001</ele>
        <time>2016-04-03T10:33:45Z</time>
      </trkpt>
      <trkpt lat="44.195191785693169" lon="8.420015349984169">
        <ele>199.61000000000001</ele>
        <time>2016-04-03T10:34:03Z</time>
      </trkpt>
      <trkpt lat="44.195168232545257" lon="8.420012835413218">
        <ele>200.09</ele>
        <time>2016-04-03T10:34:12Z</time>
      </trkpt>
      <trkpt lat="44.19511953368783" lon="8.41996455565095">
        <ele>201.05000000000001</ele>
        <time>2016-04-03T10:34:23Z</time>
      </trkpt>
      <trkpt lat="44.195078630000353" lon="8.4199308604002">
        <ele>201.05000000000001</ele>
        <time>2016-04-03T10:34:28Z</time>
      </trkpt>
      <trkpt lat="44.195004031062126" lon="8.419872773811221">
        <ele>201.53</ele>
        <time>2016-04-03T10:34:38Z</time>
      </trkpt>
      <trkpt lat="44.19495583511889" lon="8.419797839596868">
        <ele>202.49000000000001</ele>
        <time>2016-04-03T10:34:48Z</time>
      </trkpt>
      <trkpt lat="44.194980226457119" lon="8.419793732464314">
        <ele>201.53</ele>
        <time>2016-04-03T10:35:11Z</time>
      </trkpt>
      <trkpt lat="44.194962121546268" lon="8.419808316975832">
        <ele>202.49000000000001</ele>
        <time>2016-04-03T10:35:27Z</time>
      </trkpt>
      <trkpt lat="44.194966061040759" lon="8.419809406623244">
        <ele>202.49000000000001</ele>
        <time>2016-04-03T10:35:47Z</time>
      </trkpt>
      <trkpt lat="44.194971425458789" lon="8.41979113407433">
        <ele>202.49000000000001</ele>
        <time>2016-04-03T10:35:59Z</time>
      </trkpt>
      <trkpt lat="44.194889534264803" lon="8.419772610068321">
        <ele>202.97999999999999</ele>
        <time>2016-04-03T10:36:11Z</time>
      </trkpt>
      <trkpt lat="44.194792220368981" lon="8.419710248708725">
        <ele>204.41999999999999</ele>
        <time>2016-04-03T10:36:22Z</time>
      </trkpt>
      <trkpt lat="44.194711502641439" lon="8.41963917016983">
        <ele>205.38</ele>
        <time>2016-04-03T10:36:33Z</time>
      </trkpt>
      <trkpt lat="44.194633467122912" lon="8.419543784111738">
        <ele>206.81999999999999</ele>
        <time>2016-04-03T10:36:44Z</time>
      </trkpt>
      <trkpt lat="44.194589713588357" lon="8.419418474659324">
        <ele>208.74000000000001</ele>
        <time>2016-04-03T10:36:56Z</time>
      </trkpt>
      <trkpt lat="44.194543529301882" lon="8.41928101144731">
        <ele>210.19</ele>
        <time>2016-04-03T10:37:09Z</time>
      </trkpt>
      <trkpt lat="44.194534393027425" lon="8.419152684509754">
        <ele>211.15000000000001</ele>
        <time>2016-04-03T10:37:18Z</time>
      </trkpt>
      <trkpt lat="44.194523831829429" lon="8.418989153578877">
        <ele>212.59</ele>
        <time>2016-04-03T10:37:30Z</time>
      </trkpt>
      <trkpt lat="44.194525508210063" lon="8.41897364705801">
        <ele>212.59</ele>
        <time>2016-04-03T10:37:31Z</time>
      </trkpt>
      <trkpt lat="44.194530704990029" lon="8.41894238255918">
        <ele>212.59</ele>
        <time>2016-04-03T10:37:33Z</time>
      </trkpt>
      <trkpt lat="44.1945322137326" lon="8.418814223259687">
        <ele>214.03</ele>
        <time>2016-04-03T10:37:42Z</time>
      </trkpt>
      <trkpt lat="44.194552581757307" lon="8.418636862188578">
        <ele>215.47</ele>
        <time>2016-04-03T10:37:55Z</time>
      </trkpt>
      <trkpt lat="44.194572614505887" lon="8.418490514159203">
        <ele>216.43000000000001</ele>
        <time>2016-04-03T10:38:06Z</time>
      </trkpt>
      <trkpt lat="44.19461184181273" lon="8.418322540819645">
        <ele>217.88</ele>
        <time>2016-04-03T10:38:18Z</time>
      </trkpt>
      <trkpt lat="44.194629359990358" lon="8.418199410662055">
        <ele>218.36000000000001</ele>
        <time>2016-04-03T10:38:27Z</time>
      </trkpt>
      <trkpt lat="44.19464411213994" lon="8.418158674612641">
        <ele>219.31999999999999</ele>
        <time>2016-04-03T10:38:31Z</time>
      </trkpt>
      <trkpt lat="44.194669425487518" lon="8.418050548061729">
        <ele>219.80000000000001</ele>
        <time>2016-04-03T10:38:40Z</time>
      </trkpt>
      <trkpt lat="44.194674622267485" lon="8.417999166995287">
        <ele>220.28</ele>
        <time>2016-04-03T10:38:44Z</time>
      </trkpt>
      <trkpt lat="44.1946807410568" lon="8.417849466204643">
        <ele>221.24000000000001</ele>
        <time>2016-04-03T10:38:55Z</time>
      </trkpt>
      <trkpt lat="44.194700019434094" lon="8.417702782899141">
        <ele>222.19999999999999</ele>
        <time>2016-04-03T10:39:05Z</time>
      </trkpt>
      <trkpt lat="44.194695493206382" lon="8.417672188952565">
        <ele>222.68000000000001</ele>
        <time>2016-04-03T10:39:07Z</time>
      </trkpt>
      <trkpt lat="44.194693900644779" lon="8.41749407351017">
        <ele>223.63999999999999</ele>
        <time>2016-04-03T10:39:20Z</time>
      </trkpt>
      <trkpt lat="44.194684848189354" lon="8.417356191202998">
        <ele>225.09</ele>
        <time>2016-04-03T10:39:30Z</time>
      </trkpt>
      <trkpt lat="44.19464117847383" lon="8.417167430743575">
        <ele>226.53</ele>
        <time>2016-04-03T10:39:43Z</time>
      </trkpt>
      <trkpt lat="44.194609494879842" lon="8.417053101584315">
        <ele>227.49000000000001</ele>
        <time>2016-04-03T10:39:53Z</time>
      </trkpt>
      <trkpt lat="44.194581834599376" lon="8.416961655020714">
        <ele>228.44999999999999</ele>
        <time>2016-04-03T10:40:00Z</time>
      </trkpt>
      <trkpt lat="44.194530704990029" lon="8.416794100776315">
        <ele>229.41</ele>
        <time>2016-04-03T10:40:12Z</time>
      </trkpt>
      <trkpt lat="44.194483514875174" lon="8.416641550138593">
        <ele>230.84999999999999</ele>
        <time>2016-04-03T10:40:25Z</time>
      </trkpt>
      <trkpt lat="44.194425260648131" lon="8.416469804942608">
        <ele>231.81</ele>
        <time>2016-04-03T10:40:38Z</time>
      </trkpt>
      <trkpt lat="44.194358959794044" lon="8.416264867410064">
        <ele>233.74000000000001</ele>
        <time>2016-04-03T10:40:53Z</time>
      </trkpt>
      <trkpt lat="44.194344123825431" lon="8.416194459423423">
        <ele>233.74000000000001</ele>
        <time>2016-04-03T10:41:04Z</time>
      </trkpt>
      <trkpt lat="44.194340687245131" lon="8.416172163560987">
        <ele>234.22</ele>
        <time>2016-04-03T10:41:17Z</time>
      </trkpt>
      <trkpt lat="44.194319983944297" lon="8.416055906563997">
        <ele>235.66</ele>
        <time>2016-04-03T10:41:29Z</time>
      </trkpt>
      <trkpt lat="44.194276984781027" lon="8.415895728394389">
        <ele>237.09999999999999</ele>
        <time>2016-04-03T10:41:41Z</time>
      </trkpt>
      <trkpt lat="44.194236164912581" lon="8.415736304596067">
        <ele>239.02000000000001</ele>
        <time>2016-04-03T10:41:53Z</time>
      </trkpt>
      <trkpt lat="44.194226861000061" lon="8.415598338469863">
        <ele>240.47</ele>
        <time>2016-04-03T10:42:04Z</time>
      </trkpt>
      <trkpt lat="44.194170283153653" lon="8.415578808635473">
        <ele>241.91</ele>
        <time>2016-04-03T10:42:15Z</time>
      </trkpt>
      <trkpt lat="44.194160224869847" lon="8.415604960173369">
        <ele>241.91</ele>
        <time>2016-04-03T10:42:18Z</time>
      </trkpt>
      <trkpt lat="44.194147987291217" lon="8.415617365390062">
        <ele>242.38999999999999</ele>
        <time>2016-04-03T10:42:20Z</time>
      </trkpt>
      <trkpt lat="44.19414765201509" lon="8.41564561240375">
        <ele>242.38999999999999</ele>
        <time>2016-04-03T10:42:22Z</time>
      </trkpt>
      <trkpt lat="44.194152178242803" lon="8.415677966549993">
        <ele>242.87</ele>
        <time>2016-04-03T10:42:24Z</time>
      </trkpt>
      <trkpt lat="44.19414279051125" lon="8.415880808606744">
        <ele>243.83000000000001</ele>
        <time>2016-04-03T10:42:37Z</time>
      </trkpt>
      <trkpt lat="44.194139018654823" lon="8.415934788063169">
        <ele>243.83000000000001</ele>
        <time>2016-04-03T10:42:41Z</time>
      </trkpt>
      <trkpt lat="44.194128625094891" lon="8.416139977052808">
        <ele>245.27000000000001</ele>
        <time>2016-04-03T10:42:55Z</time>
      </trkpt>
      <trkpt lat="44.194131810218096" lon="8.416326558217406">
        <ele>246.22999999999999</ele>
        <time>2016-04-03T10:43:07Z</time>
      </trkpt>
      <trkpt lat="44.194135833531618" lon="8.416535686701536">
        <ele>247.68000000000001</ele>
        <time>2016-04-03T10:43:19Z</time>
      </trkpt>
      <trkpt lat="44.194137677550316" lon="8.416590420529246">
        <ele>247.68000000000001</ele>
        <time>2016-04-03T10:43:23Z</time>
      </trkpt>
      <trkpt lat="44.194138012826443" lon="8.416751604527235">
        <ele>249.12</ele>
        <time>2016-04-03T10:43:33Z</time>
      </trkpt>
      <trkpt lat="44.194143209606409" lon="8.416846739128232">
        <ele>249.59999999999999</ele>
        <time>2016-04-03T10:43:38Z</time>
      </trkpt>
      <trkpt lat="44.194154944270849" lon="8.416993254795671">
        <ele>250.56</ele>
        <time>2016-04-03T10:43:47Z</time>
      </trkpt>
      <trkpt lat="44.194166595116258" lon="8.41717941686511">
        <ele>252</ele>
        <time>2016-04-03T10:43:59Z</time>
      </trkpt>
      <trkpt lat="44.194172881543636" lon="8.417348815128207">
        <ele>252.96000000000001</ele>
        <time>2016-04-03T10:44:10Z</time>
      </trkpt>
      <trkpt lat="44.19417061842978" lon="8.417525338009">
        <ele>253.44</ele>
        <time>2016-04-03T10:44:21Z</time>
      </trkpt>
      <trkpt lat="44.194127535447478" lon="8.417663220316172">
        <ele>254.88999999999999</ele>
        <time>2016-04-03T10:44:32Z</time>
      </trkpt>
      <trkpt lat="44.194084703922272" lon="8.41780043207109">
        <ele>256.32999999999998</ele>
        <time>2016-04-03T10:44:43Z</time>
      </trkpt>
      <trkpt lat="44.194057798013091" lon="8.417858351022005">
        <ele>256.81</ele>
        <time>2016-04-03T10:44:53Z</time>
      </trkpt>
      <trkpt lat="44.194057378917933" lon="8.417857931926847">
        <ele>256.81</ele>
        <time>2016-04-03T10:44:54Z</time>
      </trkpt>
      <trkpt lat="44.194065844640136" lon="8.417866230010986">
        <ele>256.81</ele>
        <time>2016-04-03T10:45:10Z</time>
      </trkpt>
      <trkpt lat="44.194067688658834" lon="8.41787570156157">
        <ele>256.81</ele>
        <time>2016-04-03T10:45:27Z</time>
      </trkpt>
      <trkpt lat="44.194077495485544" lon="8.417888525873423">
        <ele>256.81</ele>
        <time>2016-04-03T10:45:43Z</time>
      </trkpt>
      <trkpt lat="44.19409585185349" lon="8.417896321043372">
        <ele>256.32999999999998</ele>
        <time>2016-04-03T10:45:49Z</time>
      </trkpt>
      <trkpt lat="44.194117728620768" lon="8.417956586927176">
        <ele>252.96000000000001</ele>
        <time>2016-04-03T10:45:59Z</time>
      </trkpt>
      <trkpt lat="44.194097109138966" lon="8.418079633265734">
        <ele>252.47999999999999</ele>
        <time>2016-04-03T10:46:11Z</time>
      </trkpt>
      <trkpt lat="44.194046063348651" lon="8.418162362650037">
        <ele>253.44</ele>
        <time>2016-04-03T10:46:23Z</time>
      </trkpt>
      <trkpt lat="44.194067856296897" lon="8.418203433975577">
        <ele>251.52000000000001</ele>
        <time>2016-04-03T10:46:35Z</time>
      </trkpt>
      <trkpt lat="44.194073807448149" lon="8.418215001001954">
        <ele>251.03999999999999</ele>
        <time>2016-04-03T10:46:37Z</time>
      </trkpt>
      <trkpt lat="44.194075986742973" lon="8.418259592726827">
        <ele>248.63999999999999</ele>
        <time>2016-04-03T10:46:41Z</time>
      </trkpt>
      <trkpt lat="44.194022761657834" lon="8.418325474485755">
        <ele>250.56</ele>
        <time>2016-04-03T10:46:52Z</time>
      </trkpt>
      <trkpt lat="44.193994430825114" lon="8.418348357081413">
        <ele>252.47999999999999</ele>
        <time>2016-04-03T10:47:02Z</time>
      </trkpt>
      <trkpt lat="44.193986970931292" lon="8.418404012918472">
        <ele>252.96000000000001</ele>
        <time>2016-04-03T10:47:12Z</time>
      </trkpt>
      <trkpt lat="44.193938188254833" lon="8.418444497510791">
        <ele>254.88999999999999</ele>
        <time>2016-04-03T10:47:22Z</time>
      </trkpt>
      <trkpt lat="44.193888148292899" lon="8.41848355717957">
        <ele>257.76999999999998</ele>
        <time>2016-04-03T10:47:34Z</time>
      </trkpt>
      <trkpt lat="44.193906001746655" lon="8.418559161946178">
        <ele>257.29000000000002</ele>
        <time>2016-04-03T10:47:45Z</time>
      </trkpt>
      <trkpt lat="44.193906504660845" lon="8.418640131130815">
        <ele>256.32999999999998</ele>
        <time>2016-04-03T10:47:55Z</time>
      </trkpt>
      <trkpt lat="44.193888651207089" lon="8.418692266568542">
        <ele>255.84999999999999</ele>
        <time>2016-04-03T10:48:07Z</time>
      </trkpt>
      <trkpt lat="44.193887058645487" lon="8.418794944882393">
        <ele>255.37</ele>
        <time>2016-04-03T10:48:18Z</time>
      </trkpt>
      <trkpt lat="44.193895272910595" lon="8.41883534565568">
        <ele>255.37</ele>
        <time>2016-04-03T10:48:22Z</time>
      </trkpt>
      <trkpt lat="44.193890411406755" lon="8.418965432792902">
        <ele>255.37</ele>
        <time>2016-04-03T10:48:33Z</time>
      </trkpt>
      <trkpt lat="44.193879682570696" lon="8.419056041166186">
        <ele>255.37</ele>
        <time>2016-04-03T10:48:44Z</time>
      </trkpt>
      <trkpt lat="44.193881275132298" lon="8.419175818562508">
        <ele>254.88999999999999</ele>
        <time>2016-04-03T10:48:57Z</time>
      </trkpt>
      <trkpt lat="44.193858643993735" lon="8.419282101094723">
        <ele>256.81</ele>
        <time>2016-04-03T10:49:08Z</time>
      </trkpt>
      <trkpt lat="44.193847076967359" lon="8.419392742216587">
        <ele>255.84999999999999</ele>
        <time>2016-04-03T10:49:21Z</time>
      </trkpt>
      <trkpt lat="44.19384079053998" lon="8.419486954808235">
        <ele>255.84999999999999</ele>
        <time>2016-04-03T10:49:34Z</time>
      </trkpt>
      <trkpt lat="44.193832408636808" lon="8.419561218470335">
        <ele>256.32999999999998</ele>
        <time>2016-04-03T10:49:44Z</time>
      </trkpt>
      <trkpt lat="44.193844981491566" lon="8.419659370556474">
        <ele>257.76999999999998</ele>
        <time>2016-04-03T10:49:55Z</time>
      </trkpt>
      <trkpt lat="44.193862499669194" lon="8.419741513207555">
        <ele>257.76999999999998</ele>
        <time>2016-04-03T10:50:06Z</time>
      </trkpt>
      <trkpt lat="44.193873982876539" lon="8.419788032770157">
        <ele>257.76999999999998</ele>
        <time>2016-04-03T10:50:20Z</time>
      </trkpt>
      <trkpt lat="44.193875240162015" lon="8.419801695272327">
        <ele>257.29000000000002</ele>
        <time>2016-04-03T10:50:21Z</time>
      </trkpt>
      <trkpt lat="44.193862499669194" lon="8.419826840981841">
        <ele>258.25</ele>
        <time>2016-04-03T10:50:24Z</time>
      </trkpt>
      <trkpt lat="44.193868367001414" lon="8.419881658628583">
        <ele>260.17000000000002</ele>
        <time>2016-04-03T10:50:33Z</time>
      </trkpt>
      <trkpt lat="44.193891752511263" lon="8.419912504032254">
        <ele>261.13999999999999</ele>
        <time>2016-04-03T10:50:41Z</time>
      </trkpt>
      <trkpt lat="44.193905247375369" lon="8.419972937554121">
        <ele>261.13999999999999</ele>
        <time>2016-04-03T10:50:51Z</time>
      </trkpt>
      <trkpt lat="44.193900553509593" lon="8.419973943382502">
        <ele>262.10000000000002</ele>
        <time>2016-04-03T10:51:03Z</time>
      </trkpt>
      <trkpt lat="44.19391212053597" lon="8.42000219039619">
        <ele>262.10000000000002</ele>
        <time>2016-04-03T10:51:17Z</time>
      </trkpt>
      <trkpt lat="44.193896111100912" lon="8.420026497915387">
        <ele>262.10000000000002</ele>
        <time>2016-04-03T10:51:30Z</time>
      </trkpt>
      <trkpt lat="44.193910695612431" lon="8.420073855668306">
        <ele>262.57999999999998</ele>
        <time>2016-04-03T10:51:38Z</time>
      </trkpt>
      <trkpt lat="44.193907342851162" lon="8.420129679143429">
        <ele>261.62</ele>
        <time>2016-04-03T10:51:50Z</time>
      </trkpt>
      <trkpt lat="44.193882113322616" lon="8.420136384665966">
        <ele>261.13999999999999</ele>
        <time>2016-04-03T10:51:58Z</time>
      </trkpt>
      <trkpt lat="44.193883202970028" lon="8.420147197321057">
        <ele>261.62</ele>
        <time>2016-04-03T10:52:11Z</time>
      </trkpt>
      <trkpt lat="44.193875072523952" lon="8.420136300846934">
        <ele>261.62</ele>
        <time>2016-04-03T10:52:23Z</time>
      </trkpt>
      <trkpt lat="44.193865600973368" lon="8.420158680528402">
        <ele>261.62</ele>
        <time>2016-04-03T10:52:34Z</time>
      </trkpt>
      <trkpt lat="44.193885130807757" lon="8.420136384665966">
        <ele>260.64999999999998</ele>
        <time>2016-04-03T10:52:47Z</time>
      </trkpt>
      <trkpt lat="44.193893177434802" lon="8.420154321938753">
        <ele>260.64999999999998</ele>
        <time>2016-04-03T10:53:03Z</time>
      </trkpt>
      <trkpt lat="44.193907510489225" lon="8.420171588659287">
        <ele>260.64999999999998</ele>
        <time>2016-04-03T10:53:29Z</time>
      </trkpt>
      <trkpt lat="44.193916311487556" lon="8.42018541879952">
        <ele>260.64999999999998</ele>
        <time>2016-04-03T10:53:53Z</time>
      </trkpt>
      <trkpt lat="44.193881778046489" lon="8.420149795711041">
        <ele>261.13999999999999</ele>
        <time>2016-04-03T10:54:18Z</time>
      </trkpt>
      <trkpt lat="44.193891165778041" lon="8.420143844559789">
        <ele>261.62</ele>
        <time>2016-04-03T10:54:47Z</time>
      </trkpt>
      <trkpt lat="44.193880520761013" lon="8.420147867873311">
        <ele>261.13999999999999</ele>
        <time>2016-04-03T10:55:16Z</time>
      </trkpt>
      <trkpt lat="44.193869205191731" lon="8.420150047168136">
        <ele>262.10000000000002</ele>
        <time>2016-04-03T10:55:45Z</time>
      </trkpt>
      <trkpt lat="44.193876665085554" lon="8.420153986662626">
        <ele>262.57999999999998</ele>
        <time>2016-04-03T10:56:23Z</time>
      </trkpt>
      <trkpt lat="44.193871552124619" lon="8.420160608366132">
        <ele>262.10000000000002</ele>
        <time>2016-04-03T10:56:55Z</time>
      </trkpt>
      <trkpt lat="44.193851351737976" lon="8.420182904228568">
        <ele>262.57999999999998</ele>
        <time>2016-04-03T10:57:31Z</time>
      </trkpt>
      <trkpt lat="44.193844897672534" lon="8.420204278081656">
        <ele>262.57999999999998</ele>
        <time>2016-04-03T10:58:05Z</time>
      </trkpt>
      <trkpt lat="44.193848418071866" lon="8.420206541195512">
        <ele>262.57999999999998</ele>
        <time>2016-04-03T10:58:41Z</time>
      </trkpt>
      <trkpt lat="44.193842299282551" lon="8.420207882300019">
        <ele>263.06</ele>
        <time>2016-04-03T10:59:06Z</time>
      </trkpt>
      <trkpt lat="44.193850597366691" lon="8.420202182605863">
        <ele>263.06</ele>
        <time>2016-04-03T10:59:40Z</time>
      </trkpt>
      <trkpt lat="44.193849172443151" lon="8.420205032452941">
        <ele>263.06</ele>
        <time>2016-04-03T11:00:10Z</time>
      </trkpt>
      <trkpt lat="44.193845400586724" lon="8.420199416577816">
        <ele>263.54000000000002</ele>
        <time>2016-04-03T11:00:46Z</time>
      </trkpt>
      <trkpt lat="44.193839868530631" lon="8.420201679691672">
        <ele>263.54000000000002</ele>
        <time>2016-04-03T11:01:18Z</time>
      </trkpt>
      <trkpt lat="44.193824529647827" lon="8.420196399092674">
        <ele>263.54000000000002</ele>
        <time>2016-04-03T11:01:52Z</time>
      </trkpt>
      <trkpt lat="44.193827295675874" lon="8.420225651934743">
        <ele>263.06</ele>
        <time>2016-04-03T11:02:27Z</time>
      </trkpt>
      <trkpt lat="44.193825954571366" lon="8.420220036059618">
        <ele>264.01999999999998</ele>
        <time>2016-04-03T11:02:55Z</time>
      </trkpt>
      <trkpt lat="44.193838946521282" lon="8.420213498175144">
        <ele>263.54000000000002</ele>
        <time>2016-04-03T11:03:33Z</time>
      </trkpt>
      <trkpt lat="44.193835007026792" lon="8.420191956683993">
        <ele>264.5</ele>
        <time>2016-04-03T11:04:02Z</time>
      </trkpt>
      <trkpt lat="44.1938466578722" lon="8.420191621407867">
        <ele>264.98000000000002</ele>
        <time>2016-04-03T11:04:32Z</time>
      </trkpt>
      <trkpt lat="44.193857302889228" lon="8.420201428234577">
        <ele>264.5</ele>
        <time>2016-04-03T11:04:57Z</time>
      </trkpt>
      <trkpt lat="44.19385738670826" lon="8.420186089351773">
        <ele>264.01999999999998</ele>
        <time>2016-04-03T11:05:25Z</time>
      </trkpt>
      <trkpt lat="44.193865265697241" lon="8.420188436284661">
        <ele>264.5</ele>
        <time>2016-04-03T11:05:53Z</time>
      </trkpt>
      <trkpt lat="44.193857638165355" lon="8.420202434062958">
        <ele>264.5</ele>
        <time>2016-04-03T11:06:30Z</time>
      </trkpt>
      <trkpt lat="44.193877838551998" lon="8.420170415192843">
        <ele>264.01999999999998</ele>
        <time>2016-04-03T11:06:52Z</time>
      </trkpt>
      <trkpt lat="44.193874653428793" lon="8.420178545638919">
        <ele>264.01999999999998</ele>
        <time>2016-04-03T11:07:29Z</time>
      </trkpt>
      <trkpt lat="44.193872809410095" lon="8.420181814581156">
        <ele>264.01999999999998</ele>
        <time>2016-04-03T11:07:58Z</time>
      </trkpt>
      <trkpt lat="44.193876665085554" lon="8.420179802924395">
        <ele>264.01999999999998</ele>
        <time>2016-04-03T11:08:34Z</time>
      </trkpt>
      <trkpt lat="44.193867528811097" lon="8.420183323323727">
        <ele>264.01999999999998</ele>
        <time>2016-04-03T11:09:14Z</time>
      </trkpt>
      <trkpt lat="44.193877000361681" lon="8.420182401314378">
        <ele>264.01999999999998</ele>
        <time>2016-04-03T11:09:53Z</time>
      </trkpt>
      <trkpt lat="44.193876413628459" lon="8.420177288353443">
        <ele>264.01999999999998</ele>
        <time>2016-04-03T11:10:24Z</time>
      </trkpt>
      <trkpt lat="44.193870797753334" lon="8.420178545638919">
        <ele>264.01999999999998</ele>
        <time>2016-04-03T11:11:06Z</time>
      </trkpt>
      <trkpt lat="44.193879682570696" lon="8.420176450163126">
        <ele>264.01999999999998</ele>
        <time>2016-04-03T11:11:36Z</time>
      </trkpt>
      <trkpt lat="44.193884963169694" lon="8.420177455991507">
        <ele>263.54000000000002</ele>
        <time>2016-04-03T11:12:13Z</time>
      </trkpt>
      <trkpt lat="44.193886388093233" lon="8.420168906450272">
        <ele>264.01999999999998</ele>
        <time>2016-04-03T11:12:45Z</time>
      </trkpt>
      <trkpt lat="44.193885046988726" lon="8.420170582830906">
        <ele>263.54000000000002</ele>
        <time>2016-04-03T11:13:22Z</time>
      </trkpt>
      <trkpt lat="44.193885214626789" lon="8.420169409364462">
        <ele>263.54000000000002</ele>
        <time>2016-04-03T11:13:46Z</time>
      </trkpt>
      <trkpt lat="44.193882616236806" lon="8.420178629457951">
        <ele>263.54000000000002</ele>
        <time>2016-04-03T11:14:16Z</time>
      </trkpt>
      <trkpt lat="44.193877000361681" lon="8.420173348858953">
        <ele>263.06</ele>
        <time>2016-04-03T11:14:44Z</time>
      </trkpt>
      <trkpt lat="44.193885717540979" lon="8.420159183442593">
        <ele>263.06</ele>
        <time>2016-04-03T11:15:12Z</time>
      </trkpt>
      <trkpt lat="44.193879431113601" lon="8.420162871479988">
        <ele>263.54000000000002</ele>
        <time>2016-04-03T11:15:26Z</time>
      </trkpt>
      <trkpt lat="44.19388135895133" lon="8.420175528153777">
        <ele>263.06</ele>
        <time>2016-04-03T11:15:56Z</time>
      </trkpt>
      <trkpt lat="44.19388135895133" lon="8.420177204534411">
        <ele>263.54000000000002</ele>
        <time>2016-04-03T11:16:26Z</time>
      </trkpt>
      <trkpt lat="44.19388186186552" lon="8.420165302231908">
        <ele>263.54000000000002</ele>
        <time>2016-04-03T11:16:51Z</time>
      </trkpt>
      <trkpt lat="44.193870462477207" lon="8.420170331373811">
        <ele>263.06</ele>
        <time>2016-04-03T11:17:17Z</time>
      </trkpt>
      <trkpt lat="44.19388135895133" lon="8.420182066038251">
        <ele>263.06</ele>
        <time>2016-04-03T11:17:46Z</time>
      </trkpt>
      <trkpt lat="44.193882867693901" lon="8.420185167342424">
        <ele>263.54000000000002</ele>
        <time>2016-04-03T11:18:19Z</time>
      </trkpt>
      <trkpt lat="44.19387792237103" lon="8.42018248513341">
        <ele>263.06</ele>
        <time>2016-04-03T11:18:54Z</time>
      </trkpt>
      <trkpt lat="44.193873563781381" lon="8.420173935592175">
        <ele>263.06</ele>
        <time>2016-04-03T11:19:29Z</time>
      </trkpt>
      <trkpt lat="44.193882616236806" lon="8.420178713276982">
        <ele>263.06</ele>
        <time>2016-04-03T11:20:03Z</time>
      </trkpt>
      <trkpt lat="44.193882700055838" lon="8.420183574780822">
        <ele>263.06</ele>
        <time>2016-04-03T11:20:32Z</time>
      </trkpt>
      <trkpt lat="44.193869959563017" lon="8.420178545638919">
        <ele>263.06</ele>
        <time>2016-04-03T11:21:06Z</time>
      </trkpt>
      <trkpt lat="44.193867025896907" lon="8.420176366344094">
        <ele>263.06</ele>
        <time>2016-04-03T11:21:33Z</time>
      </trkpt>
      <trkpt lat="44.193877503275871" lon="8.420176785439253">
        <ele>263.06</ele>
        <time>2016-04-03T11:22:08Z</time>
      </trkpt>
      <trkpt lat="44.193880436941981" lon="8.420179635286331">
        <ele>263.06</ele>
        <time>2016-04-03T11:22:41Z</time>
      </trkpt>
      <trkpt lat="44.19388429261744" lon="8.42018541879952">
        <ele>263.06</ele>
        <time>2016-04-03T11:23:11Z</time>
      </trkpt>
      <trkpt lat="44.193886891007423" lon="8.420198243111372">
        <ele>263.06</ele>
        <time>2016-04-03T11:23:40Z</time>
      </trkpt>
      <trkpt lat="44.193877251818776" lon="8.420195560902357">
        <ele>263.54000000000002</ele>
        <time>2016-04-03T11:24:10Z</time>
      </trkpt>
      <trkpt lat="44.193871133029461" lon="8.420190531760454">
        <ele>263.54000000000002</ele>
        <time>2016-04-03T11:24:34Z</time>
      </trkpt>
      <trkpt lat="44.193872557953" lon="8.420180808752775">
        <ele>263.54000000000002</ele>
        <time>2016-04-03T11:24:59Z</time>
      </trkpt>
      <trkpt lat="44.193869708105922" lon="8.420185251161456">
        <ele>263.54000000000002</ele>
        <time>2016-04-03T11:25:26Z</time>
      </trkpt>
      <trkpt lat="44.19387892819941" lon="8.420163625851274">
        <ele>263.06</ele>
        <time>2016-04-03T11:25:54Z</time>
      </trkpt>
      <trkpt lat="44.19386719353497" lon="8.420179048553109">
        <ele>263.54000000000002</ele>
        <time>2016-04-03T11:26:19Z</time>
      </trkpt>
      <trkpt lat="44.193870294839144" lon="8.420163709670305">
        <ele>264.01999999999998</ele>
        <time>2016-04-03T11:26:34Z</time>
      </trkpt>
      <trkpt lat="44.193879514932632" lon="8.420147532597184">
        <ele>264.5</ele>
        <time>2016-04-03T11:27:05Z</time>
      </trkpt>
      <trkpt lat="44.193882029503584" lon="8.420149460434914">
        <ele>264.01999999999998</ele>
        <time>2016-04-03T11:27:33Z</time>
      </trkpt>
      <trkpt lat="44.193891501054168" lon="8.420147867873311">
        <ele>264.5</ele>
        <time>2016-04-03T11:27:51Z</time>
      </trkpt>
      <trkpt lat="44.193879514932632" lon="8.4201829880476">
        <ele>263.54000000000002</ele>
        <time>2016-04-03T11:28:13Z</time>
      </trkpt>
      <trkpt lat="44.193861912935972" lon="8.420178713276982">
        <ele>263.54000000000002</ele>
        <time>2016-04-03T11:28:36Z</time>
      </trkpt>
      <trkpt lat="44.193865936249495" lon="8.420174606144428">
        <ele>263.54000000000002</ele>
        <time>2016-04-03T11:29:05Z</time>
      </trkpt>
      <trkpt lat="44.193868199363351" lon="8.420184161514044">
        <ele>263.54000000000002</ele>
        <time>2016-04-03T11:29:37Z</time>
      </trkpt>
      <trkpt lat="44.193868869915605" lon="8.420175779610872">
        <ele>264.01999999999998</ele>
        <time>2016-04-03T11:30:02Z</time>
      </trkpt>
      <trkpt lat="44.193866439163685" lon="8.420177875086665">
        <ele>264.01999999999998</ele>
        <time>2016-04-03T11:30:30Z</time>
      </trkpt>
      <trkpt lat="44.193866355344653" lon="8.420180976390839">
        <ele>264.01999999999998</ele>
        <time>2016-04-03T11:30:50Z</time>
      </trkpt>
      <trkpt lat="44.193876245990396" lon="8.420172762125731">
        <ele>264.01999999999998</ele>
        <time>2016-04-03T11:31:13Z</time>
      </trkpt>
      <trkpt lat="44.193878341466188" lon="8.420168487355113">
        <ele>264.01999999999998</ele>
        <time>2016-04-03T11:31:36Z</time>
      </trkpt>
      <trkpt lat="44.193873144686222" lon="8.42018349096179">
        <ele>264.01999999999998</ele>
        <time>2016-04-03T11:32:08Z</time>
      </trkpt>
      <trkpt lat="44.193873228505254" lon="8.420176701620221">
        <ele>264.01999999999998</ele>
        <time>2016-04-03T11:32:33Z</time>
      </trkpt>
      <trkpt lat="44.193878760561347" lon="8.42016689479351">
        <ele>264.01999999999998</ele>
        <time>2016-04-03T11:33:01Z</time>
      </trkpt>
      <trkpt lat="44.193877251818776" lon="8.420168990269303">
        <ele>264.01999999999998</ele>
        <time>2016-04-03T11:33:24Z</time>
      </trkpt>
      <trkpt lat="44.193876245990396" lon="8.420171085745096">
        <ele>263.54000000000002</ele>
        <time>2016-04-03T11:33:47Z</time>
      </trkpt>
      <trkpt lat="44.193876665085554" lon="8.420173348858953">
        <ele>264.01999999999998</ele>
        <time>2016-04-03T11:34:07Z</time>
      </trkpt>
      <trkpt lat="44.19387892819941" lon="8.420161781832576">
        <ele>264.5</ele>
        <time>2016-04-03T11:34:32Z</time>
      </trkpt>
      <trkpt lat="44.193876748904586" lon="8.420136133208871">
        <ele>264.5</ele>
        <time>2016-04-03T11:34:50Z</time>
      </trkpt>
      <trkpt lat="44.193881275132298" lon="8.420125991106033">
        <ele>264.5</ele>
        <time>2016-04-03T11:35:09Z</time>
      </trkpt>
      <trkpt lat="44.193893261253834" lon="8.420144431293011">
        <ele>264.01999999999998</ele>
        <time>2016-04-03T11:35:24Z</time>
      </trkpt>
      <trkpt lat="44.193886555731297" lon="8.420161530375481">
        <ele>264.01999999999998</ele>
        <time>2016-04-03T11:35:56Z</time>
      </trkpt>
      <trkpt lat="44.193876497447491" lon="8.420167984440923">
        <ele>264.01999999999998</ele>
        <time>2016-04-03T11:36:26Z</time>
      </trkpt>
      <trkpt lat="44.193873144686222" lon="8.42015516012907">
        <ele>264.01999999999998</ele>
        <time>2016-04-03T11:36:55Z</time>
      </trkpt>
      <trkpt lat="44.193879431113601" lon="8.420145520940423">
        <ele>264.5</ele>
        <time>2016-04-03T11:37:20Z</time>
      </trkpt>
      <trkpt lat="44.193871971219778" lon="8.420145101845264">
        <ele>264.01999999999998</ele>
        <time>2016-04-03T11:37:49Z</time>
      </trkpt>
      <trkpt lat="44.193877084180713" lon="8.420156082138419">
        <ele>264.5</ele>
        <time>2016-04-03T11:38:17Z</time>
      </trkpt>
      <trkpt lat="44.193880269303918" lon="8.420153651386499">
        <ele>264.5</ele>
        <time>2016-04-03T11:38:43Z</time>
      </trkpt>
      <trkpt lat="44.193887393921614" lon="8.420141581445932">
        <ele>264.5</ele>
        <time>2016-04-03T11:39:14Z</time>
      </trkpt>
      <trkpt lat="44.19387205503881" lon="8.420140407979488">
        <ele>264.5</ele>
        <time>2016-04-03T11:39:43Z</time>
      </trkpt>
      <trkpt lat="44.193866439163685" lon="8.420141832903028">
        <ele>264.98000000000002</ele>
        <time>2016-04-03T11:40:14Z</time>
      </trkpt>
      <trkpt lat="44.193881275132298" lon="8.420173013582826">
        <ele>264.98000000000002</ele>
        <time>2016-04-03T11:40:49Z</time>
      </trkpt>
      <trkpt lat="44.193881442770362" lon="8.420175360515714">
        <ele>264.98000000000002</ele>
        <time>2016-04-03T11:41:29Z</time>
      </trkpt>
      <trkpt lat="44.193888651207089" lon="8.420173013582826">
        <ele>264.98000000000002</ele>
        <time>2016-04-03T11:41:52Z</time>
      </trkpt>
      <trkpt lat="44.193882280960679" lon="8.420176450163126">
        <ele>264.98000000000002</ele>
        <time>2016-04-03T11:42:25Z</time>
      </trkpt>
      <trkpt lat="44.193876329809427" lon="8.420167230069637">
        <ele>265.45999999999998</ele>
        <time>2016-04-03T11:43:02Z</time>
      </trkpt>
      <trkpt lat="44.193879179656506" lon="8.42016831971705">
        <ele>265.45999999999998</ele>
        <time>2016-04-03T11:43:34Z</time>
      </trkpt>
      <trkpt lat="44.193868534639478" lon="8.420167984440923">
        <ele>264.98000000000002</ele>
        <time>2016-04-03T11:44:04Z</time>
      </trkpt>
      <trkpt lat="44.193883873522282" lon="8.420169409364462">
        <ele>265.45999999999998</ele>
        <time>2016-04-03T11:44:31Z</time>
      </trkpt>
      <trkpt lat="44.193884124979377" lon="8.420156249776483">
        <ele>265.45999999999998</ele>
        <time>2016-04-03T11:45:02Z</time>
      </trkpt>
      <trkpt lat="44.193872725591063" lon="8.420154321938753">
        <ele>265.94</ele>
        <time>2016-04-03T11:45:20Z</time>
      </trkpt>
      <trkpt lat="44.193886974826455" lon="8.420140240341425">
        <ele>265.45999999999998</ele>
        <time>2016-04-03T11:45:42Z</time>
      </trkpt>
      <trkpt lat="44.193866606801748" lon="8.420150214806199">
        <ele>265.45999999999998</ele>
        <time>2016-04-03T11:46:06Z</time>
      </trkpt>
      <trkpt lat="44.193873312324286" lon="8.42016002163291">
        <ele>265.94</ele>
        <time>2016-04-03T11:46:34Z</time>
      </trkpt>
      <trkpt lat="44.193869456648827" lon="8.420146778225899">
        <ele>265.94</ele>
        <time>2016-04-03T11:47:04Z</time>
      </trkpt>
      <trkpt lat="44.193866942077875" lon="8.420159267261624">
        <ele>265.45999999999998</ele>
        <time>2016-04-03T11:47:35Z</time>
      </trkpt>
      <trkpt lat="44.193871719762683" lon="8.4201570879668">
        <ele>265.94</ele>
        <time>2016-04-03T11:48:10Z</time>
      </trkpt>
      <trkpt lat="44.193882700055838" lon="8.420142000541091">
        <ele>266.42000000000002</ele>
        <time>2016-04-03T11:48:17Z</time>
      </trkpt>
      <trkpt lat="44.193887813016772" lon="8.420147532597184">
        <ele>266.89999999999998</ele>
        <time>2016-04-03T11:48:26Z</time>
      </trkpt>
      <trkpt lat="44.193876916542649" lon="8.420127583667636">
        <ele>266.89999999999998</ele>
        <time>2016-04-03T11:48:40Z</time>
      </trkpt>
      <trkpt lat="44.193865684792399" lon="8.420118866488338">
        <ele>266.89999999999998</ele>
        <time>2016-04-03T11:48:57Z</time>
      </trkpt>
      <trkpt lat="44.193867864087224" lon="8.420110736042261">
        <ele>267.86000000000001</ele>
        <time>2016-04-03T11:49:09Z</time>
      </trkpt>
      <trkpt lat="44.193878760561347" lon="8.42009212821722">
        <ele>268.35000000000002</ele>
        <time>2016-04-03T11:49:19Z</time>
      </trkpt>
      <trkpt lat="44.193888315930963" lon="8.420086763799191">
        <ele>268.35000000000002</ele>
        <time>2016-04-03T11:49:38Z</time>
      </trkpt>
      <trkpt lat="44.193873647600412" lon="8.420072933658958">
        <ele>268.35000000000002</ele>
        <time>2016-04-03T11:49:52Z</time>
      </trkpt>
      <trkpt lat="44.193871552124619" lon="8.420106880366802">
        <ele>267.86000000000001</ele>
        <time>2016-04-03T11:50:08Z</time>
      </trkpt>
      <trkpt lat="44.193867361173034" lon="8.42011995613575">
        <ele>268.35000000000002</ele>
        <time>2016-04-03T11:50:24Z</time>
      </trkpt>
      <trkpt lat="44.193866858258843" lon="8.420124398544431">
        <ele>268.35000000000002</ele>
        <time>2016-04-03T11:50:39Z</time>
      </trkpt>
      <trkpt lat="44.19388135895133" lon="8.420089278370142">
        <ele>268.35000000000002</ele>
        <time>2016-04-03T11:50:59Z</time>
      </trkpt>
      <trkpt lat="44.193906923756003" lon="8.420103443786502">
        <ele>268.35000000000002</ele>
        <time>2016-04-03T11:51:11Z</time>
      </trkpt>
      <trkpt lat="44.193896865472198" lon="8.420045021921396">
        <ele>268.82999999999998</ele>
        <time>2016-04-03T11:51:22Z</time>
      </trkpt>
      <trkpt lat="44.193897284567356" lon="8.420013505965471">
        <ele>267.86000000000001</ele>
        <time>2016-04-03T11:51:31Z</time>
      </trkpt>
      <trkpt lat="44.193895272910595" lon="8.419972769916058">
        <ele>267.38</ele>
        <time>2016-04-03T11:51:39Z</time>
      </trkpt>
      <trkpt lat="44.193891165778041" lon="8.419952569529414">
        <ele>267.38</ele>
        <time>2016-04-03T11:51:48Z</time>
      </trkpt>
      <trkpt lat="44.193889908492565" lon="8.419927675276995">
        <ele>267.38</ele>
        <time>2016-04-03T11:51:58Z</time>
      </trkpt>
      <trkpt lat="44.193899799138308" lon="8.4198790602386">
        <ele>266.89999999999998</ele>
        <time>2016-04-03T11:52:11Z</time>
      </trkpt>
      <trkpt lat="44.193869959563017" lon="8.419859195128083">
        <ele>266.42000000000002</ele>
        <time>2016-04-03T11:52:22Z</time>
      </trkpt>
      <trkpt lat="44.19388186186552" lon="8.419807562604547">
        <ele>265.45999999999998</ele>
        <time>2016-04-03T11:52:31Z</time>
      </trkpt>
      <trkpt lat="44.193874653428793" lon="8.419833546504378">
        <ele>264.98000000000002</ele>
        <time>2016-04-03T11:52:41Z</time>
      </trkpt>
      <trkpt lat="44.193867780268192" lon="8.419809574261308">
        <ele>264.98000000000002</ele>
        <time>2016-04-03T11:52:55Z</time>
      </trkpt>
      <trkpt lat="44.193877251818776" lon="8.419799264520407">
        <ele>264.5</ele>
        <time>2016-04-03T11:53:04Z</time>
      </trkpt>
      <trkpt lat="44.193877503275871" lon="8.419793816283345">
        <ele>264.98000000000002</ele>
        <time>2016-04-03T11:53:20Z</time>
      </trkpt>
      <trkpt lat="44.193882364779711" lon="8.419750984758139">
        <ele>264.01999999999998</ele>
        <time>2016-04-03T11:53:33Z</time>
      </trkpt>
      <trkpt lat="44.19384079053998" lon="8.419696083292365">
        <ele>264.5</ele>
        <time>2016-04-03T11:53:43Z</time>
      </trkpt>
      <trkpt lat="44.193831654265523" lon="8.419630452990532">
        <ele>264.01999999999998</ele>
        <time>2016-04-03T11:53:52Z</time>
      </trkpt>
      <trkpt lat="44.193840203806758" lon="8.419553758576512">
        <ele>262.57999999999998</ele>
        <time>2016-04-03T11:54:00Z</time>
      </trkpt>
      <trkpt lat="44.19384716078639" lon="8.4194525051862">
        <ele>262.10000000000002</ele>
        <time>2016-04-03T11:54:10Z</time>
      </trkpt>
      <trkpt lat="44.193845652043819" lon="8.419365668669343">
        <ele>261.62</ele>
        <time>2016-04-03T11:54:24Z</time>
      </trkpt>
      <trkpt lat="44.193876748904586" lon="8.419220745563507">
        <ele>260.64999999999998</ele>
        <time>2016-04-03T11:54:40Z</time>
      </trkpt>
      <trkpt lat="44.193879012018442" lon="8.419148828834295">
        <ele>259.69</ele>
        <time>2016-04-03T11:54:49Z</time>
      </trkpt>
      <trkpt lat="44.19387792237103" lon="8.419004492461681">
        <ele>260.17000000000002</ele>
        <time>2016-04-03T11:55:01Z</time>
      </trkpt>
      <trkpt lat="44.193884879350662" lon="8.418979849666357">
        <ele>260.17000000000002</ele>
        <time>2016-04-03T11:55:10Z</time>
      </trkpt>
      <trkpt lat="44.193881694227457" lon="8.41889594681561">
        <ele>260.17000000000002</ele>
        <time>2016-04-03T11:55:20Z</time>
      </trkpt>
      <trkpt lat="44.193882951512933" lon="8.418744569644332">
        <ele>260.64999999999998</ele>
        <time>2016-04-03T11:55:32Z</time>
      </trkpt>
      <trkpt lat="44.193894434720278" lon="8.418675418943167">
        <ele>261.13999999999999</ele>
        <time>2016-04-03T11:55:44Z</time>
      </trkpt>
      <trkpt lat="44.193891081959009" lon="8.418549941852689">
        <ele>261.62</ele>
        <time>2016-04-03T11:55:54Z</time>
      </trkpt>
      <trkpt lat="44.193909522145987" lon="8.418500069528818">
        <ele>262.57999999999998</ele>
        <time>2016-04-03T11:56:09Z</time>
      </trkpt>
      <trkpt lat="44.193901224061847" lon="8.418468637391925">
        <ele>262.57999999999998</ele>
        <time>2016-04-03T11:56:21Z</time>
      </trkpt>
      <trkpt lat="44.193935422226787" lon="8.418441144749522">
        <ele>261.62</ele>
        <time>2016-04-03T11:56:31Z</time>
      </trkpt>
      <trkpt lat="44.193951264023781" lon="8.418434439226985">
        <ele>260.64999999999998</ele>
        <time>2016-04-03T11:56:41Z</time>
      </trkpt>
      <trkpt lat="44.193956041708589" lon="8.418424297124147">
        <ele>260.17000000000002</ele>
        <time>2016-04-03T11:57:04Z</time>
      </trkpt>
      <trkpt lat="44.194005494937301" lon="8.418368306010962">
        <ele>257.76999999999998</ele>
        <time>2016-04-03T11:57:17Z</time>
      </trkpt>
      <trkpt lat="44.194008680060506" lon="8.418335197493434">
        <ele>257.76999999999998</ele>
        <time>2016-04-03T11:57:25Z</time>
      </trkpt>
      <trkpt lat="44.19405628927052" lon="8.418309465050697">
        <ele>255.37</ele>
        <time>2016-04-03T11:57:36Z</time>
      </trkpt>
      <trkpt lat="44.194064419716597" lon="8.418299490585923">
        <ele>254.88999999999999</ele>
        <time>2016-04-03T11:57:38Z</time>
      </trkpt>
      <trkpt lat="44.194082776084542" lon="8.418215923011303">
        <ele>254.88999999999999</ele>
        <time>2016-04-03T11:57:49Z</time>
      </trkpt>
      <trkpt lat="44.194063581526279" lon="8.418126907199621">
        <ele>257.76999999999998</ele>
        <time>2016-04-03T11:58:02Z</time>
      </trkpt>
      <trkpt lat="44.194088140502572" lon="8.418019618839026">
        <ele>257.29000000000002</ele>
        <time>2016-04-03T11:58:13Z</time>
      </trkpt>
      <trkpt lat="44.194102641195059" lon="8.417954994365573">
        <ele>257.76999999999998</ele>
        <time>2016-04-03T11:58:23Z</time>
      </trkpt>
      <trkpt lat="44.194097276777029" lon="8.417915431782603">
        <ele>258.73000000000002</ele>
        <time>2016-04-03T11:58:32Z</time>
      </trkpt>
      <trkpt lat="44.19405528344214" lon="8.417894644662738">
        <ele>261.13999999999999</ele>
        <time>2016-04-03T11:58:43Z</time>
      </trkpt>
      <trkpt lat="44.194039525464177" lon="8.417876204475761">
        <ele>261.62</ele>
        <time>2016-04-03T11:58:54Z</time>
      </trkpt>
      <trkpt lat="44.194035334512591" lon="8.417887352406979">
        <ele>261.13999999999999</ele>
        <time>2016-04-03T11:59:03Z</time>
      </trkpt>
      <trkpt lat="44.194036507979035" lon="8.417926914989948">
        <ele>261.62</ele>
        <time>2016-04-03T11:59:14Z</time>
      </trkpt>
      <trkpt lat="44.193986216560006" lon="8.418022552505136">
        <ele>262.10000000000002</ele>
        <time>2016-04-03T11:59:24Z</time>
      </trkpt>
      <trkpt lat="44.193924106657505" lon="8.41808239929378">
        <ele>263.06</ele>
        <time>2016-04-03T11:59:33Z</time>
      </trkpt>
      <trkpt lat="44.193924944847822" lon="8.41797343455255">
        <ele>264.01999999999998</ele>
        <time>2016-04-03T11:59:43Z</time>
      </trkpt>
      <trkpt lat="44.193964507430792" lon="8.417852902784944">
        <ele>264.98000000000002</ele>
        <time>2016-04-03T11:59:54Z</time>
      </trkpt>
      <trkpt lat="44.193987473845482" lon="8.417721223086119">
        <ele>265.45999999999998</ele>
        <time>2016-04-03T12:00:07Z</time>
      </trkpt>
      <trkpt lat="44.193995352834463" lon="8.417620053514838">
        <ele>264.98000000000002</ele>
        <time>2016-04-03T12:00:19Z</time>
      </trkpt>
      <trkpt lat="44.193983031436801" lon="8.417498013004661">
        <ele>265.45999999999998</ele>
        <time>2016-04-03T12:00:30Z</time>
      </trkpt>
      <trkpt lat="44.193955538794398" lon="8.417353676632047">
        <ele>264.98000000000002</ele>
        <time>2016-04-03T12:00:42Z</time>
      </trkpt>
      <trkpt lat="44.193936008960009" lon="8.417258709669113">
        <ele>264.5</ele>
        <time>2016-04-03T12:00:51Z</time>
      </trkpt>
      <trkpt lat="44.193912371993065" lon="8.417145553976297">
        <ele>264.01999999999998</ele>
        <time>2016-04-03T12:01:03Z</time>
      </trkpt>
      <trkpt lat="44.193891920149326" lon="8.417016221210361">
        <ele>263.54000000000002</ele>
        <time>2016-04-03T12:01:13Z</time>
      </trkpt>
      <trkpt lat="44.193875323981047" lon="8.416785383597016">
        <ele>263.06</ele>
        <time>2016-04-03T12:01:28Z</time>
      </trkpt>
      <trkpt lat="44.193827211856842" lon="8.416569465771318">
        <ele>263.54000000000002</ele>
        <time>2016-04-03T12:01:43Z</time>
      </trkpt>
      <trkpt lat="44.193738950416446" lon="8.416407527402043">
        <ele>263.54000000000002</ele>
        <time>2016-04-03T12:01:56Z</time>
      </trkpt>
      <trkpt lat="44.193707853555679" lon="8.416357822716236">
        <ele>263.54000000000002</ele>
        <time>2016-04-03T12:02:06Z</time>
      </trkpt>
      <trkpt lat="44.19368832372129" lon="8.416353547945619">
        <ele>264.01999999999998</ele>
        <time>2016-04-03T12:02:11Z</time>
      </trkpt>
      <trkpt lat="44.193598637357354" lon="8.416399899870157">
        <ele>264.98000000000002</ele>
        <time>2016-04-03T12:02:24Z</time>
      </trkpt>
      <trkpt lat="44.193543735891581" lon="8.416331084445119">
        <ele>264.98000000000002</ele>
        <time>2016-04-03T12:02:35Z</time>
      </trkpt>
      <trkpt lat="44.193447511643171" lon="8.416336867958307">
        <ele>262.57999999999998</ele>
        <time>2016-04-03T12:02:49Z</time>
      </trkpt>
      <trkpt lat="44.193335194140673" lon="8.41633359901607">
        <ele>260.64999999999998</ele>
        <time>2016-04-03T12:03:01Z</time>
      </trkpt>
      <trkpt lat="44.19324760325253" lon="8.416315661743283">
        <ele>259.69</ele>
        <time>2016-04-03T12:03:11Z</time>
      </trkpt>
      <trkpt lat="44.193109972402453" lon="8.416275680065155">
        <ele>257.76999999999998</ele>
        <time>2016-04-03T12:03:23Z</time>
      </trkpt>
      <trkpt lat="44.19301307760179" lon="8.416186328977346">
        <ele>256.32999999999998</ele>
        <time>2016-04-03T12:03:34Z</time>
      </trkpt>
      <trkpt lat="44.192932695150375" lon="8.416080884635449">
        <ele>253.93000000000001</ele>
        <time>2016-04-03T12:03:47Z</time>
      </trkpt>
      <trkpt lat="44.192906962707639" lon="8.415921209380031">
        <ele>253.44</ele>
        <time>2016-04-03T12:03:59Z</time>
      </trkpt>
      <trkpt lat="44.192881481721997" lon="8.415735298767686">
        <ele>252.96000000000001</ele>
        <time>2016-04-03T12:04:11Z</time>
      </trkpt>
      <trkpt lat="44.192850384861231" lon="8.415654916316271">
        <ele>252.96000000000001</ele>
        <time>2016-04-03T12:04:17Z</time>
      </trkpt>
      <trkpt lat="44.192805709317327" lon="8.415444614365697">
        <ele>252.47999999999999</ele>
        <time>2016-04-03T12:04:31Z</time>
      </trkpt>
      <trkpt lat="44.192786766216159" lon="8.415328860282898">
        <ele>252.47999999999999</ele>
        <time>2016-04-03T12:04:41Z</time>
      </trkpt>
      <trkpt lat="44.192751059308648" lon="8.415137501433492">
        <ele>252</ele>
        <time>2016-04-03T12:04:54Z</time>
      </trkpt>
      <trkpt lat="44.192731026560068" lon="8.414960475638509">
        <ele>252</ele>
        <time>2016-04-03T12:05:06Z</time>
      </trkpt>
      <trkpt lat="44.192719124257565" lon="8.414741372689605">
        <ele>252</ele>
        <time>2016-04-03T12:05:19Z</time>
      </trkpt>
      <trkpt lat="44.192668246105313" lon="8.414590246975422">
        <ele>251.52000000000001</ele>
        <time>2016-04-03T12:05:30Z</time>
      </trkpt>
      <trkpt lat="44.192572943866253" lon="8.414475917816162">
        <ele>252.96000000000001</ele>
        <time>2016-04-03T12:05:40Z</time>
      </trkpt>
      <trkpt lat="44.192416034638882" lon="8.414333928376436">
        <ele>252.96000000000001</ele>
        <time>2016-04-03T12:05:55Z</time>
      </trkpt>
      <trkpt lat="44.192288294434547" lon="8.414213312789798">
        <ele>252</ele>
        <time>2016-04-03T12:06:08Z</time>
      </trkpt>
      <trkpt lat="44.19228108599782" lon="8.414201745763421">
        <ele>252</ele>
        <time>2016-04-03T12:06:09Z</time>
      </trkpt>
      <trkpt lat="44.19220631942153" lon="8.414017595350742">
        <ele>251.03999999999999</ele>
        <time>2016-04-03T12:06:22Z</time>
      </trkpt>
      <trkpt lat="44.192167511209846" lon="8.413923969492316">
        <ele>250.56</ele>
        <time>2016-04-03T12:06:34Z</time>
      </trkpt>
      <trkpt lat="44.19214965775609" lon="8.413920868188143">
        <ele>250.56</ele>
        <time>2016-04-03T12:06:59Z</time>
      </trkpt>
      <trkpt lat="44.192135576158762" lon="8.413851214572787">
        <ele>250.08000000000001</ele>
        <time>2016-04-03T12:07:12Z</time>
      </trkpt>
      <trkpt lat="44.192101545631886" lon="8.413879377767444">
        <ele>249.12</ele>
        <time>2016-04-03T12:07:24Z</time>
      </trkpt>
      <trkpt lat="44.19204312376678" lon="8.413922460749745">
        <ele>247.19999999999999</ele>
        <time>2016-04-03T12:07:36Z</time>
      </trkpt>
      <trkpt lat="44.191991072148085" lon="8.413965962827206">
        <ele>244.78999999999999</ele>
        <time>2016-04-03T12:07:46Z</time>
      </trkpt>
      <trkpt lat="44.191906163468957" lon="8.413938134908676">
        <ele>241.91</ele>
        <time>2016-04-03T12:07:58Z</time>
      </trkpt>
      <trkpt lat="44.191860817372799" lon="8.413896141573787">
        <ele>240.47</ele>
        <time>2016-04-03T12:08:09Z</time>
      </trkpt>
      <trkpt lat="44.191853022202849" lon="8.413879377767444">
        <ele>239.99000000000001</ele>
        <time>2016-04-03T12:08:20Z</time>
      </trkpt>
      <trkpt lat="44.191828714683652" lon="8.413860183209181">
        <ele>239.50999999999999</ele>
        <time>2016-04-03T12:08:29Z</time>
      </trkpt>
      <trkpt lat="44.191789152100682" lon="8.413910893723369">
        <ele>237.58000000000001</ele>
        <time>2016-04-03T12:08:39Z</time>
      </trkpt>
      <trkpt lat="44.191746404394507" lon="8.41391340829432">
        <ele>236.13999999999999</ele>
        <time>2016-04-03T12:08:50Z</time>
      </trkpt>
      <trkpt lat="44.19170550070703" lon="8.413881557062268">
        <ele>235.18000000000001</ele>
        <time>2016-04-03T12:08:59Z</time>
      </trkpt>
      <trkpt lat="44.191700387746096" lon="8.413871498778462">
        <ele>235.18000000000001</ele>
        <time>2016-04-03T12:09:13Z</time>
      </trkpt>
      <trkpt lat="44.191667530685663" lon="8.413869068026543">
        <ele>234.22</ele>
        <time>2016-04-03T12:09:23Z</time>
      </trkpt>
      <trkpt lat="44.191726790741086" lon="8.413860015571117">
        <ele>235.18000000000001</ele>
        <time>2016-04-03T12:09:36Z</time>
      </trkpt>
      <trkpt lat="44.191740704700351" lon="8.413865966722369">
        <ele>236.13999999999999</ele>
        <time>2016-04-03T12:09:50Z</time>
      </trkpt>
      <trkpt lat="44.19173676520586" lon="8.413854818791151">
        <ele>236.13999999999999</ele>
        <time>2016-04-03T12:10:05Z</time>
      </trkpt>
      <trkpt lat="44.191745398566127" lon="8.413886083289981">
        <ele>236.13999999999999</ele>
        <time>2016-04-03T12:10:19Z</time>
      </trkpt>
      <trkpt lat="44.191735507920384" lon="8.41390460729599">
        <ele>236.62</ele>
        <time>2016-04-03T12:10:36Z</time>
      </trkpt>
      <trkpt lat="44.191724946722388" lon="8.413908546790481">
        <ele>236.13999999999999</ele>
        <time>2016-04-03T12:10:48Z</time>
      </trkpt>
      <trkpt lat="44.19173919595778" lon="8.413975602015853">
        <ele>235.66</ele>
        <time>2016-04-03T12:10:57Z</time>
      </trkpt>
      <trkpt lat="44.191732658073306" lon="8.413940733298659">
        <ele>235.66</ele>
        <time>2016-04-03T12:11:07Z</time>
      </trkpt>
      <trkpt lat="44.19176266528666" lon="8.413877533748746">
        <ele>236.62</ele>
        <time>2016-04-03T12:11:17Z</time>
      </trkpt>
      <trkpt lat="44.191795941442251" lon="8.413852388039231">
        <ele>237.58000000000001</ele>
        <time>2016-04-03T12:11:25Z</time>
      </trkpt>
      <trkpt lat="44.191798204556108" lon="8.413796648383141">
        <ele>238.06</ele>
        <time>2016-04-03T12:11:35Z</time>
      </trkpt>
      <trkpt lat="44.191798204556108" lon="8.413721211254597">
        <ele>238.06</ele>
        <time>2016-04-03T12:11:46Z</time>
      </trkpt>
      <trkpt lat="44.191787643358111" lon="8.413692880421877">
        <ele>237.09999999999999</ele>
        <time>2016-04-03T12:11:58Z</time>
      </trkpt>
      <trkpt lat="44.191837599501014" lon="8.413646947592497">
        <ele>237.09999999999999</ele>
        <time>2016-04-03T12:12:10Z</time>
      </trkpt>
      <trkpt lat="44.191878587007523" lon="8.413521638140082">
        <ele>236.62</ele>
        <time>2016-04-03T12:12:23Z</time>
      </trkpt>
      <trkpt lat="44.191940696910024" lon="8.413438573479652">
        <ele>237.58000000000001</ele>
        <time>2016-04-03T12:12:37Z</time>
      </trkpt>
      <trkpt lat="44.191965339705348" lon="8.413428599014878">
        <ele>237.58000000000001</ele>
        <time>2016-04-03T12:12:55Z</time>
      </trkpt>
      <trkpt lat="44.191995095461607" lon="8.41335928067565">
        <ele>239.50999999999999</ele>
        <time>2016-04-03T12:13:09Z</time>
      </trkpt>
      <trkpt lat="44.192026276141405" lon="8.413330698385835">
        <ele>240.94999999999999</ele>
        <time>2016-04-03T12:13:18Z</time>
      </trkpt>
      <trkpt lat="44.192022420465946" lon="8.41330898925662">
        <ele>241.43000000000001</ele>
        <time>2016-04-03T12:13:29Z</time>
      </trkpt>
      <trkpt lat="44.192064832895994" lon="8.413243275135756">
        <ele>242.38999999999999</ele>
        <time>2016-04-03T12:13:39Z</time>
      </trkpt>
      <trkpt lat="44.192122584208846" lon="8.413174543529749">
        <ele>244.78999999999999</ele>
        <time>2016-04-03T12:13:51Z</time>
      </trkpt>
      <trkpt lat="44.192137839272618" lon="8.41314478777349">
        <ele>245.27000000000001</ele>
        <time>2016-04-03T12:13:54Z</time>
      </trkpt>
      <trkpt lat="44.192112190648913" lon="8.412879835814238">
        <ele>243.83000000000001</ele>
        <time>2016-04-03T12:14:10Z</time>
      </trkpt>
      <trkpt lat="44.192061144858599" lon="8.412675401195884">
        <ele>242.38999999999999</ele>
        <time>2016-04-03T12:14:22Z</time>
      </trkpt>
      <trkpt lat="44.192026611417532" lon="8.412554282695055">
        <ele>241.43000000000001</ele>
        <time>2016-04-03T12:14:30Z</time>
      </trkpt>
      <trkpt lat="44.191917395219207" lon="8.412318080663681">
        <ele>240.47</ele>
        <time>2016-04-03T12:14:46Z</time>
      </trkpt>
      <trkpt lat="44.191834246739745" lon="8.41214164160192">
        <ele>239.99000000000001</ele>
        <time>2016-04-03T12:14:59Z</time>
      </trkpt>
      <trkpt lat="44.191744811832905" lon="8.411987582221627">
        <ele>239.02000000000001</ele>
        <time>2016-04-03T12:15:12Z</time>
      </trkpt>
      <trkpt lat="44.191638948395848" lon="8.411870738491416">
        <ele>237.58000000000001</ele>
        <time>2016-04-03T12:15:25Z</time>
      </trkpt>
      <trkpt lat="44.191524786874652" lon="8.41174291446805">
        <ele>236.62</ele>
        <time>2016-04-03T12:15:38Z</time>
      </trkpt>
      <trkpt lat="44.191448511555791" lon="8.411650629714131">
        <ele>236.62</ele>
        <time>2016-04-03T12:15:47Z</time>
      </trkpt>
      <trkpt lat="44.191337367519736" lon="8.411541497334838">
        <ele>235.18000000000001</ele>
        <time>2016-04-03T12:15:58Z</time>
      </trkpt>
      <trkpt lat="44.191282130777836" lon="8.411491625010967">
        <ele>234.69999999999999</ele>
        <time>2016-04-03T12:16:03Z</time>
      </trkpt>
      <trkpt lat="44.191156905144453" lon="8.411360699683428">
        <ele>233.74000000000001</ele>
        <time>2016-04-03T12:16:14Z</time>
      </trkpt>
      <trkpt lat="44.191103428602219" lon="8.41129045933485">
        <ele>233.25999999999999</ele>
        <time>2016-04-03T12:16:26Z</time>
      </trkpt>
      <trkpt lat="44.19103947468102" lon="8.411232121288776">
        <ele>231.81</ele>
        <time>2016-04-03T12:16:36Z</time>
      </trkpt>
      <trkpt lat="44.191043246537447" lon="8.411151152104139">
        <ele>230.37</ele>
        <time>2016-04-03T12:16:46Z</time>
      </trkpt>
      <trkpt lat="44.191099992021918" lon="8.411080073565245">
        <ele>229.88999999999999</ele>
        <time>2016-04-03T12:16:56Z</time>
      </trkpt>
      <trkpt lat="44.191192025318742" lon="8.410967839881778">
        <ele>227.97</ele>
        <time>2016-04-03T12:17:07Z</time>
      </trkpt>
      <trkpt lat="44.191253799945116" lon="8.410905310884118">
        <ele>227.49000000000001</ele>
        <time>2016-04-03T12:17:15Z</time>
      </trkpt>
      <trkpt lat="44.191355220973492" lon="8.410737589001656">
        <ele>225.56999999999999</ele>
        <time>2016-04-03T12:17:29Z</time>
      </trkpt>
      <trkpt lat="44.191447086632252" lon="8.410619404166937">
        <ele>224.12</ele>
        <time>2016-04-03T12:17:40Z</time>
      </trkpt>
      <trkpt lat="44.191497964784503" lon="8.410524101927877">
        <ele>222.68000000000001</ele>
        <time>2016-04-03T12:17:48Z</time>
      </trkpt>
      <trkpt lat="44.191681193187833" lon="8.410414718091488">
        <ele>222.19999999999999</ele>
        <time>2016-04-03T12:18:04Z</time>
      </trkpt>
      <trkpt lat="44.191843466833234" lon="8.410351518541575">
        <ele>220.75999999999999</ele>
        <time>2016-04-03T12:18:19Z</time>
      </trkpt>
      <trkpt lat="44.191846316680312" lon="8.410344561561942">
        <ele>220.75999999999999</ele>
        <time>2016-04-03T12:18:30Z</time>
      </trkpt>
      <trkpt lat="44.191901134327054" lon="8.410323103889823">
        <ele>220.28</ele>
        <time>2016-04-03T12:18:44Z</time>
      </trkpt>
      <trkpt lat="44.191912114620209" lon="8.410306675359607">
        <ele>219.80000000000001</ele>
        <time>2016-04-03T12:18:55Z</time>
      </trkpt>
      <trkpt lat="44.191971961408854" lon="8.410275913774967">
        <ele>219.31999999999999</ele>
        <time>2016-04-03T12:19:05Z</time>
      </trkpt>
      <trkpt lat="44.192108083516359" lon="8.410242637619376">
        <ele>219.31999999999999</ele>
        <time>2016-04-03T12:19:17Z</time>
      </trkpt>
      <trkpt lat="44.192211264744401" lon="8.410245655104518">
        <ele>219.31999999999999</ele>
        <time>2016-04-03T12:19:30Z</time>
      </trkpt>
      <trkpt lat="44.192283600568771" lon="8.410214139148593">
        <ele>218.36000000000001</ele>
        <time>2016-04-03T12:19:41Z</time>
      </trkpt>
      <trkpt lat="44.192310255020857" lon="8.410148257389665">
        <ele>217.40000000000001</ele>
        <time>2016-04-03T12:19:51Z</time>
      </trkpt>
      <trkpt lat="44.192262059077621" lon="8.410146916285157">
        <ele>217.88</ele>
        <time>2016-04-03T12:20:00Z</time>
      </trkpt>
      <trkpt lat="44.192247809842229" lon="8.410140546038747">
        <ele>218.36000000000001</ele>
        <time>2016-04-03T12:20:02Z</time>
      </trkpt>
      <trkpt lat="44.192099114879966" lon="8.410050859674811">
        <ele>218.84</ele>
        <time>2016-04-03T12:20:16Z</time>
      </trkpt>
      <trkpt lat="44.191971207037568" lon="8.409936279058456">
        <ele>218.84</ele>
        <time>2016-04-03T12:20:29Z</time>
      </trkpt>
      <trkpt lat="44.191880766302347" lon="8.409809125587344">
        <ele>218.36000000000001</ele>
        <time>2016-04-03T12:20:39Z</time>
      </trkpt>
      <trkpt lat="44.191791918128729" lon="8.409703765064478">
        <ele>218.36000000000001</ele>
        <time>2016-04-03T12:20:53Z</time>
      </trkpt>
      <trkpt lat="44.191791750490665" lon="8.409702340140939">
        <ele>218.84</ele>
        <time>2016-04-03T12:20:55Z</time>
      </trkpt>
      <trkpt lat="44.191756378859282" lon="8.40965204872191">
        <ele>218.84</ele>
        <time>2016-04-03T12:21:00Z</time>
      </trkpt>
      <trkpt lat="44.191688233986497" lon="8.409631680697203">
        <ele>218.36000000000001</ele>
        <time>2016-04-03T12:21:12Z</time>
      </trkpt>
      <trkpt lat="44.191651018336415" lon="8.409604942426086">
        <ele>218.36000000000001</ele>
        <time>2016-04-03T12:21:28Z</time>
      </trkpt>
      <trkpt lat="44.191560996696353" lon="8.409533025696874">
        <ele>217.40000000000001</ele>
        <time>2016-04-03T12:21:40Z</time>
      </trkpt>
      <trkpt lat="44.191422779113054" lon="8.409467898309231">
        <ele>216.43000000000001</ele>
        <time>2016-04-03T12:21:52Z</time>
      </trkpt>
      <trkpt lat="44.191272323951125" lon="8.409394137561321">
        <ele>214.50999999999999</ele>
        <time>2016-04-03T12:22:05Z</time>
      </trkpt>
      <trkpt lat="44.191156318411231" lon="8.409294225275517">
        <ele>214.03</ele>
        <time>2016-04-03T12:22:18Z</time>
      </trkpt>
      <trkpt lat="44.191107200458646" lon="8.409241503104568">
        <ele>214.99000000000001</ele>
        <time>2016-04-03T12:22:25Z</time>
      </trkpt>
      <trkpt lat="44.190982142463326" lon="8.409147625789046">
        <ele>214.50999999999999</ele>
        <time>2016-04-03T12:22:38Z</time>
      </trkpt>
      <trkpt lat="44.190906537696719" lon="8.409011922776699">
        <ele>216.43000000000001</ele>
        <time>2016-04-03T12:22:50Z</time>
      </trkpt>
      <trkpt lat="44.190890779718757" lon="8.408988956362009">
        <ele>216.43000000000001</ele>
        <time>2016-04-03T12:22:52Z</time>
      </trkpt>
      <trkpt lat="44.19080981053412" lon="8.408838165923953">
        <ele>217.88</ele>
        <time>2016-04-03T12:23:04Z</time>
      </trkpt>
      <trkpt lat="44.190767901018262" lon="8.408721825107932">
        <ele>218.36000000000001</ele>
        <time>2016-04-03T12:23:16Z</time>
      </trkpt>
      <trkpt lat="44.190733032301068" lon="8.408577488735318">
        <ele>219.31999999999999</ele>
        <time>2016-04-03T12:23:27Z</time>
      </trkpt>
      <trkpt lat="44.19068081304431" lon="8.40844513848424">
        <ele>219.31999999999999</ele>
        <time>2016-04-03T12:23:39Z</time>
      </trkpt>
      <trkpt lat="44.190630353987217" lon="8.408332318067551">
        <ele>220.75999999999999</ele>
        <time>2016-04-03T12:23:49Z</time>
      </trkpt>
      <trkpt lat="44.190554581582546" lon="8.4082140494138">
        <ele>221.72</ele>
        <time>2016-04-03T12:24:02Z</time>
      </trkpt>
      <trkpt lat="44.190536979585886" lon="8.408190831542015">
        <ele>221.72</ele>
        <time>2016-04-03T12:24:13Z</time>
      </trkpt>
      <trkpt lat="44.190479731187224" lon="8.408139366656542">
        <ele>221.72</ele>
        <time>2016-04-03T12:24:24Z</time>
      </trkpt>
      <trkpt lat="44.190470511093736" lon="8.408132158219814">
        <ele>221.72</ele>
        <time>2016-04-03T12:24:26Z</time>
      </trkpt>
      <trkpt lat="44.190346542745829" lon="8.408104414120317">
        <ele>219.80000000000001</ele>
        <time>2016-04-03T12:24:38Z</time>
      </trkpt>
      <trkpt lat="44.19024009257555" lon="8.408106090500951">
        <ele>217.88</ele>
        <time>2016-04-03T12:24:50Z</time>
      </trkpt>
      <trkpt lat="44.190226932987571" lon="8.408138109371066">
        <ele>217.40000000000001</ele>
        <time>2016-04-03T12:24:58Z</time>
      </trkpt>
      <trkpt lat="44.190192651003599" lon="8.40807038359344">
        <ele>216.43000000000001</ele>
        <time>2016-04-03T12:25:13Z</time>
      </trkpt>
      <trkpt lat="44.190097767859697" lon="8.408010536804795">
        <ele>213.55000000000001</ele>
        <time>2016-04-03T12:25:24Z</time>
      </trkpt>
      <trkpt lat="44.190085865557194" lon="8.408009447157383">
        <ele>213.55000000000001</ele>
        <time>2016-04-03T12:25:25Z</time>
      </trkpt>
      <trkpt lat="44.18996499851346" lon="8.408019170165062">
        <ele>210.66999999999999</ele>
        <time>2016-04-03T12:25:40Z</time>
      </trkpt>
      <trkpt lat="44.18991663493216" lon="8.408029396086931">
        <ele>209.69999999999999</ele>
        <time>2016-04-03T12:25:47Z</time>
      </trkpt>
      <trkpt lat="44.189867684617639" lon="8.40803517960012">
        <ele>207.30000000000001</ele>
        <time>2016-04-03T12:25:57Z</time>
      </trkpt>
      <trkpt lat="44.189867600798607" lon="8.40804641135037">
        <ele>207.30000000000001</ele>
        <time>2016-04-03T12:26:02Z</time>
      </trkpt>
      <trkpt lat="44.189736926928163" lon="8.408059654757381">
        <ele>204.41999999999999</ele>
        <time>2016-04-03T12:26:14Z</time>
      </trkpt>
      <trkpt lat="44.189651682972908" lon="8.408085722476244">
        <ele>202.49000000000001</ele>
        <time>2016-04-03T12:26:23Z</time>
      </trkpt>
      <trkpt lat="44.189613880589604" lon="8.408114891499281">
        <ele>202.00999999999999</ele>
        <time>2016-04-03T12:26:27Z</time>
      </trkpt>
      <trkpt lat="44.18953106738627" lon="8.40817884542048">
        <ele>199.61000000000001</ele>
        <time>2016-04-03T12:26:37Z</time>
      </trkpt>
      <trkpt lat="44.189404416829348" lon="8.408223437145352">
        <ele>197.21000000000001</ele>
        <time>2016-04-03T12:26:50Z</time>
      </trkpt>
      <trkpt lat="44.189390670508146" lon="8.408204661682248">
        <ele>197.21000000000001</ele>
        <time>2016-04-03T12:27:00Z</time>
      </trkpt>
      <trkpt lat="44.189370386302471" lon="8.408222766593099">
        <ele>196.25</ele>
        <time>2016-04-03T12:27:19Z</time>
      </trkpt>
      <trkpt lat="44.189360747113824" lon="8.408212708309293">
        <ele>196.25</ele>
        <time>2016-04-03T12:27:35Z</time>
      </trkpt>
      <trkpt lat="44.189343564212322" lon="8.408220671117306">
        <ele>196.25</ele>
        <time>2016-04-03T12:27:53Z</time>
      </trkpt>
      <trkpt lat="44.189314562827349" lon="8.408223101869226">
        <ele>195.28</ele>
        <time>2016-04-03T12:28:02Z</time>
      </trkpt>
      <trkpt lat="44.189305258914828" lon="8.408129308372736">
        <ele>193.36000000000001</ele>
        <time>2016-04-03T12:28:12Z</time>
      </trkpt>
      <trkpt lat="44.189308360219002" lon="8.408083459362388">
        <ele>192.88</ele>
        <time>2016-04-03T12:28:25Z</time>
      </trkpt>
      <trkpt lat="44.189324788749218" lon="8.40804154984653">
        <ele>191.91999999999999</ele>
        <time>2016-04-03T12:28:35Z</time>
      </trkpt>
      <trkpt lat="44.18934004381299" lon="8.408006262034178">
        <ele>190.47999999999999</ele>
        <time>2016-04-03T12:28:45Z</time>
      </trkpt>
      <trkpt lat="44.189348425716162" lon="8.407951109111309">
        <ele>188.56</ele>
        <time>2016-04-03T12:28:54Z</time>
      </trkpt>
      <trkpt lat="44.189353957772255" lon="8.407876510173082">
        <ele>186.63</ele>
        <time>2016-04-03T12:29:03Z</time>
      </trkpt>
      <trkpt lat="44.189365357160568" lon="8.407854214310646">
        <ele>186.15000000000001</ele>
        <time>2016-04-03T12:29:05Z</time>
      </trkpt>
      <trkpt lat="44.18938597664237" lon="8.407782632857561">
        <ele>184.71000000000001</ele>
        <time>2016-04-03T12:29:11Z</time>
      </trkpt>
      <trkpt lat="44.189440123736858" lon="8.407640811055899">
        <ele>181.83000000000001</ele>
        <time>2016-04-03T12:29:23Z</time>
      </trkpt>
      <trkpt lat="44.189469879493117" lon="8.407583981752396">
        <ele>180.87</ele>
        <time>2016-04-03T12:29:28Z</time>
      </trkpt>
      <trkpt lat="44.189505083486438" lon="8.407507874071598">
        <ele>179.90000000000001</ele>
        <time>2016-04-03T12:29:35Z</time>
      </trkpt>
      <trkpt lat="44.189558308571577" lon="8.407375859096646">
        <ele>177.97999999999999</ele>
        <time>2016-04-03T12:29:46Z</time>
      </trkpt>
      <trkpt lat="44.189564594998956" lon="8.407355826348066">
        <ele>177.5</ele>
        <time>2016-04-03T12:29:48Z</time>
      </trkpt>
      <trkpt lat="44.189587896689773" lon="8.407287765294313">
        <ele>176.53999999999999</ele>
        <time>2016-04-03T12:29:54Z</time>
      </trkpt>
      <trkpt lat="44.189673140645027" lon="8.407156588509679">
        <ele>175.09999999999999</ele>
        <time>2016-04-03T12:30:06Z</time>
      </trkpt>
      <trkpt lat="44.189674481749535" lon="8.407090790569782">
        <ele>174.62</ele>
        <time>2016-04-03T12:30:15Z</time>
      </trkpt>
      <trkpt lat="44.189659059047699" lon="8.407087186351419">
        <ele>174.62</ele>
        <time>2016-04-03T12:30:24Z</time>
      </trkpt>
      <trkpt lat="44.189617149531841" lon="8.407052652910352">
        <ele>174.13999999999999</ele>
        <time>2016-04-03T12:30:39Z</time>
      </trkpt>
      <trkpt lat="44.189603067934513" lon="8.407035218551755">
        <ele>174.13999999999999</ele>
        <time>2016-04-03T12:30:51Z</time>
      </trkpt>
      <trkpt lat="44.189580855891109" lon="8.40700319968164">
        <ele>174.62</ele>
        <time>2016-04-03T12:30:57Z</time>
      </trkpt>
      <trkpt lat="44.189507933333516" lon="8.406893312931061">
        <ele>174.62</ele>
        <time>2016-04-03T12:31:09Z</time>
      </trkpt>
      <trkpt lat="44.189437190070748" lon="8.406863221898675">
        <ele>172.69</ele>
        <time>2016-04-03T12:31:19Z</time>
      </trkpt>
      <trkpt lat="44.189376588910818" lon="8.406839584931731">
        <ele>171.25</ele>
        <time>2016-04-03T12:31:28Z</time>
      </trkpt>
      <trkpt lat="44.189320094883442" lon="8.406778732314706">
        <ele>170.28999999999999</ele>
        <time>2016-04-03T12:31:40Z</time>
      </trkpt>
      <trkpt lat="44.18922764249146" lon="8.406701367348433">
        <ele>168.37</ele>
        <time>2016-04-03T12:31:52Z</time>
      </trkpt>
      <trkpt lat="44.189171399921179" lon="8.406621236354113">
        <ele>166.44999999999999</ele>
        <time>2016-04-03T12:32:03Z</time>
      </trkpt>
      <trkpt lat="44.189132507890463" lon="8.406581589952111">
        <ele>165.47999999999999</ele>
        <time>2016-04-03T12:32:12Z</time>
      </trkpt>
      <trkpt lat="44.189112475141883" lon="8.40657371096313">
        <ele>164.52000000000001</ele>
        <time>2016-04-03T12:32:24Z</time>
      </trkpt>
      <trkpt lat="44.189108535647392" lon="8.40655954554677">
        <ele>164.03999999999999</ele>
        <time>2016-04-03T12:32:35Z</time>
      </trkpt>
      <trkpt lat="44.189101913943887" lon="8.40654437430203">
        <ele>164.03999999999999</ele>
        <time>2016-04-03T12:32:50Z</time>
      </trkpt>
      <trkpt lat="44.189056232571602" lon="8.406503386795521">
        <ele>163.08000000000001</ele>
        <time>2016-04-03T12:32:59Z</time>
      </trkpt>
      <trkpt lat="44.188996721059084" lon="8.406413784250617">
        <ele>161.63999999999999</ele>
        <time>2016-04-03T12:33:11Z</time>
      </trkpt>
      <trkpt lat="44.188936622813344" lon="8.406349746510387">
        <ele>159.72</ele>
        <time>2016-04-03T12:33:20Z</time>
      </trkpt>
      <trkpt lat="44.188887169584632" lon="8.406241871416569">
        <ele>158.27000000000001</ele>
        <time>2016-04-03T12:33:32Z</time>
      </trkpt>
      <trkpt lat="44.188841488212347" lon="8.406212283298373">
        <ele>156.34999999999999</ele>
        <time>2016-04-03T12:33:43Z</time>
      </trkpt>
      <trkpt lat="44.188821036368608" lon="8.406140450388193">
        <ele>155.38999999999999</ele>
        <time>2016-04-03T12:33:52Z</time>
      </trkpt>
      <trkpt lat="44.1887869220227" lon="8.406108180060983">
        <ele>153.47</ele>
        <time>2016-04-03T12:34:00Z</time>
      </trkpt>
      <trkpt lat="44.188749119639397" lon="8.406061492860317">
        <ele>151.06</ele>
        <time>2016-04-03T12:34:08Z</time>
      </trkpt>
      <trkpt lat="44.188700336962938" lon="8.405988486483693">
        <ele>148.18000000000001</ele>
        <time>2016-04-03T12:34:18Z</time>
      </trkpt>
      <trkpt lat="44.188662869855762" lon="8.405924281105399">
        <ele>146.74000000000001</ele>
        <time>2016-04-03T12:34:27Z</time>
      </trkpt>
      <trkpt lat="44.188630599528551" lon="8.405875163152814">
        <ele>144.34</ele>
        <time>2016-04-03T12:34:37Z</time>
      </trkpt>
      <trkpt lat="44.188589779660106" lon="8.405826799571514">
        <ele>141.93000000000001</ele>
        <time>2016-04-03T12:34:46Z</time>
      </trkpt>
      <trkpt lat="44.188576368615031" lon="8.405722863972187">
        <ele>140.00999999999999</ele>
        <time>2016-04-03T12:34:57Z</time>
      </trkpt>
      <trkpt lat="44.188567483797669" lon="8.405703250318766">
        <ele>139.53</ele>
        <time>2016-04-03T12:35:00Z</time>
      </trkpt>
      <trkpt lat="44.188560610637069" lon="8.405676679685712">
        <ele>138.56999999999999</ele>
        <time>2016-04-03T12:35:02Z</time>
      </trkpt>
      <trkpt lat="44.188566310331225" lon="8.405590262264013">
        <ele>137.13</ele>
        <time>2016-04-03T12:35:13Z</time>
      </trkpt>
      <trkpt lat="44.188524316996336" lon="8.405496217310429">
        <ele>135.68000000000001</ele>
        <time>2016-04-03T12:35:24Z</time>
      </trkpt>
      <trkpt lat="44.188506798818707" lon="8.405513819307089">
        <ele>135.68000000000001</ele>
        <time>2016-04-03T12:35:27Z</time>
      </trkpt>
      <trkpt lat="44.188451981171966" lon="8.405498396605253">
        <ele>137.13</ele>
        <time>2016-04-03T12:35:33Z</time>
      </trkpt>
      <trkpt lat="44.188369419425726" lon="8.405477274209261">
        <ele>138.09</ele>
        <time>2016-04-03T12:35:40Z</time>
      </trkpt>
      <trkpt lat="44.188333377242088" lon="8.405445590615273">
        <ele>138.56999999999999</ele>
        <time>2016-04-03T12:35:44Z</time>
      </trkpt>
      <trkpt lat="44.188264645636082" lon="8.405359257012606">
        <ele>140.00999999999999</ele>
        <time>2016-04-03T12:35:57Z</time>
      </trkpt>
      <trkpt lat="44.188217874616385" lon="8.405319442972541">
        <ele>141.44999999999999</ele>
        <time>2016-04-03T12:36:07Z</time>
      </trkpt>
      <trkpt lat="44.18815073557198" lon="8.40524123981595">
        <ele>143.37</ele>
        <time>2016-04-03T12:36:18Z</time>
      </trkpt>
      <trkpt lat="44.188075717538595" lon="8.405171921476722">
        <ele>145.30000000000001</ele>
        <time>2016-04-03T12:36:29Z</time>
      </trkpt>
      <trkpt lat="44.188051661476493" lon="8.405139902606607">
        <ele>145.78</ele>
        <time>2016-04-03T12:36:33Z</time>
      </trkpt>
      <trkpt lat="44.187948480248451" lon="8.405094472691417">
        <ele>146.74000000000001</ele>
        <time>2016-04-03T12:36:46Z</time>
      </trkpt>
      <trkpt lat="44.18789274059236" lon="8.405037811025977">
        <ele>148.18000000000001</ele>
        <time>2016-04-03T12:36:56Z</time>
      </trkpt>
      <trkpt lat="44.187817135825753" lon="8.404998332262039">
        <ele>149.13999999999999</ele>
        <time>2016-04-03T12:37:08Z</time>
      </trkpt>
      <trkpt lat="44.187801210209727" lon="8.404962541535497">
        <ele>150.58000000000001</ele>
        <time>2016-04-03T12:37:17Z</time>
      </trkpt>
      <trkpt lat="44.187824344262481" lon="8.404984753578901">
        <ele>150.58000000000001</ele>
        <time>2016-04-03T12:37:32Z</time>
      </trkpt>
      <trkpt lat="44.187818728387356" lon="8.404987268149853">
        <ele>150.09999999999999</ele>
        <time>2016-04-03T12:37:49Z</time>
      </trkpt>
      <trkpt lat="44.187800539657474" lon="8.404985843226314">
        <ele>150.58000000000001</ele>
        <time>2016-04-03T12:38:06Z</time>
      </trkpt>
      <trkpt lat="44.187804311513901" lon="8.404992800205946">
        <ele>150.58000000000001</ele>
        <time>2016-04-03T12:38:16Z</time>
      </trkpt>
      <trkpt lat="44.18778327293694" lon="8.404981568455696">
        <ele>150.09999999999999</ele>
        <time>2016-04-03T12:38:30Z</time>
      </trkpt>
      <trkpt lat="44.187771286815405" lon="8.404963044449687">
        <ele>150.09999999999999</ele>
        <time>2016-04-03T12:38:46Z</time>
      </trkpt>
      <trkpt lat="44.187773885205388" lon="8.404976706951857">
        <ele>150.58000000000001</ele>
        <time>2016-04-03T12:39:01Z</time>
      </trkpt>
      <trkpt lat="44.187758630141616" lon="8.404971761628985">
        <ele>150.09999999999999</ele>
        <time>2016-04-03T12:39:03Z</time>
      </trkpt>
      <trkpt lat="44.187676822766662" lon="8.404911998659372">
        <ele>151.06</ele>
        <time>2016-04-03T12:39:13Z</time>
      </trkpt>
      <trkpt lat="44.187630722299218" lon="8.404874112457037">
        <ele>152.03</ele>
        <time>2016-04-03T12:39:19Z</time>
      </trkpt>
      <trkpt lat="44.187510693445802" lon="8.404820300638676">
        <ele>151.53999999999999</ele>
        <time>2016-04-03T12:39:32Z</time>
      </trkpt>
      <trkpt lat="44.18743391521275" lon="8.404794484376907">
        <ele>150.09999999999999</ele>
        <time>2016-04-03T12:39:42Z</time>
      </trkpt>
      <trkpt lat="44.187346659600735" lon="8.404776966199279">
        <ele>149.13999999999999</ele>
        <time>2016-04-03T12:39:53Z</time>
      </trkpt>
      <trkpt lat="44.187291255220771" lon="8.404794149100781">
        <ele>148.18000000000001</ele>
        <time>2016-04-03T12:40:00Z</time>
      </trkpt>
      <trkpt lat="44.187254793941975" lon="8.404768835753202">
        <ele>147.69999999999999</ele>
        <time>2016-04-03T12:40:04Z</time>
      </trkpt>
      <trkpt lat="44.187146918848157" lon="8.404691806063056">
        <ele>148.18000000000001</ele>
        <time>2016-04-03T12:40:16Z</time>
      </trkpt>
      <trkpt lat="44.187064943835139" lon="8.404649058356881">
        <ele>149.62</ele>
        <time>2016-04-03T12:40:28Z</time>
      </trkpt>
      <trkpt lat="44.186963187530637" lon="8.404642604291439">
        <ele>150.58000000000001</ele>
        <time>2016-04-03T12:40:41Z</time>
      </trkpt>
      <trkpt lat="44.186834273859859" lon="8.404691889882088">
        <ele>151.53999999999999</ele>
        <time>2016-04-03T12:40:54Z</time>
      </trkpt>
      <trkpt lat="44.186761602759361" lon="8.404734050855041">
        <ele>151.53999999999999</ele>
        <time>2016-04-03T12:41:05Z</time>
      </trkpt>
      <trkpt lat="44.186685578897595" lon="8.404775373637676">
        <ele>152.03</ele>
        <time>2016-04-03T12:41:14Z</time>
      </trkpt>
      <trkpt lat="44.186632102355361" lon="8.404809236526489">
        <ele>151.53999999999999</ele>
        <time>2016-04-03T12:41:24Z</time>
      </trkpt>
      <trkpt lat="44.18659396469593" lon="8.40483857318759">
        <ele>151.06</ele>
        <time>2016-04-03T12:41:35Z</time>
      </trkpt>
      <trkpt lat="44.18650452978909" lon="8.404838740825653">
        <ele>149.62</ele>
        <time>2016-04-03T12:41:48Z</time>
      </trkpt>
      <trkpt lat="44.186460776254535" lon="8.40483320876956">
        <ele>148.66</ele>
        <time>2016-04-03T12:41:57Z</time>
      </trkpt>
      <trkpt lat="44.186416938900948" lon="8.404865562915802">
        <ele>147.69999999999999</ele>
        <time>2016-04-03T12:42:05Z</time>
      </trkpt>
      <trkpt lat="44.186365390196443" lon="8.404875285923481">
        <ele>145.30000000000001</ele>
        <time>2016-04-03T12:42:14Z</time>
      </trkpt>
      <trkpt lat="44.186312332749367" lon="8.404862210154533">
        <ele>142.88999999999999</ele>
        <time>2016-04-03T12:42:24Z</time>
      </trkpt>
      <trkpt lat="44.186310824006796" lon="8.404868077486754">
        <ele>142.41</ele>
        <time>2016-04-03T12:42:27Z</time>
      </trkpt>
      <trkpt lat="44.186317110434175" lon="8.404952315613627">
        <ele>140.49000000000001</ele>
        <time>2016-04-03T12:42:38Z</time>
      </trkpt>
      <trkpt lat="44.186319792643189" lon="8.405038481578231">
        <ele>139.05000000000001</ele>
        <time>2016-04-03T12:42:49Z</time>
      </trkpt>
      <trkpt lat="44.186273273080587" lon="8.404984166845679">
        <ele>137.61000000000001</ele>
        <time>2016-04-03T12:42:57Z</time>
      </trkpt>
      <trkpt lat="44.186239494010806" lon="8.404949633404613">
        <ele>136.63999999999999</ele>
        <time>2016-04-03T12:43:05Z</time>
      </trkpt>
      <trkpt lat="44.186195656657219" lon="8.404920883476734">
        <ele>135.19999999999999</ele>
        <time>2016-04-03T12:43:15Z</time>
      </trkpt>
      <trkpt lat="44.186161374673247" lon="8.404914010316134">
        <ele>133.28</ele>
        <time>2016-04-03T12:43:26Z</time>
      </trkpt>
      <trkpt lat="44.186146706342697" lon="8.40488450601697">
        <ele>132.80000000000001</ele>
        <time>2016-04-03T12:43:37Z</time>
      </trkpt>
      <trkpt lat="44.186118543148041" lon="8.404888696968556">
        <ele>130.88</ele>
        <time>2016-04-03T12:43:46Z</time>
      </trkpt>
      <trkpt lat="44.186067413538694" lon="8.404846200719476">
        <ele>128.94999999999999</ele>
        <time>2016-04-03T12:43:55Z</time>
      </trkpt>
      <trkpt lat="44.18603204190731" lon="8.404883500188589">
        <ele>126.55</ele>
        <time>2016-04-03T12:44:05Z</time>
      </trkpt>
      <trkpt lat="44.186024582013488" lon="8.404884422197938">
        <ele>126.06999999999999</ele>
        <time>2016-04-03T12:44:06Z</time>
      </trkpt>
      <trkpt lat="44.185987701639533" lon="8.40478677302599">
        <ele>124.63</ele>
        <time>2016-04-03T12:44:16Z</time>
      </trkpt>
      <trkpt lat="44.185924669727683" lon="8.404737487435341">
        <ele>122.70999999999999</ele>
        <time>2016-04-03T12:44:26Z</time>
      </trkpt>
      <trkpt lat="44.18587077409029" lon="8.404736649245024">
        <ele>121.26000000000001</ele>
        <time>2016-04-03T12:44:37Z</time>
      </trkpt>
      <trkpt lat="44.185803467407823" lon="8.404745785519481">
        <ele>118.38</ele>
        <time>2016-04-03T12:44:48Z</time>
      </trkpt>
      <trkpt lat="44.185747895389795" lon="8.40471938252449">
        <ele>117.42</ele>
        <time>2016-04-03T12:44:57Z</time>
      </trkpt>
      <trkpt lat="44.185670698061585" lon="8.404718125239015">
        <ele>115.01000000000001</ele>
        <time>2016-04-03T12:45:07Z</time>
      </trkpt>
      <trkpt lat="44.185615796595812" lon="8.40470127761364">
        <ele>113.09</ele>
        <time>2016-04-03T12:45:17Z</time>
      </trkpt>
      <trkpt lat="44.185546226799488" lon="8.404669677838683">
        <ele>110.69</ele>
        <time>2016-04-03T12:45:29Z</time>
      </trkpt>
      <trkpt lat="44.185496605932713" lon="8.404666744172573">
        <ele>108.77</ele>
        <time>2016-04-03T12:45:39Z</time>
      </trkpt>
      <trkpt lat="44.185469951480627" lon="8.404664061963558">
        <ele>107.31999999999999</ele>
        <time>2016-04-03T12:45:51Z</time>
      </trkpt>
      <trkpt lat="44.185408176854253" lon="8.404652075842023">
        <ele>104.92</ele>
        <time>2016-04-03T12:46:03Z</time>
      </trkpt>
      <trkpt lat="44.185345815494657" lon="8.404622906818986">
        <ele>102.52</ele>
        <time>2016-04-03T12:46:14Z</time>
      </trkpt>
      <trkpt lat="44.185272892937064" lon="8.404632965102792">
        <ele>99.629999999999995</ele>
        <time>2016-04-03T12:46:25Z</time>
      </trkpt>
      <trkpt lat="44.185239532962441" lon="8.404637491330504">
        <ele>98.670000000000002</ele>
        <time>2016-04-03T12:46:33Z</time>
      </trkpt>
      <trkpt lat="44.18523115105927" lon="8.404646879062057">
        <ele>98.670000000000002</ele>
        <time>2016-04-03T12:46:43Z</time>
      </trkpt>
      <trkpt lat="44.185205921530724" lon="8.404601952061057">
        <ele>97.709999999999994</ele>
        <time>2016-04-03T12:46:51Z</time>
      </trkpt>
      <trkpt lat="44.185134004801512" lon="8.4045151155442">
        <ele>95.310000000000002</ele>
        <time>2016-04-03T12:47:05Z</time>
      </trkpt>
      <trkpt lat="44.185078181326389" lon="8.404480246827006">
        <ele>92.900000000000006</ele>
        <time>2016-04-03T12:47:15Z</time>
      </trkpt>
      <trkpt lat="44.185057310387492" lon="8.404458034783602">
        <ele>91.459999999999994</ele>
        <time>2016-04-03T12:47:18Z</time>
      </trkpt>
      <trkpt lat="44.185025878250599" lon="8.404422663152218">
        <ele>90.5</ele>
        <time>2016-04-03T12:47:23Z</time>
      </trkpt>
      <trkpt lat="44.1850068513304" lon="8.404419729486108">
        <ele>90.019999999999996</ele>
        <time>2016-04-03T12:47:25Z</time>
      </trkpt>
      <trkpt lat="44.184974497184157" lon="8.404409755021334">
        <ele>89.540000000000006</ele>
        <time>2016-04-03T12:47:29Z</time>
      </trkpt>
      <trkpt lat="44.184911549091339" lon="8.404340939596295">
        <ele>88.579999999999998</ele>
        <time>2016-04-03T12:47:39Z</time>
      </trkpt>
      <trkpt lat="44.184873830527067" lon="8.404378406703472">
        <ele>85.689999999999998</ele>
        <time>2016-04-03T12:47:48Z</time>
      </trkpt>
      <trkpt lat="44.184892354533076" lon="8.404434397816658">
        <ele>84.730000000000004</ele>
        <time>2016-04-03T12:47:53Z</time>
      </trkpt>
      <trkpt lat="44.184940466657281" lon="8.404512600973249">
        <ele>82.810000000000002</ele>
        <time>2016-04-03T12:48:03Z</time>
      </trkpt>
      <trkpt lat="44.184927474707365" lon="8.404562305659056">
        <ele>81.370000000000005</ele>
        <time>2016-04-03T12:48:09Z</time>
      </trkpt>
      <trkpt lat="44.184882128611207" lon="8.404617458581924">
        <ele>79.450000000000003</ele>
        <time>2016-04-03T12:48:19Z</time>
      </trkpt>
      <trkpt lat="44.184813564643264" lon="8.404579740017653">
        <ele>78.480000000000004</ele>
        <time>2016-04-03T12:48:30Z</time>
      </trkpt>
      <trkpt lat="44.184791017323732" lon="8.40459231287241">
        <ele>78.480000000000004</ele>
        <time>2016-04-03T12:48:39Z</time>
      </trkpt>
      <trkpt lat="44.184790598228574" lon="8.404579740017653">
        <ele>78.480000000000004</ele>
        <time>2016-04-03T12:48:51Z</time>
      </trkpt>
      <trkpt lat="44.184789340943098" lon="8.404609831050038">
        <ele>78</ele>
        <time>2016-04-03T12:49:07Z</time>
      </trkpt>
      <trkpt lat="44.184813983738422" lon="8.404644867405295">
        <ele>77.040000000000006</ele>
        <time>2016-04-03T12:49:12Z</time>
      </trkpt>
      <trkpt lat="44.184882547706366" lon="8.404695158824325">
        <ele>76.079999999999998</ele>
        <time>2016-04-03T12:49:22Z</time>
      </trkpt>
      <trkpt lat="44.18492672033608" lon="8.404790880158544">
        <ele>74.159999999999997</ele>
        <time>2016-04-03T12:49:33Z</time>
      </trkpt>
      <trkpt lat="44.184936359524727" lon="8.404813511297107">
        <ele>73.680000000000007</ele>
        <time>2016-04-03T12:49:35Z</time>
      </trkpt>
      <trkpt lat="44.18497072532773" lon="8.404983412474394">
        <ele>71.760000000000005</ele>
        <time>2016-04-03T12:49:49Z</time>
      </trkpt>
      <trkpt lat="44.184984806925058" lon="8.405069662258029">
        <ele>70.310000000000002</ele>
        <time>2016-04-03T12:49:59Z</time>
      </trkpt>
      <trkpt lat="44.184998385608196" lon="8.405097741633654">
        <ele>69.829999999999998</ele>
        <time>2016-04-03T12:50:11Z</time>
      </trkpt>
      <trkpt lat="44.185093939304352" lon="8.405227242037654">
        <ele>66.950000000000003</ele>
        <time>2016-04-03T12:50:26Z</time>
      </trkpt>
      <trkpt lat="44.185135010629892" lon="8.405335200950503">
        <ele>65.030000000000001</ele>
        <time>2016-04-03T12:50:38Z</time>
      </trkpt>
      <trkpt lat="44.18517155572772" lon="8.405443830415607">
        <ele>62.619999999999997</ele>
        <time>2016-04-03T12:50:50Z</time>
      </trkpt>
      <trkpt lat="44.185201898217201" lon="8.405508622527123">
        <ele>61.659999999999997</ele>
        <time>2016-04-03T12:50:56Z</time>
      </trkpt>
      <trkpt lat="44.185206340625882" lon="8.405611217021942">
        <ele>60.700000000000003</ele>
        <time>2016-04-03T12:51:07Z</time>
      </trkpt>
      <trkpt lat="44.185191672295332" lon="8.405602918937802">
        <ele>60.219999999999999</ele>
        <time>2016-04-03T12:51:19Z</time>
      </trkpt>
      <trkpt lat="44.185225032269955" lon="8.405645499005914">
        <ele>60.219999999999999</ele>
        <time>2016-04-03T12:51:36Z</time>
      </trkpt>
      <trkpt lat="44.185259314253926" lon="8.405746836215258">
        <ele>60.219999999999999</ele>
        <time>2016-04-03T12:51:47Z</time>
      </trkpt>
      <trkpt lat="44.185275994241238" lon="8.405826212838292">
        <ele>59.259999999999998</ele>
        <time>2016-04-03T12:51:53Z</time>
      </trkpt>
      <trkpt lat="44.185350257903337" lon="8.406031653285027">
        <ele>58.780000000000001</ele>
        <time>2016-04-03T12:52:10Z</time>
      </trkpt>
      <trkpt lat="44.185390071943402" lon="8.406186467036605">
        <ele>57.82</ele>
        <time>2016-04-03T12:52:23Z</time>
      </trkpt>
      <trkpt lat="44.185381773859262" lon="8.406283864751458">
        <ele>56.859999999999999</ele>
        <time>2016-04-03T12:52:34Z</time>
      </trkpt>
      <trkpt lat="44.185368781909347" lon="8.406306663528085">
        <ele>56.859999999999999</ele>
        <time>2016-04-03T12:52:45Z</time>
      </trkpt>
      <trkpt lat="44.18539677746594" lon="8.406344298273325">
        <ele>57.340000000000003</ele>
        <time>2016-04-03T12:52:54Z</time>
      </trkpt>
      <trkpt lat="44.185396945104003" lon="8.406368521973491">
        <ele>56.859999999999999</ele>
        <time>2016-04-03T12:52:56Z</time>
      </trkpt>
      <trkpt lat="44.185409769415855" lon="8.406404480338097">
        <ele>56.859999999999999</ele>
        <time>2016-04-03T12:52:59Z</time>
      </trkpt>
      <trkpt lat="44.185425527393818" lon="8.406514367088676">
        <ele>56.859999999999999</ele>
        <time>2016-04-03T12:53:11Z</time>
      </trkpt>
      <trkpt lat="44.185426197946072" lon="8.406505063176155">
        <ele>56.369999999999997</ele>
        <time>2016-04-03T12:53:31Z</time>
      </trkpt>
      <trkpt lat="44.185437932610512" lon="8.406497100368142">
        <ele>56.859999999999999</ele>
        <time>2016-04-03T12:53:33Z</time>
      </trkpt>
      <trkpt lat="44.18547011911869" lon="8.406498273834586">
        <ele>56.369999999999997</ele>
        <time>2016-04-03T12:53:36Z</time>
      </trkpt>
      <trkpt lat="44.185555949807167" lon="8.40656247921288">
        <ele>56.859999999999999</ele>
        <time>2016-04-03T12:53:46Z</time>
      </trkpt>
      <trkpt lat="44.185586543753743" lon="8.406535405665636">
        <ele>57.340000000000003</ele>
        <time>2016-04-03T12:53:55Z</time>
      </trkpt>
      <trkpt lat="44.185566594824195" lon="8.406572202220559">
        <ele>56.859999999999999</ele>
        <time>2016-04-03T12:53:58Z</time>
      </trkpt>
      <trkpt lat="44.185521164909005" lon="8.406561641022563">
        <ele>56.369999999999997</ele>
        <time>2016-04-03T12:54:07Z</time>
      </trkpt>
      <trkpt lat="44.18548964895308" lon="8.406526185572147">
        <ele>56.369999999999997</ele>
        <time>2016-04-03T12:54:19Z</time>
      </trkpt>
      <trkpt lat="44.18539677746594" lon="8.406494334340096">
        <ele>56.369999999999997</ele>
        <time>2016-04-03T12:54:30Z</time>
      </trkpt>
      <trkpt lat="44.185434831306338" lon="8.406491987407208">
        <ele>55.409999999999997</ele>
        <time>2016-04-03T12:54:42Z</time>
      </trkpt>
      <trkpt lat="44.185437932610512" lon="8.406491065397859">
        <ele>56.369999999999997</ele>
        <time>2016-04-03T12:54:59Z</time>
      </trkpt>
      <trkpt lat="44.18542955070734" lon="8.406482767313719">
        <ele>56.369999999999997</ele>
        <time>2016-04-03T12:55:09Z</time>
      </trkpt>
      <trkpt lat="44.185425443574786" lon="8.40648771263659">
        <ele>56.369999999999997</ele>
        <time>2016-04-03T12:55:27Z</time>
      </trkpt>
      <trkpt lat="44.185432735830545" lon="8.406495004892349">
        <ele>56.369999999999997</ele>
        <time>2016-04-03T12:55:47Z</time>
      </trkpt>
      <trkpt lat="44.185433657839894" lon="8.406508667394519">
        <ele>56.369999999999997</ele>
        <time>2016-04-03T12:56:00Z</time>
      </trkpt>
      <trkpt lat="44.185430137440562" lon="8.40651604346931">
        <ele>55.890000000000001</ele>
        <time>2016-04-03T12:56:14Z</time>
      </trkpt>
      <trkpt lat="44.185428880155087" lon="8.406525515019894">
        <ele>55.890000000000001</ele>
        <time>2016-04-03T12:56:28Z</time>
      </trkpt>
      <trkpt lat="44.185413373634219" lon="8.406483437865973">
        <ele>55.890000000000001</ele>
        <time>2016-04-03T12:56:44Z</time>
      </trkpt>
      <trkpt lat="44.185414547100663" lon="8.40648234821856">
        <ele>56.369999999999997</ele>
        <time>2016-04-03T12:56:57Z</time>
      </trkpt>
      <trkpt lat="44.185409266501665" lon="8.406470278277993">
        <ele>55.409999999999997</ele>
        <time>2016-04-03T12:57:17Z</time>
      </trkpt>
      <trkpt lat="44.185406835749745" lon="8.406498860567808">
        <ele>56.369999999999997</ele>
        <time>2016-04-03T12:57:32Z</time>
      </trkpt>
      <trkpt lat="44.185413373634219" lon="8.406498022377491">
        <ele>55.890000000000001</ele>
        <time>2016-04-03T12:57:48Z</time>
      </trkpt>
      <trkpt lat="44.185417648404837" lon="8.406513025984168">
        <ele>55.890000000000001</ele>
        <time>2016-04-03T12:58:00Z</time>
      </trkpt>
      <trkpt lat="44.18541194871068" lon="8.406500872224569">
        <ele>55.890000000000001</ele>
        <time>2016-04-03T12:58:19Z</time>
      </trkpt>
      <trkpt lat="44.185423767194152" lon="8.406511601060629">
        <ele>55.890000000000001</ele>
        <time>2016-04-03T12:58:37Z</time>
      </trkpt>
      <trkpt lat="44.185416139662266" lon="8.406518893316388">
        <ele>55.890000000000001</ele>
        <time>2016-04-03T12:58:58Z</time>
      </trkpt>
      <trkpt lat="44.185403566807508" lon="8.40649701654911">
        <ele>56.369999999999997</ele>
        <time>2016-04-03T12:59:23Z</time>
      </trkpt>
      <trkpt lat="44.185378504917026" lon="8.406505901366472">
        <ele>56.369999999999997</ele>
        <time>2016-04-03T12:59:39Z</time>
      </trkpt>
      <trkpt lat="44.185402812436223" lon="8.40652484446764">
        <ele>56.369999999999997</ele>
        <time>2016-04-03T12:59:58Z</time>
      </trkpt>
      <trkpt lat="44.185421336442232" lon="8.406491568312049">
        <ele>56.369999999999997</ele>
        <time>2016-04-03T13:00:17Z</time>
      </trkpt>
      <trkpt lat="44.185419157147408" lon="8.406504141166806">
        <ele>56.369999999999997</ele>
        <time>2016-04-03T13:00:31Z</time>
      </trkpt>
      <trkpt lat="44.185424437746406" lon="8.406533310189843">
        <ele>56.369999999999997</ele>
        <time>2016-04-03T13:00:48Z</time>
      </trkpt>
      <trkpt lat="44.185425192117691" lon="8.406522162258625">
        <ele>56.369999999999997</ele>
        <time>2016-04-03T13:01:01Z</time>
      </trkpt>
      <trkpt lat="44.185418067499995" lon="8.406497519463301">
        <ele>56.369999999999997</ele>
        <time>2016-04-03T13:01:21Z</time>
      </trkpt>
      <trkpt lat="44.185411613434553" lon="8.406502464786172">
        <ele>56.369999999999997</ele>
        <time>2016-04-03T13:01:40Z</time>
      </trkpt>
      <trkpt lat="44.185412619262934" lon="8.406500369310379">
        <ele>56.369999999999997</ele>
        <time>2016-04-03T13:01:59Z</time>
      </trkpt>
      <trkpt lat="44.185399627313018" lon="8.406484611332417">
        <ele>56.369999999999997</ele>
        <time>2016-04-03T13:02:15Z</time>
      </trkpt>
      <trkpt lat="44.185396274551749" lon="8.40649014338851">
        <ele>56.369999999999997</ele>
        <time>2016-04-03T13:02:28Z</time>
      </trkpt>
      <trkpt lat="44.185390658676624" lon="8.406499112024903">
        <ele>56.369999999999997</ele>
        <time>2016-04-03T13:02:59Z</time>
      </trkpt>
      <trkpt lat="44.185413289815187" lon="8.406467763707042">
        <ele>56.369999999999997</ele>
        <time>2016-04-03T13:03:13Z</time>
      </trkpt>
      <trkpt lat="44.185392921790481" lon="8.406440522521734">
        <ele>56.369999999999997</ele>
        <time>2016-04-03T13:03:22Z</time>
      </trkpt>
      <trkpt lat="44.185402728617191" lon="8.406436163932085">
        <ele>56.369999999999997</ele>
        <time>2016-04-03T13:03:35Z</time>
      </trkpt>
      <trkpt lat="44.185408595949411" lon="8.406432056799531">
        <ele>56.859999999999999</ele>
        <time>2016-04-03T13:03:46Z</time>
      </trkpt>
      <trkpt lat="44.185420833528042" lon="8.406508080661297">
        <ele>56.369999999999997</ele>
        <time>2016-04-03T13:03:45Z</time>
      </trkpt>
      <trkpt lat="44.185398370027542" lon="8.406500620767474">
        <ele>56.369999999999997</ele>
        <time>2016-04-03T13:03:58Z</time>
      </trkpt>
      <trkpt lat="44.185373140498996" lon="8.406422920525074">
        <ele>56.369999999999997</ele>
        <time>2016-04-03T13:04:12Z</time>
      </trkpt>
      <trkpt lat="44.185354951769114" lon="8.406342370435596">
        <ele>56.859999999999999</ele>
        <time>2016-04-03T13:04:23Z</time>
      </trkpt>
      <trkpt lat="44.185367273166776" lon="8.406260060146451">
        <ele>56.859999999999999</ele>
        <time>2016-04-03T13:04:39Z</time>
      </trkpt>
      <trkpt lat="44.185359058901668" lon="8.406223431229591">
        <ele>56.859999999999999</ele>
        <time>2016-04-03T13:04:49Z</time>
      </trkpt>
      <trkpt lat="44.185353862121701" lon="8.406166518107057">
        <ele>57.340000000000003</ele>
        <time>2016-04-03T13:05:01Z</time>
      </trkpt>
      <trkpt lat="44.185337098315358" lon="8.406118741258979">
        <ele>57.340000000000003</ele>
        <time>2016-04-03T13:05:06Z</time>
      </trkpt>
      <trkpt lat="44.185272809118032" lon="8.405931992456317">
        <ele>58.299999999999997</ele>
        <time>2016-04-03T13:05:20Z</time>
      </trkpt>
      <trkpt lat="44.185229977592826" lon="8.405758906155825">
        <ele>59.259999999999998</ele>
        <time>2016-04-03T13:05:32Z</time>
      </trkpt>
      <trkpt lat="44.185187732800841" lon="8.405619263648987">
        <ele>59.740000000000002</ele>
        <time>2016-04-03T13:05:44Z</time>
      </trkpt>
      <trkpt lat="44.185150433331728" lon="8.405466545373201">
        <ele>61.18</ele>
        <time>2016-04-03T13:05:57Z</time>
      </trkpt>
      <trkpt lat="44.185111792758107" lon="8.405355652794242">
        <ele>63.100000000000001</ele>
        <time>2016-04-03T13:06:09Z</time>
      </trkpt>
      <trkpt lat="44.185080779716372" lon="8.405248699709773">
        <ele>65.030000000000001</ele>
        <time>2016-04-03T13:06:22Z</time>
      </trkpt>
      <trkpt lat="44.185029901564121" lon="8.405175944790244">
        <ele>66.950000000000003</ele>
        <time>2016-04-03T13:06:34Z</time>
      </trkpt>
      <trkpt lat="44.184971647337079" lon="8.40511660091579">
        <ele>68.390000000000001</ele>
        <time>2016-04-03T13:06:47Z</time>
      </trkpt>
      <trkpt lat="44.184937784448266" lon="8.40499397367239">
        <ele>69.829999999999998</ele>
        <time>2016-04-03T13:07:02Z</time>
      </trkpt>
      <trkpt lat="44.184916662052274" lon="8.404890960082412">
        <ele>71.760000000000005</ele>
        <time>2016-04-03T13:07:14Z</time>
      </trkpt>
      <trkpt lat="44.184890007600188" lon="8.404798423871398">
        <ele>72.719999999999999</ele>
        <time>2016-04-03T13:07:26Z</time>
      </trkpt>
      <trkpt lat="44.184860251843929" lon="8.404713431373239">
        <ele>73.680000000000007</ele>
        <time>2016-04-03T13:07:38Z</time>
      </trkpt>
      <trkpt lat="44.184821275994182" lon="8.404656769707799">
        <ele>75.120000000000005</ele>
        <time>2016-04-03T13:07:48Z</time>
      </trkpt>
      <trkpt lat="44.184785149991512" lon="8.404606310650706">
        <ele>76.079999999999998</ele>
        <time>2016-04-03T13:07:59Z</time>
      </trkpt>
      <trkpt lat="44.184773918241262" lon="8.404591893777251">
        <ele>76.079999999999998</ele>
        <time>2016-04-03T13:08:14Z</time>
      </trkpt>
      <trkpt lat="44.184758327901363" lon="8.404573705047369">
        <ele>76.560000000000002</ele>
        <time>2016-04-03T13:08:31Z</time>
      </trkpt>
      <trkpt lat="44.184754304587841" lon="8.404569430276752">
        <ele>76.560000000000002</ele>
        <time>2016-04-03T13:08:32Z</time>
      </trkpt>
      <trkpt lat="44.184708036482334" lon="8.404568005353212">
        <ele>76.560000000000002</ele>
        <time>2016-04-03T13:08:42Z</time>
      </trkpt>
      <trkpt lat="44.184673922136426" lon="8.404556354507804">
        <ele>76.079999999999998</ele>
        <time>2016-04-03T13:08:53Z</time>
      </trkpt>
      <trkpt lat="44.184653721749783" lon="8.404551912099123">
        <ele>76.079999999999998</ele>
        <time>2016-04-03T13:09:05Z</time>
      </trkpt>
      <trkpt lat="44.184656403958797" lon="8.404560294002295">
        <ele>76.079999999999998</ele>
        <time>2016-04-03T13:09:21Z</time>
      </trkpt>
      <trkpt lat="44.184617009013891" lon="8.404535567387939">
        <ele>76.079999999999998</ele>
        <time>2016-04-03T13:09:38Z</time>
      </trkpt>
      <trkpt lat="44.184552384540439" lon="8.404503548517823">
        <ele>74.159999999999997</ele>
        <time>2016-04-03T13:09:47Z</time>
      </trkpt>
      <trkpt lat="44.184462446719408" lon="8.404354434460402">
        <ele>73.680000000000007</ele>
        <time>2016-04-03T13:10:01Z</time>
      </trkpt>
      <trkpt lat="44.184398744255304" lon="8.404268939048052">
        <ele>73.200000000000003</ele>
        <time>2016-04-03T13:10:12Z</time>
      </trkpt>
      <trkpt lat="44.184351051226258" lon="8.404227532446384">
        <ele>72.239999999999995</ele>
        <time>2016-04-03T13:10:22Z</time>
      </trkpt>
      <trkpt lat="44.18426857329905" lon="8.404229041188955">
        <ele>68.870000000000005</ele>
        <time>2016-04-03T13:10:35Z</time>
      </trkpt>
      <trkpt lat="44.184162374585867" lon="8.404260389506817">
        <ele>65.989999999999995</ele>
        <time>2016-04-03T13:10:48Z</time>
      </trkpt>
      <trkpt lat="44.184077214449644" lon="8.404297521337867">
        <ele>63.100000000000001</ele>
        <time>2016-04-03T13:11:01Z</time>
      </trkpt>
      <trkpt lat="44.184068161994219" lon="8.404309842735529">
        <ele>62.619999999999997</ele>
        <time>2016-04-03T13:11:03Z</time>
      </trkpt>
      <trkpt lat="44.183989707380533" lon="8.404344208538532">
        <ele>59.259999999999998</ele>
        <time>2016-04-03T13:11:16Z</time>
      </trkpt>
      <trkpt lat="44.183996329084039" lon="8.404366839677095">
        <ele>58.299999999999997</ele>
        <time>2016-04-03T13:11:22Z</time>
      </trkpt>
      <trkpt lat="44.183902451768517" lon="8.40437144972384">
        <ele>55.409999999999997</ele>
        <time>2016-04-03T13:11:33Z</time>
      </trkpt>
      <trkpt lat="44.183883760124445" lon="8.40437388047576">
        <ele>55.409999999999997</ele>
        <time>2016-04-03T13:11:35Z</time>
      </trkpt>
      <trkpt lat="44.183773789554834" lon="8.404329121112824">
        <ele>53.490000000000002</ele>
        <time>2016-04-03T13:11:46Z</time>
      </trkpt>
      <trkpt lat="44.183665495365858" lon="8.404285116121173">
        <ele>51.090000000000003</ele>
        <time>2016-04-03T13:11:57Z</time>
      </trkpt>
      <trkpt lat="44.183577401563525" lon="8.404208337888122">
        <ele>49.649999999999999</ele>
        <time>2016-04-03T13:12:08Z</time>
      </trkpt>
      <trkpt lat="44.183490732684731" lon="8.404134325683117">
        <ele>47.719999999999999</ele>
        <time>2016-04-03T13:12:20Z</time>
      </trkpt>
      <trkpt lat="44.183486457914114" lon="8.404123177751899">
        <ele>47.719999999999999</ele>
        <time>2016-04-03T13:12:21Z</time>
      </trkpt>
      <trkpt lat="44.183435579761863" lon="8.404024187475443">
        <ele>46.280000000000001</ele>
        <time>2016-04-03T13:12:31Z</time>
      </trkpt>
      <trkpt lat="44.183409931138158" lon="8.403888065367937">
        <ele>44.359999999999999</ele>
        <time>2016-04-03T13:12:44Z</time>
      </trkpt>
      <trkpt lat="44.183421498164535" lon="8.403819417580962">
        <ele>42.439999999999998</ele>
        <time>2016-04-03T13:12:56Z</time>
      </trkpt>
      <trkpt lat="44.183412697166204" lon="8.4037034958601">
        <ele>40.030000000000001</ele>
        <time>2016-04-03T13:13:10Z</time>
      </trkpt>
      <trkpt lat="44.183353604748845" lon="8.403728725388646">
        <ele>37.149999999999999</ele>
        <time>2016-04-03T13:13:21Z</time>
      </trkpt>
      <trkpt lat="44.183331057429314" lon="8.403671560809016">
        <ele>35.710000000000001</ele>
        <time>2016-04-03T13:13:31Z</time>
      </trkpt>
      <trkpt lat="44.183351341634989" lon="8.40360090136528">
        <ele>33.780000000000001</ele>
        <time>2016-04-03T13:13:37Z</time>
      </trkpt>
      <trkpt lat="44.183339439332485" lon="8.403460504487157">
        <ele>30.420000000000002</ele>
        <time>2016-04-03T13:13:50Z</time>
      </trkpt>
      <trkpt lat="44.183320915326476" lon="8.403357490897179">
        <ele>27.530000000000001</ele>
        <time>2016-04-03T13:14:01Z</time>
      </trkpt>
      <trkpt lat="44.183319909498096" lon="8.403344582766295">
        <ele>27.530000000000001</ele>
        <time>2016-04-03T13:14:02Z</time>
      </trkpt>
      <trkpt lat="44.183312701061368" lon="8.403086420148611">
        <ele>25.609999999999999</ele>
        <time>2016-04-03T13:14:18Z</time>
      </trkpt>
      <trkpt lat="44.183315047994256" lon="8.40305658057332">
        <ele>25.609999999999999</ele>
        <time>2016-04-03T13:14:20Z</time>
      </trkpt>
      <trkpt lat="44.183333069086075" lon="8.402867987751961">
        <ele>22.73</ele>
        <time>2016-04-03T13:14:32Z</time>
      </trkpt>
      <trkpt lat="44.183320412412286" lon="8.402731195092201">
        <ele>21.289999999999999</ele>
        <time>2016-04-03T13:14:44Z</time>
      </trkpt>
      <trkpt lat="44.183230390772223" lon="8.402636731043458">
        <ele>19.359999999999999</ele>
        <time>2016-04-03T13:14:56Z</time>
      </trkpt>
      <trkpt lat="44.183140201494098" lon="8.402601443231106">
        <ele>18.399999999999999</ele>
        <time>2016-04-03T13:15:07Z</time>
      </trkpt>
      <trkpt lat="44.183074152097106" lon="8.402715353295207">
        <ele>17.440000000000001</ele>
        <time>2016-04-03T13:15:17Z</time>
      </trkpt>
      <trkpt lat="44.183016149327159" lon="8.40281710959971">
        <ele>16.48</ele>
        <time>2016-04-03T13:15:27Z</time>
      </trkpt>
      <trkpt lat="44.18291456066072" lon="8.402828341349959">
        <ele>15.039999999999999</ele>
        <time>2016-04-03T13:15:40Z</time>
      </trkpt>
      <trkpt lat="44.182824539020658" lon="8.402795316651464">
        <ele>14.08</ele>
        <time>2016-04-03T13:15:53Z</time>
      </trkpt>
      <trkpt lat="44.182675173506141" lon="8.402753155678511">
        <ele>13.6</ele>
        <time>2016-04-03T13:16:07Z</time>
      </trkpt>
      <trkpt lat="44.18257056735456" lon="8.402750557288528">
        <ele>12.15</ele>
        <time>2016-04-03T13:16:18Z</time>
      </trkpt>
      <trkpt lat="44.182496890425682" lon="8.402732452377677">
        <ele>11.67</ele>
        <time>2016-04-03T13:16:30Z</time>
      </trkpt>
      <trkpt lat="44.182420363649726" lon="8.402664391323924">
        <ele>12.15</ele>
        <time>2016-04-03T13:16:42Z</time>
      </trkpt>
      <trkpt lat="44.18241860345006" lon="8.402669671922922">
        <ele>12.15</ele>
        <time>2016-04-03T13:16:52Z</time>
      </trkpt>
      <trkpt lat="44.18241374194622" lon="8.402681909501553">
        <ele>12.15</ele>
        <time>2016-04-03T13:16:59Z</time>
      </trkpt>
      <trkpt lat="44.182359091937542" lon="8.40273798443377">
        <ele>12.15</ele>
        <time>2016-04-03T13:17:05Z</time>
      </trkpt>
      <trkpt lat="44.182335622608662" lon="8.402792802080512">
        <ele>12.15</ele>
        <time>2016-04-03T13:17:17Z</time>
      </trkpt>
      <trkpt lat="44.182338723912835" lon="8.402759861201048">
        <ele>12.15</ele>
        <time>2016-04-03T13:17:29Z</time>
      </trkpt>
      <trkpt lat="44.182330844923854" lon="8.402744187042117">
        <ele>12.15</ele>
        <time>2016-04-03T13:17:41Z</time>
      </trkpt>
      <trkpt lat="44.182324726134539" lon="8.402781235054135">
        <ele>12.15</ele>
        <time>2016-04-03T13:17:52Z</time>
      </trkpt>
      <trkpt lat="44.182214420288801" lon="8.40274821035564">
        <ele>12.15</ele>
        <time>2016-04-03T13:18:05Z</time>
      </trkpt>
      <trkpt lat="44.182127919048071" lon="8.40274577960372">
        <ele>10.23</ele>
        <time>2016-04-03T13:18:16Z</time>
      </trkpt>
      <trkpt lat="44.182103695347905" lon="8.402813589200378">
        <ele>10.23</ele>
        <time>2016-04-03T13:18:22Z</time>
      </trkpt>
      <trkpt lat="44.182096822187304" lon="8.402835382148624">
        <ele>10.23</ele>
        <time>2016-04-03T13:18:25Z</time>
      </trkpt>
      <trkpt lat="44.181956509128213" lon="8.402756759896874">
        <ele>9.75</ele>
        <time>2016-04-03T13:18:37Z</time>
      </trkpt>
      <trkpt lat="44.181837234646082" lon="8.402731865644455">
        <ele>9.75</ele>
        <time>2016-04-03T13:18:49Z</time>
      </trkpt>
      <trkpt lat="44.181740842759609" lon="8.402763633057475">
        <ele>9.75</ele>
        <time>2016-04-03T13:18:57Z</time>
      </trkpt>
      <trkpt lat="44.181715026497841" lon="8.402795232832432">
        <ele>9.75</ele>
        <time>2016-04-03T13:19:00Z</time>
      </trkpt>
      <trkpt lat="44.181705052033067" lon="8.402826162055135">
        <ele>9.27</ele>
        <time>2016-04-03T13:19:02Z</time>
      </trkpt>
      <trkpt lat="44.18169884942472" lon="8.403015257790685">
        <ele>9.75</ele>
        <time>2016-04-03T13:19:16Z</time>
      </trkpt>
      <trkpt lat="44.181716619059443" lon="8.40318700298667">
        <ele>9.27</ele>
        <time>2016-04-03T13:19:29Z</time>
      </trkpt>
      <trkpt lat="44.18165534734726" lon="8.403273168951273">
        <ele>9.27</ele>
        <time>2016-04-03T13:19:41Z</time>
      </trkpt>
      <trkpt lat="44.181615114212036" lon="8.403275180608034">
        <ele>8.789999999999999</ele>
        <time>2016-04-03T13:19:45Z</time>
      </trkpt>
      <trkpt lat="44.181425012648106" lon="8.403257243335247">
        <ele>7.83</ele>
        <time>2016-04-03T13:20:00Z</time>
      </trkpt>
      <trkpt lat="44.18133432045579" lon="8.403266798704863">
        <ele>5.91</ele>
        <time>2016-04-03T13:20:12Z</time>
      </trkpt>
      <trkpt lat="44.181274389848113" lon="8.403282975777984">
        <ele>5.91</ele>
        <time>2016-04-03T13:20:23Z</time>
      </trkpt>
      <trkpt lat="44.181259889155626" lon="8.403267217800021">
        <ele>5.91</ele>
        <time>2016-04-03T13:20:32Z</time>
      </trkpt>
      <trkpt lat="44.181265756487846" lon="8.403254309669137">
        <ele>5.91</ele>
        <time>2016-04-03T13:20:47Z</time>
      </trkpt>
      <trkpt lat="44.181260978803039" lon="8.403248777613044">
        <ele>5.42</ele>
        <time>2016-04-03T13:21:07Z</time>
      </trkpt>
      <trkpt lat="44.181258799508214" lon="8.403269397094846">
        <ele>5.42</ele>
        <time>2016-04-03T13:21:19Z</time>
      </trkpt>
      <trkpt lat="44.181256871670485" lon="8.403277024626732">
        <ele>5.42</ele>
        <time>2016-04-03T13:21:28Z</time>
      </trkpt>
      <trkpt lat="44.181252429261804" lon="8.40329353697598">
        <ele>5.42</ele>
        <time>2016-04-03T13:21:38Z</time>
      </trkpt>
      <trkpt lat="44.181271204724908" lon="8.403356485068798">
        <ele>5.91</ele>
        <time>2016-04-03T13:21:49Z</time>
      </trkpt>
      <trkpt lat="44.181267684325576" lon="8.403493529185653">
        <ele>4.94</ele>
        <time>2016-04-03T13:22:01Z</time>
      </trkpt>
      <trkpt lat="44.181254776194692" lon="8.403618754819036">
        <ele>5.42</ele>
        <time>2016-04-03T13:22:12Z</time>
      </trkpt>
      <trkpt lat="44.181252596899867" lon="8.403741465881467">
        <ele>5.42</ele>
        <time>2016-04-03T13:22:23Z</time>
      </trkpt>
      <trkpt lat="44.181256284937263" lon="8.403857052326202">
        <ele>5.91</ele>
        <time>2016-04-03T13:22:35Z</time>
      </trkpt>
      <trkpt lat="44.181275814771652" lon="8.403973057866097">
        <ele>5.91</ele>
        <time>2016-04-03T13:22:46Z</time>
      </trkpt>
      <trkpt lat="44.181220578029752" lon="8.404073556885123">
        <ele>5.91</ele>
        <time>2016-04-03T13:22:58Z</time>
      </trkpt>
      <trkpt lat="44.181223679333925" lon="8.404050841927528">
        <ele>5.91</ele>
        <time>2016-04-03T13:23:10Z</time>
      </trkpt>
      <trkpt lat="44.181211441755295" lon="8.404045226052404">
        <ele>5.42</ele>
        <time>2016-04-03T13:23:19Z</time>
      </trkpt>
      <trkpt lat="44.181221080943942" lon="8.404060062021017">
        <ele>4.94</ele>
        <time>2016-04-03T13:23:31Z</time>
      </trkpt>
      <trkpt lat="44.181201718747616" lon="8.404067773371935">
        <ele>5.42</ele>
        <time>2016-04-03T13:23:41Z</time>
      </trkpt>
    </trkseg>
  </trk>

</gpx>